[[{"header":{"parameterUnit":"m.s-1","parameterCategory":1,"la1":31.0,"la2":29.5877,"lo1":-88.7671,"lo2":-86.6584,"dy":0.0162,"dx":0.0185,"nx":115,"ny":88,"refTime":"2026-03-19T12:00:00:Z","depth":0,"parameterNumber":2,"parameterNumberName":"U-component_of_WINDS"},"data":[0.0,0.0,0.0,0.0,0.0,0.0,0.0,0.0,0.0,0.0,0.0,0.0,0.0,0.0,0.0,0.0,0.0,0.0,0.0,0.0,0.0,0.0,0.0,0.0,0.0,0.0,0.0,0.0,0.0,0.0,0.0,0.0,0.0,0.0,0.0,0.0,0.0,0.0,0.0,0.0,0.0,0.0,0.0,0.0,0.0,0.0,0.0,0.0,0.0,0.0,0.0,0.0,0.0,0.0,0.0,0.0,0.0,0.0,0.0,0.0,0.0,0.0,0.0,0.0,0.0,0.0,0.0,0.0,0.0,0.0,0.0,0.0,0.0,0.0,0.0,0.0,0.0,0.0,0.0,0.0,0.0,0.0,0.0,0.0,0.0,0.0,0.0,0.0,0.0,0.0,0.0,0.0,0.0,0.0,0.0,0.0,0.0,0.0,0.0,0.0,0.0,0.0,0.0,0.0,0.0,0.0,0.0,0.0,0.0,0.0,0.0,0.0,0.0,0.0,0.0,0.0,0.0,0.0,0.0,0.0,0.0,0.0,0.0,0.0,0.0,0.0,0.0,0.0,0.0,0.0,0.0,0.0,0.0,0.0,0.0,0.0,0.0,0.0,0.0,0.0,0.0,0.0,0.0,0.0,0.0,0.0,0.0,0.0,0.0,0.0,0.0,0.0,0.0,0.0,0.0,0.0,0.0,0.0,0.0,0.0,0.0,0.0,0.0,0.0,0.0,0.0,0.0,0.0,0.0,0.0,0.0,0.0,0.0,0.0,0.0,0.0,0.0,0.0,0.0,0.0,0.0,0.0,0.0,0.0,0.0,0.0,0.0,0.0,0.0,0.0,0.0,0.0,0.0,0.0,0.0,0.0,0.0,0.0,0.0,0.0,0.0,0.0,0.0,0.0,0.0,0.0,0.0,0.0,0.0,0.0,0.0,0.0,0.0,0.0,0.0,0.0,0.0,0.0,0.0,0.0,0.0,0.0,0.0,0.0,0.0,0.0,0.0,0.0,0.0,0.0,0.0,0.0,0.0,0.0,0.0,0.0,0.0,0.0,0.0,0.0,0.0,0.0,0.0,0.0,0.0,0.0,0.0,0.0,0.0,0.0,0.0,0.0,0.0,0.0,0.0,0.0,0.0,0.0,0.0,0.0,0.0,0.0,0.0,0.0,0.0,0.0,0.0,0.0,0.0,0.0,0.0,0.0,0.0,0.0,0.0,0.0,0.0,0.0,0.0,0.0,0.0,0.0,0.0,0.0,0.0,0.0,0.0,0.0,0.0,0.0,0.0,0.0,0.0,0.0,0.0,0.0,0.0,0.0,0.0,0.0,0.0,0.0,0.0,0.0,0.0,0.0,0.0,0.0,0.0,0.0,0.0,0.0,0.0,0.0,0.0,0.0,0.0,0.0,0.0,0.0,0.0,0.0,0.0,0.0,0.0,0.0,0.0,0.0,0.0,0.0,0.0,0.0,0.0,0.0,0.0,0.0,0.0,0.0,0.0,0.0,0.0,0.0,0.0,0.0,0.0,0.0,0.0,0.0,0.0,0.0,0.0,0.0,0.0,0.0,0.0,0.0,0.0,0.0,0.0,0.0,0.0,0.0,0.0,0.0,0.0,0.0,0.0,0.0,0.0,0.0,0.0,0.0,0.0,0.0,0.0,0.0,0.0,0.0,0.0,0.0,0.0,0.0,0.0,0.0,0.0,0.0,0.0,0.0,0.0,0.0,0.0,0.0,0.0,0.0,0.0,0.0,0.0,0.0,0.0,0.0,0.0,0.0,0.0,0.0,0.0,0.0,0.0,0.0,0.0,0.0,0.0,0.0,0.0,0.0,0.0,0.0,0.0,0.0,0.0,0.0,0.0,0.0,0.0,0.0,0.0,0.0,0.0,0.0,0.0,0.0,0.0,0.0,0.0,0.0,0.0,0.0,0.0,0.0,0.0,0.0,0.0,0.0,0.0,0.0,0.0,0.0,0.0,0.0,0.0,0.0,0.0,0.0,0.0,0.0,0.0,0.0,0.0,0.0,0.0,0.0,0.0,0.0,0.0,0.0,0.0,0.0,0.0,0.0,0.0,0.0,0.0,0.0,0.0,0.0,0.0,0.0,0.0,0.0,0.0,0.0,0.0,0.0,0.0,0.0,0.0,0.0,0.0,0.0,0.0,0.0,0.0,0.0,0.0,0.0,0.0,0.0,0.0,0.0,0.0,0.0,0.0,0.0,0.0,0.0,0.0,0.0,0.0,0.0,0.0,0.0,0.0,0.0,0.0,0.0,0.0,0.0,0.0,0.0,0.0,0.0,0.0,0.0,0.0,0.0,0.0,0.0,0.0,0.0,0.0,0.0,0.0,0.0,0.0,0.0,0.0,0.0,0.0,0.0,0.0,0.0,0.0,0.0,0.0,0.0,0.0,0.0,0.0,0.0,0.0,0.0,0.0,0.0,0.0,0.0,0.0,0.0,0.0,0.0,0.0,0.0,0.0,0.0,0.0,0.0,0.0,0.0,0.0,0.0,0.0,0.0,0.0,0.0,0.0,0.0,0.0,0.0,0.0,0.0,0.0,0.0,0.0,0.0,0.0,0.0,0.0,0.0,0.0,0.0,0.0,0.0,0.0,0.0,0.0,0.0,0.0,0.0,0.0,0.0,0.0,0.0,0.0,0.0,0.0,0.0,0.0,0.0,0.0,0.0,0.0,0.0,0.0,0.0,0.0,0.0,0.0,0.0,0.0,0.0,0.0,0.0,0.0,0.0,0.0,0.0,0.0,0.0,0.0,0.0,0.0,0.0,0.0,0.0,0.0,0.0,0.0,0.0,0.0,0.0,0.0,0.0,0.0,0.0,0.0,0.0,0.0,0.0,0.0,0.0,0.0,0.0,0.0,0.0,0.0,0.0,0.0,0.0,0.0,0.0,0.0,0.0,0.0,0.0,0.0,0.0,0.0,0.0,0.0,0.0,0.0,0.0,0.0,0.0,0.0,0.0,0.0,0.0,0.0,0.0,0.0,0.0,0.0,0.0,0.0,0.0,0.0,0.0,0.0,0.0,0.0,0.0,0.0,0.0,0.0,0.0,0.0,0.0,0.0,0.0,0.0,0.0,0.0,0.0,0.0,0.0,0.0,0.0,0.0,0.0,0.0,0.0,0.0,0.0,0.0,0.0,0.0,0.0,0.0,0.0,0.0,0.0,0.0,0.0,0.0,0.0,0.0,0.0,0.0,0.0,0.0,0.0,0.0,0.0,0.0,0.0,0.0,0.0,0.0,0.0,0.0,0.0,0.0,0.0,0.0,0.0,0.0,0.0,0.0,0.0,0.0,0.0,0.0,0.0,0.0,0.0,0.0,0.0,0.0,0.0,0.0,0.0,0.0,0.0,0.0,0.0,0.0,0.0,0.0,0.0,0.0,0.0,0.0,0.0,0.0,0.0,0.0,0.0,0.0,0.0,0.0,0.0,0.0,0.0,0.0,0.0,0.0,0.0,0.0,0.0,0.0,0.0,0.0,0.0,0.0,0.0,0.0,0.0,0.0,0.0,0.0,0.0,0.0,0.0,0.0,0.0,0.0,0.0,0.0,0.0,0.0,0.0,0.0,0.0,0.0,0.0,0.0,0.0,0.0,0.0,0.0,0.0,0.0,0.0,0.0,0.0,0.0,0.0,0.0,0.0,0.0,0.0,0.0,0.0,0.0,0.0,0.0,0.0,0.0,0.0,0.0,0.0,0.0,0.0,0.0,0.0,0.0,0.0,0.0,0.0,0.0,0.0,0.0,0.0,0.0,0.0,0.0,0.0,0.0,0.0,0.0,0.0,0.0,0.0,0.0,0.0,0.0,0.0,0.0,0.0,0.0,0.0,0.0,0.0,0.0,0.0,0.0,0.0,0.0,0.0,0.0,0.0,0.0,0.0,0.0,0.0,0.0,0.0,0.0,0.0,0.0,0.0,0.0,0.0,0.0,0.0,0.0,0.0,0.0,0.0,0.0,0.0,0.0,0.0,0.0,0.0,0.0,0.0,0.0,0.0,0.0,0.0,0.0,0.0,0.0,0.0,0.0,0.0,0.0,0.0,0.0,0.0,0.0,0.0,0.0,0.0,0.0,0.0,0.0,0.0,0.0,0.0,0.0,0.0,0.0,0.0,0.0,0.0,0.0,0.0,0.0,0.0,0.0,0.0,0.0,0.0,0.0,0.0,0.0,0.0,0.0,0.0,0.0,0.0,0.0,0.0,0.0,0.0,0.0,0.0,0.0,0.0,0.0,0.0,0.0,0.0,0.0,0.0,-2.1582,0.0,0.0,0.0,0.0,0.0,0.0,0.0,0.0,0.0,0.0,0.0,0.0,0.0,0.0,0.0,0.0,0.0,0.0,0.0,0.0,0.0,0.0,0.0,0.0,0.0,0.0,0.0,0.0,0.0,0.0,0.0,0.0,0.0,0.0,0.0,0.0,0.0,0.0,0.0,0.0,0.0,0.0,0.0,0.0,0.0,0.0,0.0,0.0,0.0,0.0,0.0,0.0,0.0,0.0,0.0,0.0,0.0,0.0,0.0,0.0,0.0,0.0,0.0,0.0,0.0,0.0,0.0,0.0,0.0,0.0,0.0,0.0,0.0,0.0,0.0,0.0,0.0,0.0,0.0,0.0,0.0,0.0,0.0,0.0,0.0,0.0,0.0,0.0,0.0,0.0,0.0,0.0,0.0,0.0,0.0,0.0,0.0,0.0,0.0,0.0,0.0,0.0,0.0,0.0,0.0,0.0,0.0,0.0,0.0,0.0,-2.0555,-2.1251,-2.0572,-2.0704,-2.1715,0.0,0.0,0.0,0.0,0.0,0.0,0.0,0.0,0.0,0.0,0.0,0.0,0.0,0.0,0.0,0.0,0.0,0.0,0.0,0.0,0.0,0.0,0.0,0.0,0.0,0.0,0.0,0.0,0.0,0.0,0.0,0.0,0.0,0.0,0.0,0.0,0.0,0.0,0.0,0.0,0.0,0.0,0.0,0.0,0.0,0.0,0.0,0.0,0.0,0.0,0.0,0.0,0.0,0.0,0.0,0.0,0.0,0.0,0.0,0.0,0.0,0.0,0.0,0.0,0.0,0.0,0.0,0.0,0.0,0.0,0.0,0.0,0.0,0.0,0.0,0.0,0.0,0.0,0.0,0.0,0.0,0.0,0.0,0.0,0.0,0.0,0.0,0.0,0.0,0.0,0.0,0.0,0.0,0.0,0.0,0.0,0.0,0.0,0.0,0.0,0.0,0.0,0.0,0.0,0.0,0.0,0.0,0.0,0.0,0.0,0.0,0.0,-2.1168,-2.0981,-2.1516,0.0,0.0,0.0,0.0,0.0,0.0,0.0,0.0,0.0,0.0,0.0,0.0,0.0,0.0,0.0,0.0,0.0,0.0,0.0,0.0,0.0,0.0,0.0,0.0,0.0,0.0,0.0,0.0,0.0,0.0,0.0,0.0,0.0,0.0,0.0,0.0,0.0,0.0,0.0,0.0,0.0,0.0,0.0,0.0,0.0,0.0,0.0,0.0,0.0,0.0,0.0,0.0,0.0,0.0,0.0,0.0,0.0,0.0,0.0,0.0,0.0,0.0,0.0,0.0,0.0,0.0,0.0,0.0,0.0,0.0,0.0,0.0,0.0,0.0,0.0,0.0,0.0,0.0,0.0,0.0,0.0,0.0,0.0,0.0,0.0,0.0,0.0,0.0,0.0,0.0,0.0,0.0,0.0,0.0,0.0,0.0,0.0,0.0,0.0,0.0,0.0,0.0,0.0,0.0,0.0,0.0,0.0,0.0,0.0,0.0,-2.135,-2.2725,-2.1416,0.0,-2.0815,0.0,0.0,0.0,0.0,0.0,0.0,0.0,0.0,0.0,0.0,0.0,0.0,0.0,0.0,0.0,0.0,0.0,0.0,0.0,0.0,0.0,0.0,0.0,0.0,0.0,0.0,0.0,0.0,0.0,0.0,0.0,0.0,0.0,0.0,0.0,0.0,0.0,0.0,0.0,0.0,0.0,0.0,0.0,0.0,0.0,0.0,0.0,0.0,0.0,0.0,0.0,0.0,0.0,0.0,0.0,0.0,0.0,0.0,0.0,0.0,0.0,0.0,0.0,0.0,0.0,0.0,0.0,0.0,0.0,0.0,0.0,0.0,0.0,0.0,0.0,0.0,0.0,0.0,0.0,0.0,0.0,0.0,0.0,0.0,0.0,0.0,0.0,0.0,0.0,0.0,0.0,0.0,0.0,0.0,0.0,0.0,0.0,0.0,0.0,0.0,0.0,0.0,0.0,0.0,0.0,0.0,0.0,0.0,0.0,0.0,0.0,-2.2212,-2.1059,-2.0459,0.0,0.0,0.0,0.0,0.0,0.0,0.0,0.0,0.0,0.0,0.0,0.0,0.0,0.0,0.0,0.0,0.0,0.0,0.0,0.0,0.0,0.0,0.0,0.0,0.0,0.0,0.0,0.0,0.0,0.0,0.0,0.0,0.0,0.0,0.0,0.0,0.0,0.0,0.0,0.0,0.0,0.0,0.0,0.0,0.0,0.0,0.0,0.0,0.0,0.0,0.0,0.0,0.0,0.0,0.0,0.0,0.0,0.0,0.0,0.0,0.0,0.0,0.0,0.0,0.0,0.0,0.0,0.0,0.0,0.0,0.0,0.0,0.0,0.0,0.0,0.0,0.0,0.0,0.0,0.0,0.0,0.0,0.0,0.0,0.0,0.0,0.0,0.0,0.0,0.0,0.0,0.0,0.0,0.0,0.0,0.0,0.0,0.0,0.0,0.0,0.0,0.0,0.0,0.0,0.0,0.0,0.0,0.0,0.0,0.0,-2.1853,0.0,-2.1483,-2.0934,-2.0388,-1.9813,0.0,0.0,0.0,0.0,0.0,0.0,0.0,0.0,0.0,0.0,0.0,0.0,0.0,0.0,0.0,0.0,0.0,0.0,0.0,0.0,0.0,0.0,0.0,0.0,0.0,0.0,0.0,0.0,0.0,0.0,0.0,0.0,0.0,0.0,0.0,0.0,0.0,0.0,0.0,0.0,0.0,0.0,0.0,0.0,0.0,0.0,0.0,0.0,0.0,0.0,0.0,0.0,0.0,0.0,0.0,0.0,0.0,0.0,0.0,0.0,0.0,0.0,0.0,0.0,0.0,0.0,0.0,0.0,0.0,0.0,0.0,0.0,0.0,0.0,0.0,0.0,0.0,0.0,0.0,0.0,0.0,0.0,0.0,0.0,0.0,0.0,0.0,0.0,0.0,0.0,0.0,0.0,0.0,0.0,0.0,0.0,0.0,0.0,0.0,0.0,0.0,0.0,0.0,0.0,0.0,0.0,0.0,0.0,0.0,-2.1964,-2.1335,-2.0804,-2.1383,-2.0595,0.0,0.0,0.0,0.0,0.0,0.0,0.0,0.0,0.0,0.0,0.0,0.0,0.0,0.0,0.0,0.0,0.0,0.0,0.0,0.0,0.0,0.0,0.0,0.0,0.0,0.0,0.0,0.0,0.0,0.0,0.0,0.0,0.0,0.0,0.0,0.0,0.0,0.0,0.0,0.0,0.0,0.0,0.0,0.0,0.0,0.0,0.0,0.0,0.0,0.0,0.0,0.0,0.0,0.0,0.0,0.0,0.0,0.0,0.0,0.0,0.0,0.0,0.0,0.0,0.0,0.0,0.0,0.0,0.0,0.0,0.0,0.0,0.0,0.0,0.0,0.0,0.0,0.0,0.0,0.0,0.0,0.0,0.0,0.0,0.0,0.0,0.0,0.0,0.0,0.0,0.0,0.0,0.0,0.0,0.0,0.0,0.0,0.0,0.0,0.0,0.0,0.0,0.0,0.0,0.0,0.0,0.0,0.0,0.0,-2.19,-2.1365,-2.1143,-2.135,-2.0009,-1.9018,0.0,0.0,0.0,0.0,0.0,0.0,0.0,0.0,0.0,0.0,0.0,0.0,0.0,0.0,0.0,0.0,0.0,0.0,0.0,0.0,0.0,0.0,0.0,0.0,0.0,0.0,0.0,0.0,0.0,0.0,0.0,0.0,0.0,0.0,0.0,0.0,0.0,0.0,0.0,0.0,0.0,0.0,0.0,0.0,0.0,0.0,0.0,0.0,0.0,0.0,0.0,0.0,0.0,0.0,0.0,0.0,0.0,0.0,0.0,0.0,0.0,0.0,0.0,0.0,0.0,0.0,0.0,0.0,0.0,0.0,0.0,0.0,0.0,0.0,0.0,0.0,0.0,0.0,0.0,0.0,0.0,0.0,0.0,0.0,0.0,0.0,0.0,0.0,0.0,0.0,0.0,0.0,0.0,0.0,0.0,0.0,0.0,0.0,0.0,0.0,0.0,0.0,0.0,0.0,0.0,0.0,0.0,0.0,0.0,-2.1152,0.0,-2.1069,0.0,-1.9528,-1.8503,0.0,0.0,0.0,0.0,0.0,0.0,0.0,0.0,0.0,0.0,0.0,0.0,0.0,0.0,0.0,0.0,0.0,0.0,0.0,0.0,0.0,0.0,0.0,0.0,0.0,0.0,0.0,0.0,0.0,0.0,0.0,0.0,0.0,0.0,0.0,0.0,0.0,0.0,0.0,0.0,0.0,0.0,0.0,0.0,0.0,0.0,0.0,0.0,0.0,0.0,0.0,0.0,0.0,0.0,0.0,0.0,0.0,0.0,0.0,0.0,0.0,0.0,0.0,0.0,0.0,0.0,0.0,0.0,0.0,0.0,0.0,0.0,0.0,0.0,0.0,0.0,0.0,0.0,0.0,0.0,0.0,0.0,0.0,0.0,0.0,0.0,0.0,0.0,0.0,0.0,0.0,0.0,0.0,0.0,0.0,0.0,0.0,0.0,0.0,0.0,0.0,0.0,0.0,0.0,0.0,0.0,0.0,0.0,-1.9626,-2.0319,-2.1236,-2.1102,-1.975,-2.0167,-1.9171,0.0,0.0,0.0,0.0,0.0,0.0,0.0,0.0,0.0,0.0,0.0,0.0,0.0,0.0,0.0,0.0,0.0,0.0,0.0,0.0,0.0,0.0,0.0,0.0,0.0,0.0,0.0,0.0,0.0,0.0,0.0,0.0,0.0,0.0,0.0,0.0,0.0,0.0,0.0,0.0,0.0,0.0,0.0,0.0,0.0,0.0,0.0,0.0,0.0,0.0,0.0,0.0,0.0,0.0,0.0,0.0,0.0,0.0,0.0,0.0,0.0,0.0,0.0,0.0,0.0,0.0,0.0,0.0,0.0,0.0,0.0,0.0,0.0,0.0,0.0,0.0,0.0,0.0,0.0,0.0,0.0,0.0,0.0,0.0,0.0,0.0,0.0,0.0,0.0,0.0,0.0,0.0,0.0,0.0,0.0,0.0,0.0,0.0,0.0,0.0,0.0,0.0,0.0,0.0,0.0,0.0,0.0,0.0,0.0,-2.027,-2.0675,-2.1229,-2.1784,-2.0377,-1.9312,0.0,0.0,0.0,0.0,0.0,0.0,0.0,0.0,0.0,0.0,0.0,0.0,0.0,0.0,0.0,0.0,0.0,0.0,0.0,0.0,0.0,0.0,0.0,0.0,0.0,0.0,0.0,0.0,0.0,0.0,0.0,0.0,0.0,0.0,0.0,0.0,0.0,0.0,0.0,0.0,0.0,0.0,0.0,0.0,0.0,0.0,0.0,0.0,0.0,0.0,0.0,0.0,0.0,0.0,0.0,0.0,0.0,0.0,0.0,0.0,0.0,0.0,0.0,0.0,0.0,0.0,0.0,0.0,0.0,0.0,0.0,0.0,0.0,0.0,0.0,0.0,0.0,0.0,0.0,0.0,0.0,0.0,0.0,0.0,0.0,0.0,0.0,0.0,0.0,0.0,0.0,0.0,0.0,0.0,0.0,0.0,0.0,0.0,0.0,0.0,0.0,0.0,0.0,0.0,0.0,0.0,0.0,0.0,0.0,-2.1254,-2.1392,-2.1825,-2.2653,-2.1035,-1.9812,-1.9077,0.0,0.0,0.0,0.0,0.0,0.0,0.0,0.0,0.0,0.0,0.0,0.0,0.0,0.0,0.0,0.0,0.0,0.0,0.0,0.0,0.0,0.0,0.0,0.0,0.0,0.0,0.0,0.0,0.0,0.0,0.0,0.0,0.0,0.0,0.0,0.0,0.0,0.0,0.0,0.0,0.0,0.0,0.0,0.0,0.0,0.0,0.0,0.0,0.0,0.0,0.0,0.0,0.0,0.0,0.0,0.0,0.0,0.0,0.0,0.0,0.0,0.0,0.0,0.0,0.0,0.0,0.0,0.0,0.0,0.0,0.0,0.0,0.0,0.0,0.0,0.0,0.0,0.0,0.0,0.0,0.0,0.0,0.0,0.0,0.0,0.0,0.0,0.0,0.0,0.0,0.0,0.0,0.0,0.0,0.0,0.0,0.0,0.0,0.0,0.0,0.0,0.0,0.0,0.0,0.0,0.0,0.0,0.0,-2.3163,-2.3217,-2.3012,-2.2437,-2.1985,-2.0652,0.0,0.0,0.0,0.0,0.0,0.0,0.0,0.0,0.0,0.0,0.0,0.0,0.0,0.0,0.0,0.0,0.0,0.0,0.0,0.0,0.0,0.0,0.0,0.0,0.0,0.0,0.0,0.0,0.0,0.0,0.0,0.0,0.0,0.0,0.0,0.0,0.0,0.0,0.0,0.0,0.0,0.0,0.0,0.0,0.0,0.0,0.0,0.0,0.0,0.0,0.0,0.0,0.0,0.0,0.0,0.0,0.0,0.0,0.0,0.0,0.0,0.0,0.0,0.0,0.0,0.0,0.0,0.0,0.0,0.0,0.0,0.0,0.0,0.0,0.0,0.0,0.0,0.0,0.0,0.0,0.0,0.0,0.0,0.0,0.0,0.0,0.0,0.0,0.0,0.0,0.0,0.0,0.0,0.0,0.0,0.0,0.0,0.0,0.0,0.0,0.0,0.0,0.0,0.0,0.0,0.0,0.0,0.0,0.0,-2.4073,-2.5499,-2.5482,-2.3873,-2.2623,-2.1203,0.0,0.0,0.0,0.0,0.0,0.0,0.0,0.0,0.0,0.0,0.0,0.0,0.0,0.0,0.0,0.0,0.0,0.0,0.0,0.0,0.0,0.0,0.0,0.0,0.0,0.0,0.0,0.0,0.0,0.0,0.0,0.0,0.0,0.0,0.0,0.0,0.0,0.0,0.0,0.0,0.0,0.0,0.0,0.0,0.0,0.0,0.0,0.0,0.0,0.0,0.0,0.0,0.0,0.0,0.0,0.0,0.0,0.0,0.0,0.0,0.0,0.0,0.0,0.0,0.0,0.0,0.0,0.0,0.0,0.0,0.0,0.0,0.0,0.0,0.0,0.0,0.0,0.0,0.0,0.0,0.0,0.0,0.0,0.0,0.0,0.0,0.0,0.0,0.0,0.0,0.0,0.0,0.0,0.0,0.0,0.0,0.0,0.0,0.0,0.0,0.0,0.0,0.0,0.0,0.0,0.0,0.0,0.0,-2.2702,-2.4661,-2.6541,-2.6944,-2.5815,-2.4837,-2.2983,0.0,0.0,0.0,0.0,0.0,0.0,0.0,0.0,0.0,0.0,0.0,0.0,0.0,0.0,0.0,0.0,0.0,0.0,0.0,0.0,0.0,0.0,0.0,0.0,0.0,0.0,0.0,0.0,0.0,0.0,0.0,0.0,0.0,0.0,0.0,0.0,0.0,0.0,0.0,0.0,0.0,0.0,0.0,0.0,0.0,0.0,0.0,0.0,0.0,0.0,0.0,0.0,0.0,0.0,0.0,0.0,0.0,0.0,0.0,0.0,0.0,0.0,0.0,0.0,0.0,0.0,0.0,0.0,0.0,0.0,0.0,0.0,0.0,0.0,0.0,0.0,0.0,0.0,0.0,0.0,0.0,0.0,0.0,0.0,0.0,0.0,0.0,0.0,0.0,0.0,0.0,0.0,0.0,0.0,0.0,0.0,0.0,0.0,0.0,0.0,0.0,0.0,0.0,0.0,0.0,0.0,0.0,0.0,-2.3685,-2.4965,-2.6982,-2.7926,-2.7708,-2.7291,-2.5052,0.0,0.0,0.0,0.0,0.0,0.0,0.0,0.0,0.0,0.0,0.0,0.0,0.0,0.0,0.0,0.0,0.0,0.0,0.0,0.0,0.0,0.0,0.0,0.0,0.0,0.0,0.0,0.0,0.0,0.0,0.0,0.0,0.0,0.0,0.0,0.0,0.0,0.0,0.0,0.0,0.0,0.0,0.0,0.0,0.0,0.0,0.0,0.0,0.0,0.0,0.0,0.0,0.0,0.0,0.0,0.0,0.0,0.0,0.0,0.0,0.0,0.0,0.0,0.0,0.0,0.0,0.0,0.0,0.0,0.0,0.0,0.0,0.0,0.0,0.0,0.0,0.0,0.0,0.0,0.0,0.0,0.0,0.0,0.0,0.0,0.0,0.0,0.0,0.0,0.0,0.0,0.0,0.0,0.0,0.0,0.0,0.0,0.0,0.0,0.0,0.0,0.0,0.0,0.0,0.0,0.0,0.0,0.0,-2.4805,-2.5633,-2.8463,-2.9247,-2.7712,-2.5733,-2.3725,0.0,0.0,0.0,0.0,0.0,0.0,0.0,0.0,0.0,0.0,0.0,0.0,0.0,0.0,0.0,0.0,0.0,0.0,0.0,0.0,0.0,0.0,0.0,0.0,0.0,0.0,0.0,0.0,0.0,0.0,0.0,0.0,0.0,0.0,0.0,0.0,0.0,0.0,0.0,0.0,0.0,0.0,0.0,0.0,0.0,0.0,0.0,0.0,-1.0795,0.0,0.0,0.0,0.0,0.0,0.0,0.0,0.0,0.0,0.0,0.0,0.0,0.0,0.0,0.0,0.0,0.0,0.0,0.0,0.0,0.0,0.0,0.0,0.0,0.0,0.0,0.0,0.0,0.0,0.0,0.0,0.0,0.0,0.0,0.0,0.0,0.0,0.0,0.0,0.0,0.0,0.0,0.0,0.0,0.0,0.0,0.0,0.0,0.0,0.0,0.0,0.0,0.0,0.0,0.0,0.0,0.0,0.0,0.0,-2.5168,-2.585,-2.8913,-2.9958,-2.8552,-2.6431,-2.4225,0.0,0.0,0.0,0.0,0.0,0.0,0.0,0.0,0.0,0.0,0.0,0.0,0.0,0.0,0.0,0.0,0.0,0.0,0.0,0.0,0.0,0.0,0.0,0.0,0.0,0.0,0.0,0.0,0.0,0.0,0.0,0.0,0.0,0.0,0.0,0.0,0.0,0.0,0.0,0.0,0.0,0.0,0.0,0.0,0.0,0.0,0.0,0.0,0.0,0.0,0.0,0.0,0.0,0.0,0.0,0.0,0.0,0.0,0.0,0.0,0.0,0.0,0.0,0.0,0.0,0.0,0.0,0.0,0.0,0.0,0.0,0.0,0.0,0.0,0.0,0.0,0.0,0.0,0.0,0.0,0.0,0.0,0.0,0.0,0.0,0.0,0.0,0.0,0.0,0.0,0.0,0.0,0.0,0.0,0.0,0.0,0.0,0.0,0.0,0.0,0.0,0.0,0.0,0.0,0.0,0.0,0.0,-2.2759,-2.527,-2.6155,-2.9015,-3.0234,-2.9479,-2.7824,-2.5429,-2.228,0.0,0.0,0.0,0.0,0.0,0.0,0.0,0.0,0.0,0.0,0.0,0.0,0.0,0.0,0.0,0.0,0.0,0.0,0.0,0.0,0.0,0.0,0.0,0.0,0.0,0.0,0.0,0.0,0.0,0.0,0.0,0.0,0.0,0.0,0.0,0.0,0.0,0.0,-1.0483,-1.2193,0.0,0.0,0.0,0.0,0.0,0.0,0.0,0.0,-1.0711,0.0,0.0,0.0,0.0,0.0,0.0,0.0,0.0,0.0,0.0,0.0,0.0,0.0,0.0,0.0,0.0,0.0,0.0,0.0,0.0,0.0,0.0,0.0,0.0,0.0,0.0,0.0,0.0,0.0,0.0,0.0,0.0,0.0,0.0,0.0,0.0,0.0,0.0,0.0,0.0,0.0,0.0,0.0,0.0,0.0,0.0,0.0,0.0,0.0,0.0,0.0,0.0,0.0,0.0,0.0,0.0,-2.0524,-2.3383,-2.5626,-2.7389,-2.9479,-3.0016,-2.8884,-2.8013,-2.6068,-2.2873,0.0,0.0,0.0,0.0,0.0,0.0,0.0,0.0,0.0,0.0,0.0,0.0,0.0,0.0,0.0,0.0,0.0,0.0,0.0,0.0,0.0,0.0,0.0,0.0,0.0,0.0,0.0,0.0,0.0,0.0,0.0,0.0,0.0,0.0,0.0,0.0,0.0,0.0,0.0,-1.2068,-1.2609,0.0,0.0,0.0,0.0,0.0,0.0,0.0,0.0,-1.0121,0.0,0.0,0.0,0.0,0.0,0.0,0.0,0.0,0.0,0.0,0.0,0.0,0.0,0.0,0.0,0.0,0.0,0.0,0.0,0.0,0.0,0.0,0.0,0.0,0.0,0.0,0.0,0.0,0.0,0.0,0.0,0.0,0.0,0.0,0.0,0.0,0.0,0.0,0.0,0.0,0.0,0.0,0.0,0.0,0.0,0.0,0.0,0.0,0.0,0.0,0.0,0.0,0.0,0.0,0.0,-2.1003,-2.3862,-2.6112,-2.7708,-2.9276,-2.9639,-2.8695,-2.7403,-2.5531,0.0,0.0,0.0,0.0,0.0,0.0,0.0,0.0,0.0,0.0,0.0,0.0,0.0,0.0,0.0,0.0,0.0,0.0,0.0,0.0,0.0,0.0,0.0,0.0,0.0,0.0,0.0,0.0,0.0,0.0,0.0,0.0,0.0,0.0,0.0,0.0,0.0,0.0,0.0,0.0,-1.1977,-1.2424,-1.2196,0.0,0.0,0.0,0.0,0.0,0.0,-1.1177,-1.0717,0.0,0.0,0.0,0.0,0.0,0.0,0.0,0.0,0.0,0.0,0.0,0.0,0.0,0.0,0.0,0.0,0.0,0.0,0.0,0.0,0.0,0.0,0.0,0.0,0.0,0.0,0.0,0.0,0.0,0.0,0.0,0.0,0.0,0.0,0.0,0.0,0.0,0.0,0.0,0.0,0.0,0.0,0.0,0.0,0.0,0.0,0.0,0.0,0.0,0.0,0.0,0.0,0.0,0.0,0.0,-2.122,-2.4225,-2.6474,-2.7882,-2.9029,-2.9319,-2.8681,-2.6924,-2.5038,0.0,0.0,0.0,0.0,0.0,0.0,0.0,0.0,0.0,0.0,0.0,0.0,0.0,0.0,0.0,0.0,0.0,0.0,0.0,0.0,0.0,0.0,0.0,0.0,0.0,0.0,0.0,0.0,0.0,0.0,0.0,0.0,0.0,0.0,0.0,0.0,0.0,0.0,0.0,0.0,0.0,-1.2551,-1.2344,-1.2003,0.0,0.0,0.0,0.0,-1.1929,-1.1828,0.0,0.0,0.0,0.0,0.0,0.0,0.0,0.0,0.0,0.0,0.0,0.0,0.0,0.0,0.0,0.0,0.0,0.0,0.0,0.0,0.0,0.0,0.0,0.0,0.0,0.0,0.0,0.0,0.0,0.0,0.0,0.0,0.0,0.0,0.0,0.0,0.0,0.0,0.0,0.0,0.0,0.0,0.0,0.0,0.0,0.0,0.0,0.0,0.0,0.0,0.0,0.0,0.0,0.0,0.0,0.0,-2.1873,-2.4457,-2.6692,-2.8477,-2.9261,-2.9334,-2.8695,-2.7374,-2.5502,0.0,0.0,0.0,0.0,0.0,0.0,0.0,0.0,0.0,0.0,0.0,0.0,0.0,0.0,0.0,0.0,0.0,0.0,0.0,0.0,0.0,0.0,0.0,0.0,0.0,0.0,0.0,0.0,0.0,0.0,0.0,0.0,0.0,0.0,0.0,0.0,0.0,0.0,0.0,0.0,0.0,-1.31,-1.2417,-1.2187,-1.1941,0.0,0.0,0.0,-1.1608,-1.2094,0.0,0.0,0.0,0.0,0.0,0.0,0.0,0.0,0.0,0.0,0.0,0.0,0.0,0.0,0.0,0.0,0.0,0.0,0.0,0.0,0.0,0.0,0.0,0.0,0.0,0.0,0.0,0.0,0.0,0.0,0.0,0.0,0.0,0.0,0.0,0.0,0.0,0.0,0.0,0.0,0.0,0.0,0.0,0.0,0.0,0.0,0.0,0.0,0.0,0.0,0.0,0.0,0.0,0.0,0.0,-1.9624,-2.2497,-2.5052,-2.7113,-2.8623,-2.8956,-2.8971,-2.8695,-2.6387,-2.4283,0.0,0.0,0.0,0.0,0.0,0.0,0.0,0.0,0.0,0.0,0.0,0.0,0.0,0.0,0.0,0.0,0.0,0.0,0.0,0.0,0.0,0.0,0.0,0.0,0.0,0.0,0.0,0.0,0.0,0.0,0.0,0.0,0.0,0.0,0.0,0.0,0.0,0.0,0.0,0.0,0.0,0.0,-1.3164,-1.2963,0.0,0.0,0.0,-1.3241,-1.2608,0.0,0.0,0.0,0.0,0.0,0.0,0.0,0.0,0.0,0.0,0.0,0.0,0.0,0.0,0.0,0.0,0.0,0.0,0.0,0.0,0.0,0.0,0.0,0.0,0.0,0.0,0.0,0.0,0.0,0.0,0.0,0.0,0.0,0.0,0.0,0.0,0.0,0.0,0.0,0.0,0.0,0.0,0.0,0.0,0.0,0.0,0.0,0.0,0.0,0.0,0.0,0.0,0.0,0.0,0.0,0.0,0.0,-2.2859,-2.5473,-2.7403,-2.8623,-2.8666,-2.8666,-2.8623,-2.5734,0.0,0.0,0.0,0.0,0.0,0.0,0.0,0.0,0.0,0.0,0.0,0.0,0.0,0.0,0.0,0.0,0.0,0.0,0.0,0.0,0.0,0.0,0.0,0.0,0.0,0.0,0.0,0.0,0.0,0.0,0.0,0.0,0.0,0.0,0.0,0.0,0.0,0.0,0.0,0.0,0.0,0.0,-1.2819,-1.3626,-1.3653,-1.3662,0.0,0.0,-1.4414,-1.3708,-1.4277,-1.4222,0.0,0.0,0.0,0.0,0.0,0.0,0.0,0.0,0.0,0.0,0.0,0.0,0.0,0.0,0.0,0.0,0.0,0.0,0.0,0.0,0.0,0.0,0.0,0.0,0.0,0.0,0.0,0.0,0.0,0.0,0.0,0.0,0.0,0.0,0.0,0.0,0.0,0.0,0.0,0.0,0.0,0.0,0.0,0.0,0.0,0.0,0.0,0.0,0.0,0.0,0.0,0.0,0.0,0.0,0.0,-2.2859,-2.5473,-2.7403,-2.8608,-2.8666,-2.8666,-2.8623,-2.6141,-2.3891,0.0,0.0,0.0,0.0,0.0,0.0,0.0,0.0,0.0,0.0,0.0,0.0,0.0,0.0,0.0,0.0,0.0,0.0,0.0,0.0,0.0,0.0,0.0,0.0,0.0,0.0,0.0,0.0,0.0,0.0,0.0,0.0,0.0,0.0,0.0,0.0,0.0,0.0,0.0,0.0,0.0,-1.3653,-1.3369,-1.3956,-1.4304,0.0,0.0,-1.4909,-1.4497,-1.5093,-1.4928,-1.3,0.0,0.0,0.0,0.0,0.0,0.0,0.0,0.0,0.0,0.0,0.0,0.0,0.0,0.0,0.0,0.0,0.0,0.0,0.0,0.0,0.0,0.0,0.0,0.0,0.0,0.0,0.0,0.0,0.0,0.0,0.0,0.0,0.0,0.0,0.0,0.0,0.0,0.0,0.0,0.0,0.0,0.0,0.0,0.0,0.0,0.0,0.0,0.0,0.0,0.0,0.0,0.0,0.0,-1.9362,-2.2859,-2.5473,-2.7215,-2.8057,-2.8477,-2.8492,-2.81,-2.5981,-2.3887,0.0,0.0,0.0,0.0,0.0,0.0,0.0,0.0,0.0,0.0,0.0,0.0,0.0,0.0,0.0,0.0,0.0,0.0,0.0,0.0,0.0,0.0,0.0,0.0,0.0,0.0,0.0,0.0,-0.9187,-0.9319,-0.9152,0.0,0.0,0.0,0.0,0.0,0.0,0.0,0.0,0.0,0.0,-1.3827,-1.4643,-1.5038,0.0,0.0,-1.5854,-1.5982,-1.5331,-1.5487,-1.5166,-1.3662,-1.3055,0.0,0.0,0.0,0.0,0.0,0.0,0.0,0.0,0.0,0.0,0.0,0.0,0.0,0.0,0.0,0.0,0.0,0.0,0.0,0.0,0.0,0.0,0.0,0.0,0.0,0.0,0.0,0.0,0.0,0.0,0.0,0.0,0.0,0.0,0.0,0.0,0.0,0.0,0.0,0.0,0.0,0.0,0.0,0.0,0.0,0.0,0.0,0.0,0.0,0.0,0.0,0.0,-1.929,-2.2859,-2.5284,-2.6881,-2.7668,-2.8158,-2.8187,-2.7708,-2.58,-2.3887,0.0,0.0,0.0,0.0,0.0,0.0,0.0,0.0,0.0,0.0,0.0,0.0,0.0,0.0,0.0,0.0,0.0,0.0,0.0,0.0,0.0,0.0,0.0,0.0,0.0,0.0,0.0,0.0,-1.0087,-0.9904,-0.9219,0.0,0.0,0.0,0.0,0.0,0.0,0.0,0.0,0.0,0.0,-1.4157,-1.5496,-1.5799,-1.5982,-1.6276,-1.6652,-1.667,-1.5982,-1.5973,-1.5606,-1.4286,0.0,0.0,0.0,0.0,0.0,0.0,0.0,0.0,0.0,0.0,0.0,0.0,0.0,0.0,0.0,0.0,0.0,0.0,0.0,0.0,0.0,0.0,0.0,0.0,0.0,0.0,0.0,0.0,0.0,0.0,-1.83,0.0,0.0,0.0,0.0,0.0,0.0,0.0,0.0,0.0,0.0,0.0,0.0,0.0,0.0,0.0,0.0,0.0,0.0,0.0,0.0,0.0,0.0,0.0,-2.2844,-2.4863,-2.6445,-2.761,-2.7737,-2.7683,-2.7665,-2.58,-2.384,-2.1743,0.0,0.0,0.0,0.0,0.0,0.0,0.0,0.0,0.0,0.0,0.0,0.0,0.0,0.0,0.0,0.0,0.0,0.0,0.0,0.0,0.0,0.0,0.0,0.0,0.0,0.0,-1.0966,-1.0314,-0.9516,0.0,0.0,0.0,0.0,0.0,0.0,0.0,0.0,0.0,0.0,-1.3708,-1.4781,-1.557,-1.6046,-1.6312,-1.634,-1.667,-1.6771,-1.6386,-1.6606,-1.634,0.0,0.0,0.0,0.0,0.0,0.0,0.0,0.0,0.0,0.0,0.0,0.0,0.0,0.0,0.0,0.0,0.0,0.0,0.0,0.0,0.0,0.0,0.0,0.0,0.0,0.0,0.0,-2.3875,-2.318,0.0,0.0,0.0,0.0,0.0,0.0,0.0,0.0,0.0,0.0,0.0,-2.2643,-2.3484,0.0,0.0,0.0,0.0,0.0,0.0,0.0,0.0,0.0,0.0,0.0,0.0,-2.0135,-2.2844,-2.5255,-2.6663,-2.7099,-2.752,-2.7534,-2.7113,-2.6039,-2.3884,-2.0525,0.0,0.0,0.0,0.0,0.0,0.0,0.0,0.0,0.0,0.0,0.0,0.0,0.0,0.0,0.0,0.0,0.0,0.0,0.0,0.0,0.0,0.0,0.0,0.0,0.0,-1.0433,0.0,0.0,0.0,0.0,0.0,0.0,0.0,0.0,0.0,0.0,0.0,-1.1766,-1.2929,-1.4139,-1.5093,-1.5615,-1.6276,-1.6798,0.0,0.0,0.0,0.0,0.0,0.0,0.0,0.0,0.0,0.0,0.0,0.0,0.0,0.0,-1.1391,-0.9354,-0.8652,-0.8252,-0.7972,0.0,0.0,0.0,0.0,0.0,0.0,0.0,0.0,0.0,0.0,0.0,0.0,0.0,0.0,-2.6381,0.0,-2.4558,0.0,0.0,0.0,0.0,0.0,0.0,0.0,0.0,-2.437,-2.5506,-2.5589,-2.6402,-2.6358,0.0,-2.4486,-2.257,0.0,0.0,0.0,0.0,0.0,0.0,0.0,0.0,-2.0709,-2.31,-2.5221,-2.639,-2.6659,-2.6996,-2.701,-2.6659,-2.5488,-2.3502,-2.0599,-1.8758,-1.7078,0.0,0.0,0.0,0.0,0.0,0.0,0.0,0.0,0.0,0.0,0.0,0.0,0.0,0.0,0.0,0.0,0.0,0.0,0.0,0.0,0.0,0.0,0.0,-1.126,0.0,0.0,0.0,0.0,0.0,0.0,0.0,0.0,0.0,-1.0947,-1.1776,-1.2819,-1.4167,-1.5029,-1.5716,-1.6248,0.0,0.0,0.0,0.0,0.0,0.0,0.0,-1.6096,-1.6061,-1.4933,-1.388,-1.3218,-1.2795,-1.2401,-1.2068,0.0,0.0,-1.0226,-0.9693,-0.9439,-0.926,-0.9314,-0.9472,-0.982,-0.9964,-1.0188,0.0,0.0,0.0,0.0,0.0,0.0,0.0,0.0,-2.7938,-2.8091,0.0,-2.6667,0.0,0.0,0.0,0.0,0.0,0.0,0.0,0.0,-2.8129,-2.9319,-2.8768,-2.8797,-2.8768,-2.8695,-2.8028,-2.6736,-2.4733,-1.9943,0.0,0.0,0.0,0.0,0.0,0.0,-2.1403,-2.3526,-2.4826,-2.574,-2.6312,-2.6297,-2.6297,-2.6254,-2.439,-2.2838,-2.1793,-1.9949,-1.8385,-1.7246,-1.5367,0.0,0.0,0.0,0.0,0.0,0.0,0.0,0.0,0.0,0.0,0.0,0.0,0.0,0.0,0.0,0.0,0.0,0.0,0.0,0.0,-1.283,0.0,0.0,0.0,0.0,0.0,0.0,0.0,0.0,0.0,0.0,-1.2282,-1.3195,-1.4506,-1.6056,0.0,0.0,0.0,0.0,-1.7523,-1.7541,-1.7871,-1.7981,-1.7605,-1.7761,-1.7432,-1.5934,0.0,0.0,-1.2757,-1.2692,-1.2746,-1.2205,-1.2188,-1.2265,-1.246,-1.1758,-1.1347,-1.1335,-1.0906,-1.0749,-1.0785,-1.0972,-1.1141,-3.5932,0.0,0.0,0.0,0.0,-3.2424,-3.3159,-3.41,-3.3491,-3.2548,-3.1349,-2.9924,0.0,0.0,0.0,0.0,0.0,0.0,-2.6721,-2.7679,-2.9464,-3.0451,-3.0713,-3.1192,-3.093,-3.0016,-2.9377,-2.8332,-2.6837,-2.45,-2.1859,-1.9043,0.0,0.0,0.0,0.0,-2.2861,-2.4783,-2.5626,-2.6354,-2.7023,-2.6526,-2.619,-2.6042,-2.4976,-2.3811,-2.2547,-2.1332,-1.9768,-1.7798,-1.6066,0.0,0.0,0.0,0.0,0.0,0.0,0.0,0.0,0.0,0.0,0.0,0.0,0.0,0.0,0.0,0.0,0.0,0.0,0.0,-1.2335,-1.2268,-1.1974,0.0,0.0,0.0,0.0,0.0,0.0,0.0,0.0,0.0,-1.4602,-1.4708,-1.5029,0.0,0.0,-1.6817,-1.7046,-1.7578,-1.8045,-1.832,0.0,0.0,0.0,-1.7445,-1.6741,-1.6834,-1.6111,-1.5057,-1.3764,-1.3639,-1.3616,-1.3261,-1.3131,-1.3073,-1.2862,-1.2135,-1.1526,-1.1484,-1.1347,-1.1431,-1.1769,-1.1926,-1.2023,-4.0419,-3.7464,-3.5695,-3.5189,-3.5568,-3.5853,-3.6358,-3.6892,-3.6384,-3.5477,-3.4242,-3.2587,-3.0611,-2.8527,-2.6968,0.0,0.0,0.0,-2.884,-2.9842,-3.1134,-3.1932,-3.2309,-3.2701,-3.2498,-3.1714,-3.1076,-3.0118,-2.884,-2.8071,-2.601,-2.2817,0.0,0.0,-2.0862,-2.2465,-2.4069,-2.5583,-2.6557,-2.7126,-2.7254,-2.6531,-2.5934,-2.5536,-2.4824,-2.3927,-2.2967,-2.1999,-2.0709,-1.9152,-1.7616,-1.6186,0.0,0.0,0.0,0.0,0.0,0.0,0.0,0.0,0.0,0.0,0.0,-0.8742,0.0,0.0,0.0,0.0,-1.063,-1.2053,-1.3215,-1.3066,0.0,0.0,0.0,0.0,0.0,0.0,0.0,-1.3266,-1.4185,-1.505,-1.5808,-1.6001,-1.6257,-1.6817,-1.7183,-1.7449,-1.7605,0.0,-1.844,-1.8678,-1.865,-1.8669,-1.8898,-1.8065,-1.7371,-1.7113,-1.6149,-1.5144,-1.425,-1.3997,-1.3822,-1.3646,-1.3398,-1.3222,-1.2966,-1.2389,-1.1992,-1.1992,-1.1999,-1.2113,-1.2415,-1.2463,-1.2518,-4.3943,-4.2489,-3.925,-3.7859,-3.7875,-3.8476,-3.8397,-3.7723,-3.74,-3.7162,-3.6799,-3.4625,-3.2911,-3.154,-2.929,0.0,-3.0045,-3.0611,-3.1192,-3.1787,-3.2991,-3.3609,-3.3543,-3.3543,-3.3529,-3.3441,-3.2861,-3.1917,-3.0684,-3.0626,-2.9406,-2.6973,-2.471,-2.3314,-2.2931,-2.4138,-2.5228,-2.6173,-2.7456,-2.7826,-2.7269,-2.6327,-2.5536,-2.498,-2.4147,-2.353,-2.3133,-2.2034,-2.122,-2.0795,-1.9508,-1.8071,-1.6493,0.0,0.0,0.0,0.0,0.0,0.0,0.0,0.0,0.0,0.0,0.0,0.0,0.0,0.0,0.0,-1.2626,0.0,-1.4287,-1.4586,0.0,0.0,0.0,-1.3104,-1.1988,-1.3179,-1.3991,-1.3881,0.0,0.0,0.0,0.0,-1.788,-1.866,-1.8421,-1.8302,-1.866,-1.8715,-1.876,-1.8779,-1.9063,-1.9283,-1.9256,-1.9061,-1.8399,-1.6822,-1.5966,-1.5068,-1.4334,-1.3913,-1.3652,-1.3483,-1.3313,-1.3052,-1.2796,-1.2668,-1.2699,-1.2662,-1.2668,-1.2681,-1.2681,-1.2681,-1.2687,-4.4227,-4.3374,-4.2015,-4.113,-4.0625,-4.0783,-4.0572,-4.0006,-3.9338,-3.856,-3.7516,-3.5642,-3.4112,-3.3006,-3.2875,-3.2991,-3.3282,-3.3427,-3.3587,-3.3746,-3.4037,-3.4182,-3.4196,-3.4196,-3.3935,-3.3485,-3.3311,-3.2571,-3.1337,-3.1293,-3.0375,-2.8685,-2.7768,-2.6568,-2.5143,-2.5882,-2.6748,-2.7658,-2.7537,-2.7251,-2.6877,-2.5827,-2.5053,-2.4722,-2.4218,-2.3525,-2.2563,-2.1999,-2.1184,-2.0021,-1.892,-1.7666,-1.6243,-1.4301,0.0,0.0,0.0,0.0,0.0,0.0,0.0,0.0,0.0,-1.1781,-0.9487,0.0,-1.3204,0.0,-1.3047,-1.3876,-1.4733,-1.3911,0.0,0.0,-1.4262,-1.4119,-1.4453,-1.4994,-1.5329,-1.515,-1.6196,-1.6968,-1.7165,-1.7917,-1.8595,-1.9081,-1.8825,-1.8614,-1.8715,-1.8981,-1.9164,-1.9164,-1.9228,-1.9292,-1.9213,-1.8727,-1.7755,-1.5966,-1.5553,-1.5068,-1.425,-1.4082,-1.3906,-1.3652,-1.3476,-1.3222,-1.3052,-1.2881,-1.2705,-1.2705,-1.2705,-1.2705,-1.2705,-1.2705,-1.2705,-4.4986,-4.4591,-4.388,-4.2995,-4.2047,-4.1731,-4.1299,-4.0669,-4.0075,-3.9069,-3.7773,-3.6045,-3.4794,-3.392,-3.4254,-3.4414,-3.4414,-3.4414,-3.4414,-3.4414,-3.4414,-3.4414,-3.4414,-3.4414,-3.4225,-3.3906,-3.3891,-3.3369,-3.2425,-3.1965,-3.1128,-3.0029,-2.9379,-2.8503,-2.7374,-2.7535,-2.7809,-2.8188,-2.7686,-2.7273,-2.6984,-2.5866,-2.4956,-2.4408,-2.3906,-2.3107,-2.1952,-2.1486,-2.0781,-1.9877,-1.8975,-1.8017,-1.704,-1.531,-1.3829,0.0,0.0,0.0,0.0,0.0,0.0,0.0,0.0,0.0,0.0,0.0,-1.4026,0.0,-1.4036,0.0,-1.518,-1.4665,-1.4644,-1.5391,-1.5367,-1.54,-1.5674,-1.6177,-1.6484,-1.6419,-1.7073,-1.7731,-1.799,-1.843,-1.8861,-1.9246,-1.9109,-1.8971,-1.8981,-1.9173,-1.9292,-1.9292,-1.9292,-1.9292,-1.9292,-1.8567,-1.7513,-1.6288,-1.5636,-1.5151,-1.4257,-1.4088,-1.4004,-1.3737,-1.3568,-1.3313,-1.3137,-1.2875,-1.2705,-1.2705,-1.2705,-1.2705,-1.2705,-1.2705,-1.2705,-4.5886,-4.5744,-4.5112,-4.4069,-4.2774,-4.1948,-4.127,-4.0702,-4.0192,-3.9162,-3.7801,-3.6408,-3.54,-3.4598,-3.4685,-3.4685,-3.453,-3.453,-3.4486,-3.4414,-3.4414,-3.4414,-3.4414,-3.4414,-3.4414,-3.4414,-3.4414,-3.408,-3.3456,-3.2558,-3.1718,-3.106,-3.0134,-2.9477,-2.9135,-2.8918,-2.8652,-2.8374,-2.7991,-2.7628,-2.7353,-2.6185,-2.5066,-2.4096,-2.3513,-2.2579,-2.1321,-2.0765,-2.0348,-1.9938,-1.9244,-1.8604,-1.8057,-1.6384,-1.4891,0.0,-1.2661,0.0,0.0,0.0,0.0,0.0,0.0,0.0,0.0,-1.4293,-1.4599,-1.4496,-1.5249,-1.5694,-1.5557,-1.595,-1.6062,-1.5733,-1.6348,-1.6689,-1.6465,-1.7063,-1.7546,-1.7524,-1.7942,-1.8339,-1.8632,-1.8751,-1.8926,-1.9237,-1.9274,-1.9256,-1.9283,-1.9283,-1.9292,-1.9292,-1.9292,-1.9292,-1.9213,-1.8647,-1.7827,-1.6862,-1.6124,-1.5235,-1.425,-1.4088,-1.4004,-1.3737,-1.3483,-1.3313,-1.3137,-1.2875,-1.2705,-1.2705,-1.2705,-1.2705,-1.2705,-1.2705,-1.2705,-4.6313,-4.5807,-4.5665,-4.4796,-4.34,-4.2231,-4.1628,-4.1383,-4.0761,-3.9448,-3.7805,-3.7962,-3.7237,-3.5881,-3.633,-3.6079,-3.5183,-3.5183,-3.4907,-3.4414,-3.4414,-3.4414,-3.4414,-3.4414,-3.4414,-3.4414,-3.4414,-3.4095,-3.3522,-3.2753,-3.2037,-3.1372,-3.0473,-2.9865,-2.954,0.0,0.0,0.0,-2.851,-2.7954,-2.7617,-2.6442,-2.5147,-2.384,-2.34,0.0,-2.0765,-2.0549,-2.0256,-1.9772,-1.9226,0.0,0.0,0.0,0.0,0.0,0.0,0.0,0.0,0.0,0.0,0.0,-1.5933,-1.556,-1.4821,-1.5881,-1.648,-1.606,-1.6052,-1.61,-1.5999,-1.6059,-1.6353,-1.6988,-1.7168,-1.7424,-1.7802,-1.804,-1.8157,-1.8218,-1.8611,-1.8785,-1.8724,-1.8981,-1.9201,-1.9283,-1.9292,-1.9292,-1.9292,-1.9292,-1.9292,-1.9292,-1.9292,-1.9292,-1.9292,-1.9134,-1.8318,-1.7098,-1.6617,-1.5801,-1.4412,-1.4088,-1.3913,-1.3561,-1.3392,-1.3222,-1.2881,-1.2705,-1.2705,-1.2705,-1.2705,-1.2705,-1.2705,-1.2705,-1.2705,-4.7008,0.0,-4.6582,-4.5697,0.0,-4.3333,-4.2485,-4.2094,-4.0754,-3.9534,-3.8315,-3.7993,-3.7198,-3.6149,-3.6164,-3.5731,-3.4893,-3.4893,-3.4719,-3.4414,-3.4414,-3.4414,-3.4414,-3.4414,-3.4414,-3.4414,-3.4414,-3.4254,-3.3891,-3.2768,-3.2069,-3.1723,-3.0506,-2.9665,-2.9352,-2.9352,-2.9352,-2.9352,-2.8443,-2.7714,-2.723,-2.6376,-2.5225,-2.3943,0.0,0.0,0.0,0.0,0.0,0.0,0.0,0.0,0.0,0.0,0.0,-1.5893,-1.556,-1.5644,-1.6149,-1.6254,-1.6713,-1.7712,-1.8037,-1.7736,-1.6644,-1.7757,-1.8255,-1.771,-1.7809,-1.7717,-1.7317,-1.7254,-1.7426,-1.7948,-1.7998,-1.8193,-1.8705,-1.8797,-1.8786,-1.8845,-1.9,-1.9095,-1.8999,-1.9164,-1.9292,-1.9292,-1.9292,-1.9292,-1.9292,-1.9292,-1.9292,-1.9292,-1.9292,-1.9292,-1.9213,-1.8895,-1.8238,-1.7017,-1.637,-1.556,-1.4328,-1.4088,-1.3997,-1.3652,-1.3476,-1.3313,-1.2966,-1.279,-1.2705,-1.2705,-1.2705,-1.2705,-1.2705,-1.2705,-1.2705,-4.7672,-4.862,-4.7593,-4.6645,-4.5713,-4.4307,-4.322,-4.2239,0.0,0.0,0.0,-3.7938,-3.7051,-3.6424,-3.5648,-3.5037,-3.4549,-3.4399,-3.4414,-3.4414,-3.4414,-3.4414,-3.4414,-3.4414,-3.4414,-3.4414,-3.4414,-3.4414,-3.437,-3.2961,-3.2213,-3.1947,-3.0637,-2.9715,-2.924,-2.9099,-2.9035,-2.9022,-2.8302,-2.7591,-2.6884,-2.6321,-2.5439,-2.415,-2.3595,-2.2769,-2.1627,-2.1172,-2.0698,-2.0188,-1.9767,-1.9365,-1.8964,-1.8509,-1.8081,-1.77,-1.7688,-1.7929,-1.8434,-1.847,-1.871,-1.9239,-1.9768,-1.966,-1.8698,-1.9395,-1.9707,-1.9172,-1.942,-1.9309,-1.8697,-1.8489,-1.8485,-1.8662,-1.875,-1.8916,-1.9263,-1.9324,-1.9326,-1.9382,-1.9334,-1.9381,-1.9283,-1.9283,-1.9292,-1.9292,-1.9292,-1.9292,-1.9292,-1.9292,-1.9292,-1.9292,-1.9292,-1.9292,-1.9213,-1.8807,-1.7836,-1.6944,-1.6131,-1.5311,-1.4412,-1.4088,-1.4004,-1.3652,-1.3476,-1.3307,-1.3052,-1.2881,-1.2705,-1.2705,-1.2705,-1.2705,-1.2705,-1.2705,-1.2705,-4.7846,-4.8067,-4.843,-4.7514,-4.5672,-4.4419,-4.2801,-4.1106,-4.1288,-4.0716,-3.9601,-3.9311,-3.8497,-3.7463,-3.6344,-3.5544,-3.5037,-3.4616,-3.4414,0.0,-3.4414,-3.4414,-3.4414,-3.4414,-3.4414,-3.4414,-3.4414,-3.4414,-3.4327,-3.3607,-3.2999,-3.242,-3.1633,-3.0611,-2.9596,-2.8972,-2.8651,-2.8665,-2.8826,-2.836,-2.723,-2.6835,-2.5873,-2.4232,-2.4055,-2.3431,-2.2237,-2.2539,-2.2525,-2.1993,-2.1655,-2.1273,-2.0745,-1.9957,-1.9293,-1.8819,-1.877,-1.8999,-1.9516,-1.9564,-1.9793,-2.0346,-2.0875,-2.0923,-2.0301,-2.0205,-2.0159,-2.0061,-1.9604,-1.9243,-1.94,-1.8972,-1.8834,-1.9111,-1.9199,-1.9292,-1.9551,-1.9591,-1.9554,-1.9565,-1.9511,-1.9478,-1.939,-1.9292,-1.9292,-1.9292,-1.9292,-1.9292,-1.9292,-1.9292,-1.9292,-1.9292,-1.9292,-1.9292,-1.9292,-1.9213,-1.8399,-1.6944,-1.6617,-1.5884,-1.4334,-1.4088,-1.3919,-1.3561,-1.3392,-1.3222,-1.2875,-1.2705,-1.2705,-1.2705,-1.2705,-1.2705,-1.2705,-1.2705,-1.2705,-4.7735,-4.8383,-4.8182,-4.7927,-4.734,-4.5201,-4.2958,-4.0913,-4.1406,-4.1267,-4.0708,-3.9953,-3.9167,-3.8242,-3.6972,-3.6133,-3.5529,-3.5037,-3.4854,-3.4787,-3.4534,-3.4414,-3.4414,-3.4414,-3.4414,-3.4414,-3.4414,-3.4414,-3.4356,-3.3775,-3.3151,-3.242,-3.1137,-3.0182,-2.9631,-2.8908,-2.8587,-2.8587,-2.878,-2.8406,-2.7543,-2.7033,-2.6267,-2.5113,-2.4476,-2.3879,-2.3309,-2.3202,-2.3053,-2.2769,-2.2191,-2.1783,-2.154,-2.0717,-2.0117,-1.9877,-1.9865,-2.0105,-2.0622,-2.0923,-2.1199,-2.1452,-2.1692,-2.1861,-2.1909,-2.1854,-2.1796,-2.1745,-2.1663,-2.1353,-2.0754,-2.0359,-2.0063,-1.9654,-1.9629,-1.9805,-2.0033,-2.0043,-1.9975,-2.0001,-1.9715,-1.9557,-1.9469,-1.9381,-1.9292,-1.9292,-1.9292,-1.9292,-1.9292,-1.9292,-1.9292,-1.9292,-1.9292,-1.9292,-1.9292,-1.9292,-1.8559,-1.6935,-1.6698,-1.5966,-1.4496,-1.4088,-1.3913,-1.3483,-1.3398,-1.3222,-1.279,-1.2705,-1.2705,-1.2705,-1.2705,-1.2705,-1.2705,-1.2705,-1.2705,-4.753,-4.8588,-4.793,-4.7741,-4.7751,-4.5561,-4.3254,-4.1065,-4.1256,-4.144,-4.1412,-4.0224,-3.9373,-3.8722,-3.746,-3.6516,-3.591,-3.5544,-3.5285,-3.5169,-3.4787,-3.4534,-3.4414,-3.4414,-3.4414,-3.4414,-3.4414,-3.4414,-3.4356,-3.3906,-3.3282,-3.242,-3.0665,-2.9743,-2.954,-2.8908,-2.8587,-2.8587,-2.8587,-2.8315,-2.7718,-2.7257,-2.666,-2.5887,-2.5018,-2.4462,-2.4313,-2.3825,-2.3581,-2.3581,-2.2727,-2.2283,-2.2227,-2.1469,-2.0959,-2.0935,-2.0959,-2.1151,-2.1548,-2.1957,-2.2246,-2.2366,-2.2366,-2.2594,-2.3087,-2.3268,-2.328,-2.3232,-2.3077,-2.2662,-2.1798,-2.1246,-2.0876,-2.0141,-2.0059,-2.0185,-2.0498,-2.0498,-2.0333,-2.0264,-1.996,-1.9636,-1.9557,-1.939,-1.9292,-1.9292,-1.9292,-1.9292,-1.9292,-1.9292,-1.9292,-1.9292,-1.9292,-1.9292,-1.9292,-1.9292,-1.8647,-1.7188,-1.6862,-1.6041,-1.4817,-1.4334,-1.3913,-1.3483,-1.3398,-1.3222,-1.279,-1.2705,-1.2705,-1.2705,-1.2705,-1.2705,-1.2705,-1.2705,-1.2705,-4.7261,-4.794,-4.7817,-4.6787,-4.5286,-4.4676,-4.3355,-4.1629,-4.0904,-4.0972,-4.1444,-4.0224,-3.9389,-3.8657,-3.7491,-3.6576,-3.6004,-3.5864,-3.5623,-3.5249,-3.5169,-3.4868,-3.4414,-3.4414,-3.4414,-3.4414,-3.4414,-3.4414,-3.4414,-3.4312,-3.3703,-3.2507,-3.1126,-3.0108,-2.961,-2.8908,-2.8587,-2.8587,-2.8587,-2.8302,-2.7746,-2.7651,-2.7067,-2.5928,-2.5792,-2.5466,-2.4951,-2.4869,-2.4842,-2.4786,-2.3922,-2.3398,-2.328,-2.2554,-2.2029,-2.2017,-2.2029,-2.2077,-2.2113,-2.2173,-2.2438,-2.2847,-2.2907,-2.3123,-2.3652,-2.4097,-2.4169,-2.3723,-2.2559,-2.2037,-2.2045,-2.1021,-2.0397,-2.0458,-2.0469,-2.0527,-2.0547,-2.0566,-2.0489,-2.0342,-2.002,-1.9784,-1.9636,-1.939,-1.9292,-1.9292,-1.9292,-1.9292,-1.9292,-1.9292,-1.9292,-1.9292,-1.9292,-1.9292,-1.9292,-1.9292,-1.8807,-1.7917,-1.7188,-1.6288,-1.5311,-1.4496,-1.3919,-1.3568,-1.3398,-1.3222,-1.2875,-1.2705,-1.2705,-1.2705,-1.2705,-1.2705,-1.2705,-1.2705,-1.2705,-4.6613,-4.7245,-4.7095,-4.6607,-4.5683,-4.4591,-4.3584,-4.2789,-4.1653,-4.1307,-4.1491,-4.0676,-4.0126,-3.975,-3.8601,-3.7897,-3.7502,-3.6846,-3.6195,-3.5703,-3.5362,-3.4773,-3.4128,-3.4278,-3.4278,-3.4128,-3.4278,-3.4414,-3.4356,-3.4037,-3.3398,-3.2478,-3.1183,-3.0193,-2.9596,-2.8908,-2.8587,-2.8587,-2.8587,-2.8478,-2.822,-2.7895,-2.7474,-2.6959,-2.628,-2.5792,-2.552,-2.5195,-2.4892,-2.4593,-2.393,-2.3458,-2.3185,-2.2543,-2.2197,-2.2209,-2.2486,-2.2666,-2.2654,-2.2943,-2.3207,-2.3436,-2.3436,-2.3664,-2.4157,-2.441,-2.4542,-2.4525,-2.3652,-2.2961,-2.263,-2.1626,-2.0897,-2.0692,-2.0576,-2.0576,-2.0576,-2.0576,-2.0576,-2.0489,-2.0186,-1.9872,-1.9706,-1.9469,-1.9301,-1.9292,-1.9292,-1.9292,-1.9292,-1.9292,-1.9292,-1.9292,-1.9292,-1.9292,-1.9292,-1.9292,-1.8727,-1.7674,-1.6944,-1.6288,-1.4992,-1.4419,-1.3913,-1.3483,-1.3398,-1.3228,-1.279,-1.2705,-1.2705,-1.2705,-1.2705,-1.2705,-1.2705,-1.2705,-1.2705,-4.6092,-4.6518,-4.6559,-4.6178,-4.5516,-4.4417,-4.37,-4.3242,-4.1841,-4.1374,-4.1522,-4.107,-4.0738,-4.0485,-3.945,-3.872,-3.8183,-3.7314,-3.6682,-3.6261,-3.5648,-3.4957,-3.4303,-3.4452,-3.4399,-3.4059,-3.4264,-3.4414,-3.437,-3.383,-3.3332,-3.263,-3.1454,-3.0431,-2.982,-2.9004,-2.8587,-2.8587,-2.8587,-2.8587,-2.8532,-2.818,-2.7868,-2.7651,-2.6864,-2.6307,-2.6131,-2.5561,-2.5007,-2.4588,-2.3962,-2.3412,-2.2909,-2.2432,-2.2246,-2.2438,-2.2907,-2.3195,-2.3207,-2.3556,-2.3833,-2.3953,-2.3977,-2.4194,-2.4614,-2.4735,-2.4903,-2.5133,-2.4564,-2.3722,-2.3021,-2.2285,-2.1471,-2.0722,-2.0576,-2.0576,-2.0576,-2.0576,-2.0576,-2.0566,-2.0177,-1.9863,-1.9706,-1.9469,-1.9292,-1.9292,-1.9292,-1.9292,-1.9292,-1.9292,-1.9292,-1.9292,-1.9292,-1.9292,-1.9292,-1.9292,-1.8567,-1.7594,-1.6944,-1.6214,-1.4748,-1.4412,-1.3913,-1.3568,-1.3483,-1.3222,-1.279,-1.2705,-1.2705,-1.2705,-1.2705,-1.2705,-1.2705,-1.2705,-1.2705,-4.5823,-4.595,-4.6534,-4.5438,-4.3363,-4.3851,-4.3623,-4.2816,-4.1109,-4.0752,-4.1456,-4.107,-4.0768,-4.0659,-3.9459,-3.8271,-3.7297,-3.7104,-3.692,-3.6763,-3.6163,-3.5623,-3.5154,-3.5169,-3.4854,-3.4264,-3.4346,-3.4346,-3.4332,-3.4002,-3.3686,-3.3332,-3.2051,-3.1115,-3.0339,-2.9155,-2.86,-2.8587,-2.8587,-2.8587,-2.8587,-2.856,-2.8248,-2.7813,-2.7637,-2.7298,-2.6796,-2.6185,-2.5612,-2.517,-2.4222,-2.3403,-2.2946,-2.2469,-2.2474,-2.2931,-2.3448,-2.3737,-2.3737,-2.3809,-2.4037,-2.4398,-2.4494,-2.4699,-2.5131,-2.5204,-2.5228,-2.5312,-2.4636,-2.3902,-2.3032,-2.2285,-2.1461,-2.0722,-2.0576,-2.0576,-2.0576,-2.0576,-2.0576,-2.0489,-2.0177,-1.9784,-1.939,-1.9301,-1.9292,-1.9292,-1.9292,-1.9292,-1.9292,-1.9292,-1.9292,-1.9292,-1.9292,-1.9292,-1.9292,-1.9292,-1.8886,-1.7836,-1.6862,-1.6288,-1.547,-1.4734,-1.4068,-1.3568,-1.3398,-1.3222,-1.2875,-1.2705,-1.2705,-1.2705,-1.2705,-1.2705,-1.2705,-1.2705,-1.2705,-4.5573,-4.5173,-4.5015,-4.4849,-4.4771,-4.324,-4.3066,-4.3747,-4.1778,-4.1174,-4.1522,-4.139,-4.0904,-4.0185,-3.9732,-3.9083,-3.8332,-3.7834,-3.7381,-3.703,-3.6703,-3.5949,-3.489,-3.4795,-3.4558,-3.4113,-3.4059,-3.3991,-3.3991,-3.3839,-3.3457,-3.2709,-3.1952,-3.1068,-3.0179,-2.9131,-2.8587,-2.8587,-2.8587,-2.8587,-2.8587,-2.8587,-2.8478,-2.8275,-2.7895,-2.761,-2.7393,-2.6796,-2.6109,-2.5299,-2.4906,-2.4305,-2.357,-2.3337,-2.328,-2.3508,-2.3965,-2.4254,-2.429,-2.4566,-2.4831,-2.4987,-2.5023,-2.5071,-2.5264,-2.5312,-2.5312,-2.5241,-2.5087,-2.4348,-2.3169,-2.2285,-2.1461,-2.0789,-2.0576,-2.0576,-2.0576,-2.0576,-2.0576,-2.042,-2.0029,-1.9636,-1.9381,-1.9292,-1.9292,-1.9292,-1.9292,-1.9292,-1.9292,-1.9292,-1.9292,-1.9292,-1.9292,-1.9292,-1.9292,-1.9292,-1.8886,-1.7666,-1.6698,-1.5884,-1.5068,-1.4405,-1.3737,-1.3483,-1.3392,-1.3137,-1.279,-1.2705,-1.2705,-1.2705,-1.2705,-1.2705,-1.2705,-1.2705,-1.2705,-4.5231,-4.4343,-4.422,-4.448,-4.4694,-4.2925,-4.2898,-4.4055,-4.2359,-4.1377,-4.1256,-4.144,-4.082,-3.9677,-3.9763,-3.9478,-3.8811,-3.8104,-3.7541,-3.706,-3.6798,-3.5992,-3.4964,-3.4662,-3.4341,-3.3839,-3.3563,-3.3563,-3.377,-3.3563,-3.3128,-3.2651,-3.1965,-3.1163,-3.0301,-2.9367,-2.8804,-2.8641,-2.8587,-2.8587,-2.8587,-2.8587,-2.8587,-2.8532,-2.8193,-2.799,-2.799,-2.742,-2.6663,-2.5729,-2.5409,-2.4859,-2.3905,-2.3929,-2.4013,-2.4061,-2.4482,-2.4771,-2.4807,-2.5107,-2.53,-2.5312,-2.5312,-2.5312,-2.5312,-2.5312,-2.5312,-2.5312,-2.5241,-2.4647,-2.3327,-2.251,-2.1766,-2.0876,-2.0576,-2.0576,-2.0576,-2.0576,-2.0489,-2.0186,-1.9951,-1.9627,-1.9381,-1.9292,-1.9292,-1.9292,-1.9292,-1.9292,-1.9292,-1.9292,-1.9292,-1.9292,-1.9292,-1.9292,-1.9292,-1.9301,-1.8647,-1.7432,-1.6862,-1.5884,-1.4817,-1.4153,-1.3652,-1.3476,-1.3222,-1.2966,-1.2796,-1.2705,-1.2705,-1.2705,-1.2705,-1.2705,-1.2705,-1.2705,-1.2705,-4.4843,-4.3539,-4.4327,-4.4051,-4.324,-4.3,-4.3198,-4.3239,-4.2419,-4.131,-4.0462,-4.1142,-4.0378,-3.903,-3.9463,-3.9262,-3.831,-3.771,-3.7388,-3.7164,-3.6535,-3.5867,-3.5207,-3.4773,-3.4206,-3.3701,-3.3058,-3.3129,-3.3632,-3.3129,-3.2875,-3.2989,-3.2222,-3.1378,-3.0867,-2.9886,-2.9143,-2.8722,-2.8587,-2.8587,-2.8587,-2.8587,-2.8587,-2.8587,-2.8546,-2.8519,-2.8532,-2.8003,-2.7187,-2.6271,-2.5666,-2.4833,-2.4165,-2.429,-2.453,-2.459,-2.5011,-2.5252,-2.5276,-2.5288,-2.5312,-2.5312,-2.5312,-2.5312,-2.5312,-2.5312,-2.5312,-2.5312,-2.5241,-2.4647,-2.3401,-2.2957,-2.2285,-2.0934,-2.0576,-2.0576,-2.0576,-2.0566,-2.0411,-2.002,-1.9863,-1.9696,-1.9371,-1.9292,-1.9292,-1.9292,-1.9292,-1.9292,-1.9292,-1.9292,-1.9292,-1.9329,-1.9329,-1.932,-1.9311,-1.9231,-1.8247,-1.7269,-1.7025,-1.637,-1.5061,-1.4237,-1.3815,-1.3561,-1.3137,-1.2881,-1.279,-1.2705,-1.2705,-1.2705,-1.2705,-1.2705,-1.2705,-1.2705,-1.2705,-4.4933,-4.3741,-4.4066,-4.3756,-4.2971,-4.2674,-4.2636,-4.271,-4.1873,-4.0882,-4.0176,-4.06,-3.9975,-3.8987,-3.9364,-3.9235,-3.8263,-3.7984,-3.7857,-3.7627,-3.7045,-3.6256,-3.5433,-3.4598,-3.3768,-3.3115,-3.2846,-3.2761,-3.2988,-3.2846,-3.2704,-3.2464,-3.204,-3.1364,-3.0597,-2.9848,-2.9184,-2.8668,-2.8587,-2.8587,-2.8587,-2.8587,-2.8587,-2.8587,-2.8587,-2.8587,-2.8573,-2.8074,-2.7446,-2.6758,-2.6215,-2.5574,-2.4993,-2.4975,-2.5059,-2.5071,-2.5204,-2.5312,-2.5312,-2.5312,-2.5312,-2.5312,-2.5312,-2.5312,-2.5312,-2.5312,-2.5312,-2.5312,-2.5312,-2.4647,-2.3401,-2.3032,-2.2285,-2.0799,-2.0576,-2.0576,-2.0566,-2.0333,-2.0098,-1.9942,-1.9618,-1.946,-1.9381,-1.9292,-1.9292,-1.9292,-1.9292,-1.9292,-1.9292,-1.9292,-1.9448,-1.965,-1.9531,-1.9384,-1.9439,-1.9314,-1.8647,-1.7917,-1.7513,-1.678,-1.547,-1.4475,-1.4055,-1.347,-1.313,-1.2875,-1.279,-1.2705,-1.2705,-1.2705,-1.2705,-1.2705,-1.2705,-1.2705,-1.2705,-4.5173,-4.422,-4.3989,-4.3615,-4.3205,-4.2851,-4.2637,-4.2425,-4.1935,-4.0913,-3.9727,-3.9889,-3.9247,-3.8308,-3.8855,-3.8855,-3.8277,-3.8202,-3.8059,-3.777,-3.695,-3.6108,-3.523,-3.4082,-3.3297,-3.2761,-3.2574,-3.2561,-3.2704,-3.2574,-3.2372,-3.2232,-3.2047,-3.1459,-3.0486,-3.0011,-2.9455,-2.8736,-2.8587,-2.8587,-2.8587,-2.8587,-2.8587,-2.8587,-2.8587,-2.8587,-2.8587,-2.8039,-2.7577,-2.6973,-2.6289,-2.5664,-2.5312,-2.53,-2.5312,-2.5312,-2.5312,-2.5312,-2.5312,-2.5312,-2.5312,-2.5312,-2.5312,-2.5312,-2.5312,-2.5312,-2.5312,-2.5312,-2.5312,-2.4791,-2.3683,-2.3106,-2.2435,-2.1242,-2.0789,-2.0644,-2.0566,-2.0255,-2.002,-1.9863,-1.9627,-1.939,-1.9301,-1.9292,-1.9292,-1.9292,-1.9292,-1.9292,-1.9292,-1.9292,-1.9503,-1.9613,-1.9448,-1.9439,-1.9586,-1.9414,-1.9073,-1.8567,-1.8158,-1.7107,-1.5884,-1.4963,-1.4378,-1.3464,-1.2875,-1.279,-1.2705,-1.2705,-1.2705,-1.2705,-1.2705,-1.2705,-1.2705,-1.2705,-1.2705,-4.5395,-4.4737,-4.4143,-4.3771,-4.3536,-4.3431,-4.3047,-4.2575,-4.2345,-4.094,-3.9164,-3.916,-3.8517,-3.7505,-3.8173,-3.8486,-3.8202,-3.8127,-3.7962,-3.739,-3.6425,-3.5438,-3.4612,-3.3338,-3.2717,-3.2646,-3.2372,-3.2372,-3.2574,-3.2386,-3.2169,-3.2155,-3.216,-3.1612,-3.0717,-3.0432,-2.9794,-2.8872,-2.8641,-2.8587,-2.8587,-2.8587,-2.8587,-2.8587,-2.8587,-2.8587,-2.8522,-2.7987,-2.7443,-2.6892,-2.5931,-2.5382,-2.5312,-2.5312,-2.5312,-2.5312,-2.5312,-2.5312,-2.5312,-2.5312,-2.5312,-2.5312,-2.5312,-2.5312,-2.5312,-2.5312,-2.5312,-2.5312,-2.5312,-2.4933,-2.4047,-2.339,-2.2585,-2.1756,-2.0934,-2.0644,-2.0566,-2.042,-2.0108,-1.9942,-1.9715,-1.9557,-1.9301,-1.9292,-1.9292,-1.9292,-1.9292,-1.9292,-1.9292,-1.9301,-1.932,-1.9366,-1.943,-1.9485,-1.9632,-1.9467,-1.9143,-1.8975,-1.8567,-1.7585,-1.6206,-1.5123,-1.421,-1.3288,-1.2784,-1.2705,-1.2705,-1.2705,-1.2705,-1.2705,-1.2705,-1.2705,-1.2705,-1.2705,-1.2705,-4.5173,-4.4159,-4.4004,-4.3615,-4.3145,-4.2962,-4.2743,-4.2379,-4.1568,-4.0289,-3.8841,-3.8826,-3.8173,-3.7197,-3.8188,-3.8546,-3.8188,-3.7915,-3.7777,-3.742,-3.622,-3.4971,-3.389,-3.2877,-3.2372,-3.23,-3.2241,-3.2241,-3.2314,-3.2241,-3.2169,-3.2169,-3.2155,-3.1829,-3.1124,-3.0649,-3.0025,-2.9279,-2.879,-2.86,-2.8587,-2.8587,-2.8587,-2.8587,-2.8587,-2.8587,-2.8522,-2.7709,-2.6973,-2.6414,-2.5721,-2.5312,-2.5312,-2.5312,-2.5312,-2.5312,-2.5312,-2.5312,-2.5312,-2.5312,-2.5312,-2.5312,-2.5312,-2.5312,-2.5312,-2.5312,-2.5312,-2.5312,-2.5312,-2.4791,-2.361,-2.3169,-2.236,-2.1165,-2.0722,-2.0566,-2.0489,-2.0255,-1.9942,-1.9854,-1.9548,-1.9381,-1.9301,-1.9292,-1.9292,-1.9292,-1.9292,-1.9292,-1.9292,-1.9301,-1.9329,-1.9531,-1.9622,-1.9622,-1.9595,-1.9421,-1.932,-1.9222,-1.8807,-1.8069,-1.6437,-1.4796,-1.3789,-1.279,-1.279,-1.2705,-1.2705,-1.2705,-1.2705,-1.2705,-1.2705,-1.2705,-1.2705,-1.2705,-1.2705,-4.5336,-4.4708,-4.4389,-4.3914,-4.3317,-4.3168,-4.2766,-4.2068,-4.1207,-4.0036,-3.8914,-3.8412,-3.7901,-3.738,-3.7962,-3.8202,-3.7915,-3.7687,-3.7394,-3.6838,-3.5515,-3.43,-3.3375,-3.2527,-3.2169,-3.2169,-3.2169,-3.2169,-3.2169,-3.2169,-3.2169,-3.2169,-3.2169,-3.1884,-3.1287,-3.0975,-3.0323,-2.9591,-2.9116,-2.8872,-2.8614,-2.8587,-2.8587,-2.8587,-2.8587,-2.8587,-2.8457,-2.759,-2.6769,-2.622,-2.5664,-2.5312,-2.5312,-2.5312,-2.5312,-2.5312,-2.5312,-2.5312,-2.5312,-2.5312,-2.5312,-2.5312,-2.5312,-2.5312,-2.5312,-2.5312,-2.5312,-2.5312,-2.5312,-2.4862,-2.4131,-2.3401,-2.2285,-2.0944,-2.0576,-2.0566,-2.0498,-2.0098,-1.9863,-1.9706,-1.946,-1.9292,-1.9292,-1.9292,-1.9292,-1.9292,-1.9292,-1.9292,-1.9292,-1.9311,-1.9347,-1.9494,-1.9567,-1.9512,-1.9494,-1.9366,-1.9231,-1.9143,-1.798,-1.7488,-1.6339,-1.4538,-1.3626,-1.2875,-1.279,-1.2705,-1.2705,-1.2705,-1.2705,-1.2705,-1.2705,-1.2705,-1.2705,-1.2705,-1.2705,-4.5624,-4.5536,-4.4896,-4.427,-4.37,-4.3561,-4.2803,-4.186,-4.1102,-4.0236,-3.9192,-3.8113,-3.7763,-3.761,-3.7687,-3.761,-3.761,-3.7394,-3.6929,-3.6097,-3.4872,-3.3778,-3.3329,-3.2581,-3.2209,-3.2169,-3.2169,-3.2169,-3.2169,-3.2169,-3.2169,-3.2169,-3.2169,-3.1911,-3.1531,-3.1314,-3.0663,-2.9821,-2.9469,-2.9089,-2.8695,-2.8587,-2.8587,-2.8587,-2.8587,-2.8587,-2.8327,-2.7577,-2.6756,-2.6302,-2.5652,-2.5312,-2.5312,-2.5312,-2.5312,-2.5312,-2.5312,-2.5312,-2.5312,-2.5312,-2.5312,-2.5312,-2.5312,-2.5312,-2.5312,-2.5312,-2.5312,-2.5312,-2.5312,-2.5158,-2.4707,-2.3683,-2.2349,-2.1088,-2.0722,-2.0498,-2.0264,-2.0029,-1.9794,-1.9636,-1.9381,-1.9292,-1.9292,-1.9292,-1.9292,-1.9292,-1.9292,-1.9292,-1.9292,-1.9301,-1.9301,-1.9338,-1.9356,-1.9329,-1.932,-1.9301,-1.9134,-1.8886,-1.7074,-1.6175,-1.5764,-1.4448,-1.3542,-1.296,-1.279,-1.2705,-1.2705,-1.2705,-1.2705,-1.2705,-1.2705,-1.2705,-1.2705,-1.2705,-1.2705,-4.4652,-4.4184,-4.3479,-4.3169,-4.2896,-4.2457,-4.228,-4.2328,-4.0769,-3.9858,-3.919,-3.8412,-3.7901,-3.761,-3.761,-3.761,-3.7457,-3.7007,-3.6298,-3.5721,-3.4502,-3.3959,-3.3498,-3.2684,-3.2209,-3.2169,-3.2169,-3.2169,-3.2169,-3.2169,-3.2169,-3.2169,-3.2169,-3.2114,-3.1938,-3.1517,-3.0961,-3.0242,-2.9754,-2.9211,-2.8709,-2.8587,-2.8587,-2.8587,-2.8587,-2.8587,-2.8379,-2.7577,-2.6973,-2.662,-2.5931,-2.5312,-2.5312,-2.5312,-2.5312,-2.5312,-2.5312,-2.5312,-2.5312,-2.5312,-2.5312,-2.5312,-2.5312,-2.5312,-2.5312,-2.5312,-2.5312,-2.5312,-2.5312,-2.5016,-2.4337,-2.2947,-2.1983,-2.1318,-2.0789,-2.0264,-2.0029,-1.9942,-1.9784,-1.9636,-1.9381,-1.9292,-1.9292,-1.9292,-1.9292,-1.9292,-1.9292,-1.9292,-1.9292,-1.9292,-1.9292,-1.9292,-1.9292,-1.9292,-1.9292,-1.9213,-1.8975,-1.8559,-1.6838,-1.5433,-1.5025,-1.4287,-1.3294,-1.2875,-1.2705,-1.2705,-1.2705,-1.2705,-1.2705,-1.2705,-1.2705,-1.2705,-1.2705,-1.2705,-1.2705,-4.4032,-4.3716,-4.3356,-4.3028,-4.2685,-4.2294,-4.205,-4.1601,-4.0508,-3.9621,-3.9133,-3.8486,-3.8052,-3.7839,-3.7687,-3.7534,-3.7148,-3.6429,-3.5801,-3.5181,-3.4262,-3.3824,-3.339,-3.2698,-3.2169,-3.2169,-3.2169,-3.2169,-3.2169,-3.2169,-3.2169,-3.2169,-3.2169,-3.2169,-3.2169,-3.1843,-3.1246,-3.0513,-3.0079,-2.9509,-2.8736,-2.8587,-2.8587,-2.8587,-2.8587,-2.8522,-2.8183,-2.7443,-2.6905,-2.6496,-2.5804,-2.5312,-2.5312,-2.5312,-2.5312,-2.5312,-2.5312,-2.5312,-2.5312,-2.5312,-2.5312,-2.5312,-2.5312,-2.5312,-2.5312,-2.5312,-2.5312,-2.5312,-2.517,-2.4862,-2.3683,-2.2574,-2.1766,-2.1088,-2.0634,-2.0177,-1.9863,-1.9794,-1.9715,-1.9469,-1.9381,-1.9292,-1.9292,-1.9292,-1.9292,-1.9292,-1.9292,-1.9292,-1.9292,-1.9292,-1.9292,-1.9292,-1.9292,-1.9292,-1.9292,-1.9134,-1.8895,-1.8158,-1.7009,-1.5688,-1.4942,-1.3957,-1.2966,-1.279,-1.2705,-1.2705,-1.2705,-1.2705,-1.2705,-1.2705,-1.2705,-1.2705,-1.2705,-1.2705,-1.2705,-4.3564,-4.3548,-4.3453,-4.3058,-4.2584,-4.2489,-4.1821,-4.0861,-4.027,-3.9707,-3.909,-3.8516,-3.8202,-3.7976,-3.7534,-3.7148,-3.6638,-3.5998,-3.5276,-3.4855,-3.4082,-3.3552,-3.305,-3.2548,-3.2169,-3.2169,-3.2169,-3.2169,-3.2169,-3.2169,-3.2169,-3.2169,-3.2169,-3.2169,-3.2169,-3.2128,-3.1558,-3.054,-3.0337,-2.974,-2.879,-2.8587,-2.8587,-2.8587,-2.8587,-2.8314,-2.7921,-2.731,-2.6769,-2.6233,-2.5594,-2.5382,-2.5312,-2.5312,-2.5312,-2.5312,-2.5312,-2.5312,-2.5312,-2.5312,-2.5312,-2.5312,-2.5312,-2.5312,-2.5312,-2.5312,-2.5312,-2.5241,-2.5087,-2.4492,-2.3169,-2.2209,-2.1461,-2.0789,-2.0411,-2.0029,-1.9724,-1.9557,-1.9469,-1.9381,-1.9301,-1.9292,-1.9292,-1.9292,-1.9292,-1.9292,-1.9292,-1.9292,-1.9292,-1.9292,-1.9292,-1.9292,-1.9292,-1.9292,-1.9292,-1.8886,-1.8567,-1.8078,-1.7017,-1.5944,-1.4949,-1.4126,-1.33,-1.279,-1.2705,-1.2705,-1.2705,-1.2705,-1.2705,-1.2705,-1.2705,-1.2705,-1.2705,-1.2705,-1.2705,-4.2853,-4.2805,-4.2205,-4.1873,-4.1794,-4.1778,-4.1397,-4.0882,-4.0646,-4.0021,-3.9104,-3.8634,-3.8127,-3.761,-3.6929,-3.6363,-3.5894,-3.5355,-3.4923,-3.4529,-3.377,-3.3145,-3.2888,-3.2453,-3.2182,-3.2169,-3.2169,-3.2169,-3.2169,-3.2169,-3.2169,-3.2169,-3.2169,-3.2169,-3.2169,-3.2114,-3.1585,-3.0581,-3.0378,-2.9794,-2.8872,-2.8587,-2.8587,-2.8587,-2.8587,-2.8262,-2.7789,-2.731,-2.6769,-2.622,-2.5664,-2.5382,-2.5312,-2.5312,-2.5312,-2.5312,-2.5312,-2.5312,-2.5312,-2.5312,-2.5312,-2.5312,-2.5312,-2.5312,-2.5312,-2.5312,-2.5241,-2.5016,-2.4564,-2.3902,-2.3106,-2.2059,-2.1538,-2.1011,-2.0333,-1.9715,-1.9566,-1.9478,-1.9381,-1.9292,-1.9292,-1.9292,-1.9292,-1.9292,-1.9292,-1.9292,-1.9292,-1.9292,-1.9292,-1.9292,-1.9292,-1.9292,-1.9292,-1.9292,-1.9292,-1.8647,-1.8238,-1.8006,-1.7107,-1.5951,-1.5047,-1.4468,-1.3795,-1.3039,-1.2705,-1.2705,-1.2705,-1.2705,-1.2705,-1.2705,-1.2705,-1.2705,-1.2705,-1.2705,-1.2705,-4.2126,-4.2094,-4.1731,-4.1588,-4.1588,-4.1588,-4.1107,-4.0409,-4.027,-3.9565,-3.856,-3.8127,-3.7749,-3.7226,-3.6693,-3.6001,-3.5301,-3.5004,-3.4502,-3.3905,-3.3335,-3.2861,-3.2657,-3.2291,-3.2209,-3.2169,-3.2169,-3.2169,-3.2169,-3.2169,-3.2169,-3.2169,-3.2169,-3.2169,-3.2169,-3.2155,-3.1517,-3.069,-3.0351,-2.9821,-2.8709,-2.8587,-2.8587,-2.8587,-2.8522,-2.8197,-2.751,-2.7175,-2.6552,-2.5861,-2.5453,-2.5312,-2.5312,-2.5312,-2.5312,-2.5312,-2.5312,-2.5312,-2.5312,-2.5312,-2.5312,-2.5312,-2.5312,-2.5312,-2.5312,-2.5241,-2.5158,-2.4636,-2.3975,-2.3231,-2.2435,-2.1461,-2.0944,-2.0634,-2.002,-1.9636,-1.9469,-1.939,-1.9301,-1.9292,-1.9292,-1.9292,-1.9292,-1.9292,-1.9292,-1.9292,-1.9292,-1.9292,-1.9292,-1.9292,-1.9292,-1.9292,-1.9292,-1.9292,-1.9292,-1.8886,-1.8238,-1.7844,-1.7188,-1.6124,-1.5075,-1.4334,-1.3646,-1.2875,-1.2705,-1.2795,-1.2717,-1.2723,-1.2711,-1.2729,-1.2753,-1.2771,-1.2723,-1.2705,-1.2765,-4.1588,-4.1588,-4.1588,-4.1588,-4.1588,-4.1588,-4.1024,-4.0185,-4.0115,-3.9247,-3.7901,-3.7672,-3.7366,-3.6794,-3.6249,-3.5552,-3.4665,-3.4529,-3.3892,-3.3308,-3.2928,-3.2589,-3.2304,-3.2169,-3.2169,-3.2169,-3.2169,-3.2169,-3.2169,-3.2169,-3.2169,-3.2236,-3.225,-3.2264,-3.2223,-3.2359,-3.1558,-3.092,-3.0405,-2.9781,-2.8899,-2.8587,-2.8587,-2.8587,-2.8587,-2.8118,-2.7162,-2.704,-2.6427,-2.5721,-2.5312,-2.5312,-2.5312,-2.5312,-2.5312,-2.5312,-2.5312,-2.5312,-2.5312,-2.5312,-2.5312,-2.5312,-2.5312,-2.5312,-2.5312,-2.5241,-2.5016,-2.4192,-2.3463,-2.2723,-2.1907,-2.0857,-2.0255,-1.9942,-1.9706,-1.9469,-1.9381,-1.9292,-1.9292,-1.9292,-1.9292,-1.9292,-1.9292,-1.9292,-1.9292,-1.9292,-1.9292,-1.9292,-1.9292,-1.9292,-1.9292,-1.9292,-1.9292,-1.9292,-1.9292,-1.9292,-1.8567,-1.7997,-1.7269,-1.6198,-1.5173,-1.422,-1.3553,-1.2942,-1.297,-1.3037,-1.2892,-1.2843,-1.2982,-1.3031,-1.2916,-1.291,-1.3012,-1.3025,-1.3049,-4.1588,-4.1588,-4.1588,-4.1588,-4.1588,-4.1588,-4.1256,-4.0646,-4.0578,-3.9834,-3.8173,-3.7814,-3.7127,-3.6314,-3.5415,-3.4597,-3.4068,-3.3634,-3.3308,-3.2928,-3.2562,-3.2331,-3.2196,-3.2182,-3.2169,-3.2169,-3.2169,-3.2169,-3.2169,-3.2169,-3.2169,-3.225,-3.2603,-3.2711,-3.225,-3.2603,-3.2318,-3.1287,-3.0649,-2.9794,-2.8817,-2.8587,-2.8587,-2.8587,-2.8522,-2.8118,-2.7175,-2.6973,-2.6414,-2.5453,-2.5312,-2.5312,-2.5312,-2.5312,-2.5312,-2.5312,-2.5312,-2.5312,-2.5312,-2.5312,-2.5312,-2.5312,-2.5312,-2.5312,-2.5312,-2.5241,-2.4945,-2.4192,-2.3475,-2.251,-2.1538,-2.0547,-1.9942,-1.9706,-1.9469,-1.9381,-1.9292,-1.9292,-1.9292,-1.9292,-1.9292,-1.9292,-1.9292,-1.9292,-1.9292,-1.9292,-1.9301,-1.932,-1.9338,-1.9375,-1.9421,-1.9457,-1.9577,-1.9595,-1.9478,-1.9441,-1.8985,-1.8258,-1.7343,-1.6436,-1.5367,-1.4382,-1.3828,-1.3385,-1.3337,-1.3308,-1.3224,-1.3236,-1.3357,-1.3326,-1.3212,-1.329,-1.3429,-1.3405,-1.3308,-4.1588,-4.1588,-4.1588,-4.1588,-4.1588,-4.1588,-4.1107,-4.0324,-4.0045,-3.9103,-3.771,-3.6773,-3.5969,-3.5059,-3.4407,-3.4014,-3.3498,-3.3159,-3.2861,-3.263,-3.2304,-3.2169,-3.2182,-3.2169,-3.2169,-3.2169,-3.2169,-3.2169,-3.2182,-3.2196,-3.2182,-3.2291,-3.2725,-3.2738,-3.2399,-3.2779,-3.2277,-3.1355,-3.0378,-2.9469,-2.8817,-2.8587,-2.86,-2.86,-2.8614,-2.8013,-2.7335,-2.6973,-2.6414,-2.5523,-2.5312,-2.5312,-2.5312,-2.5312,-2.5312,-2.5312,-2.5312,-2.5312,-2.5312,-2.5312,-2.5312,-2.5312,-2.5312,-2.5312,-2.5312,-2.5241,-2.4719,-2.3537,-2.3243,-2.236,-2.1231,-2.0323,-1.9951,-1.9636,-1.939,-1.9381,-1.9292,-1.9292,-1.9292,-1.9292,-1.9311,-1.9356,-1.9402,-1.9448,-1.9448,-1.9412,-1.9494,-1.9595,-1.9586,-1.9586,-1.9641,-1.9714,-1.9861,-2.0008,-1.9789,-1.967,-1.9419,-1.8733,-1.7782,-1.676,-1.5662,-1.4777,-1.4123,-1.3687,-1.3647,-1.358,-1.3544,-1.3525,-1.3544,-1.3532,-1.3507,-1.358,-1.3634,-1.3538,-1.3459,-4.1494,-4.1336,-4.1351,-4.1336,-4.1304,-4.1031,-4.0493,-3.9803,-3.9078,-3.8164,-3.6982,-3.5843,-3.4747,-3.3914,-3.3702,-3.3403,-3.2861,-3.2833,-3.2589,-3.2304,-3.2169,-3.2169,-3.2169,-3.2169,-3.2169,-3.2182,-3.2169,-3.2291,-3.2413,-3.2426,-3.2453,-3.2426,-3.3091,-3.3078,-3.2901,-3.2969,-3.2684,-3.1042,-3.0242,-2.9442,-2.875,-2.8587,-2.8695,-2.8777,-2.8752,-2.8332,-2.7382,-2.7272,-2.6722,-2.5523,-2.5312,-2.5372,-2.5528,-2.5588,-2.5576,-2.5636,-2.5721,-2.5648,-2.5468,-2.5312,-2.5312,-2.5312,-2.5312,-2.5312,-2.5312,-2.5241,-2.4862,-2.3537,-2.3106,-2.2209,-2.1011,-2.0245,-1.9794,-1.9636,-1.9469,-1.9381,-1.9301,-1.9338,-1.9347,-1.9347,-1.9402,-1.954,-1.9586,-1.9641,-1.9622,-1.9558,-1.9659,-1.9842,-1.9916,-1.9943,-1.9971,-2.0072,-2.0163,-2.0301,-2.0098,-1.9883,-1.9554,-1.8963,-1.8072,-1.6881,-1.5513,-1.4874,-1.4417,-1.4178,-1.3839,-1.3912,-1.3912,-1.3803,-1.3719,-1.3809,-1.3863,-1.3797,-1.3773,-1.3688,-1.3646,-4.1225,-4.0672,-4.0656,-4.0656,-4.056,-3.9433,-3.9247,-3.9372,-3.8039,-3.7421,-3.6731,-3.5433,-3.3978,-3.3315,-3.3078,-3.2833,-3.2277,-3.2236,-3.2236,-3.2209,-3.2169,-3.2169,-3.2169,-3.2169,-3.2209,-3.2264,-3.2318,-3.2576,-3.2874,-3.2996,-3.301,-3.3105,-3.3647,-3.381,-3.3688,-3.3485,-3.2494,-3.1056,-3.0269,-2.9631,-2.8912,-2.8641,-2.8831,-2.9265,-2.9307,-2.8919,-2.7963,-2.7824,-2.7107,-2.5539,-2.5528,-2.56,-2.5865,-2.6009,-2.6033,-2.6105,-2.637,-2.6154,-2.5685,-2.5432,-2.5336,-2.5324,-2.5312,-2.5312,-2.5312,-2.5312,-2.4791,-2.3975,-2.3316,-2.2435,-2.1385,-2.0624,-1.9872,-1.9585,-1.9463,-1.9457,-1.9448,-1.9421,-1.943,-1.9412,-1.9522,-1.9705,-1.9989,-2.0099,-2.0026,-1.9962,-2.0053,-2.0237,-2.0457,-2.0503,-2.0448,-2.0484,-2.0521,-2.0473,-2.0437,-2.0121,-1.9635,-1.8883,-1.7968,-1.6639,-1.5134,-1.48,-1.4705,-1.431,-1.4039,-1.4159,-1.4238,-1.4093,-1.4045,-1.4183,-1.4208,-1.4069,-1.4008,-1.396,-1.3918,-4.083,-4.053,-3.9692,-3.9566,-3.9914,-3.944,-3.9124,-3.8867,-3.8116,-3.6817,-3.5493,-3.4228,-3.3213,-3.2731,-3.2508,-3.2426,-3.2196,-3.2182,-3.2169,-3.2169,-3.2169,-3.2169,-3.2169,-3.225,-3.2345,-3.2616,-3.2725,-3.3023,-3.3552,-3.3607,-3.3905,-3.4136,-3.438,-3.4163,-3.4041,-3.362,-3.2264,-3.1015,-3.031,-2.9794,-2.8858,-2.8627,-2.8872,-2.9414,-2.9535,-2.9131,-2.8466,-2.8305,-2.7335,-2.6383,-2.6117,-2.619,-2.625,-2.6466,-2.6586,-2.6622,-2.6911,-2.6562,-2.5985,-2.5745,-2.5661,-2.5348,-2.5312,-2.5312,-2.5312,-2.5312,-2.4862,-2.412,-2.3305,-2.2349,-2.1298,-2.0313,-1.9645,-1.9534,-1.9528,-1.9549,-1.9622,-1.9604,-1.9751,-1.9842,-1.9879,-1.9971,-2.0301,-2.0622,-2.0503,-2.0393,-2.0512,-2.0649,-2.0869,-2.0998,-2.0924,-2.0924,-2.0979,-2.0639,-2.0508,-2.014,-1.9626,-1.8775,-1.7928,-1.6701,-1.5565,-1.5212,-1.5087,-1.457,-1.4147,-1.4177,-1.4214,-1.4274,-1.4298,-1.4286,-1.4292,-1.4262,-1.4226,-1.4153,-1.4093,-4.0356,-3.9882,-3.8934,-3.8776,-3.9155,-3.8795,-3.8529,-3.8276,-3.7606,-3.6238,-3.4158,-3.3311,-3.2722,-3.2323,-3.2182,-3.2196,-3.2182,-3.2169,-3.2169,-3.2169,-3.2169,-3.2169,-3.2223,-3.2399,-3.2698,-3.305,-3.3335,-3.3634,-3.4113,-3.4126,-3.4543,-3.4896,-3.5072,-3.4828,-3.4489,-3.362,-3.2372,-3.088,-3.031,-2.9794,-2.8777,-2.8614,-2.893,-2.9403,-2.9524,-2.9184,-2.8754,-2.8432,-2.7802,-2.6919,-2.6622,-2.6755,-2.6803,-2.6899,-2.7128,-2.7212,-2.7236,-2.7067,-2.6526,-2.5961,-2.5733,-2.5372,-2.5312,-2.5312,-2.5312,-2.5241,-2.4862,-2.3756,-2.301,-2.2113,-2.1068,-2.0098,-1.9645,-1.9515,-1.951,-1.954,-1.976,-1.9833,-2.0099,-2.031,-2.0365,-2.0457,-2.0677,-2.1016,-2.108,-2.0998,-2.108,-2.119,-2.1328,-2.1392,-2.1328,-2.1365,-2.1447,-2.1065,-2.0597,-2.0173,-1.9788,-1.9133,-1.8226,-1.7316,-1.6344,-1.5806,-1.5049,-1.421,-1.393,-1.4081,-1.4093,-1.4039,-1.4147,-1.428,-1.4232,-1.4135,-1.4008,-1.3918,-1.4026,-3.9819,-3.8618,-3.8523,-3.8491,-3.8399,-3.7311,-3.7169,-3.7432,-3.641,-3.5251,-3.4048,-3.3213,-3.2671,-3.2314,-3.2314,-3.2314,-3.2241,-3.2241,-3.2169,-3.2169,-3.2169,-3.2169,-3.2413,-3.2698,-3.3064,-3.32,-3.3647,-3.4231,-3.4814,-3.4814,-3.5167,-3.5384,-3.5438,-3.5343,-3.5465,-3.4448,-3.2698,-3.0771,-3.0446,-2.9618,-2.8885,-2.8668,-2.9093,-2.9535,-2.9701,-2.9353,-2.9048,-2.8813,-2.8087,-2.7206,-2.7103,-2.726,-2.7452,-2.7572,-2.7693,-2.7717,-2.8126,-2.7849,-2.7007,-2.5973,-2.5576,-2.5444,-2.5432,-2.5312,-2.5312,-2.5158,-2.4719,-2.361,-2.2713,-2.1842,-2.0789,-1.996,-1.9645,-1.9682,-1.9712,-1.9797,-2.0044,-2.0218,-2.0493,-2.075,-2.0934,-2.1089,-2.1218,-2.1392,-2.1566,-2.163,-2.1686,-2.1731,-2.1722,-2.1676,-2.1566,-2.1585,-2.1551,-2.0997,-2.0519,-2.0347,-1.994,-1.9265,-1.8324,-1.7113,-1.6359,-1.5766,-1.4806,-1.3915,-1.3713,-1.3863,-1.3815,-1.3743,-1.3851,-1.3936,-1.3954,-1.3876,-1.3749,-1.3676,-1.3755,-3.9329,-3.8476,-3.8017,-3.7828,-3.7796,-3.7395,-3.7285,-3.7058,-3.5961,-3.5124,-3.4662,-3.3659,-3.3072,-3.286,-3.2646,-3.2503,-3.2431,-3.2241,-3.2169,-3.2169,-3.2209,-3.2481,-3.2752,-3.3064,-3.3498,-3.4095,-3.4529,-3.4828,-3.5425,-3.5357,-3.5452,-3.5642,-3.5276,-3.4896,-3.4312,-3.3349,-3.187,-3.0608,-2.9998,-2.9401,-2.875,-2.8994,-2.9416,-3.0033,-2.9984,-2.9813,-2.9479,-2.9148,-2.8439,-2.7649,-2.7645,-2.7849,-2.7909,-2.7957,-2.821,-2.8222,-2.8474,-2.8198,-2.75,-2.6779,-2.6238,-2.5925,-2.5588,-2.5444,-2.5336,-2.4707,-2.412,-2.3434,-2.2466,-2.1655,-2.1046,-1.9976,-1.9645,-2.0136,-2.0273,-2.0448,-2.0649,-2.075,-2.0934,-2.1172,-2.1374,-2.1392,-2.1484,-2.152,-2.1676,-2.1731,-2.1731,-2.1731,-2.1731,-2.1731,-2.1676,-2.1676,-2.1578,-2.0935,-2.0483,-2.0076,-1.9204,-1.8177,-1.7382,-1.6468,-1.5812,-1.5438,-1.4559,-1.364,-1.3635,-1.3622,-1.3574,-1.3525,-1.3501,-1.3532,-1.355,-1.358,-1.3507,-1.3423,-1.3405,-3.876,-3.8128,-3.7686,-3.748,-3.748,-3.7285,-3.7105,-3.6754,-3.5706,-3.5255,-3.4993,-3.3865,-3.3199,-3.3058,-3.2846,-3.2561,-3.2503,-3.23,-3.2169,-3.2209,-3.2426,-3.2698,-3.3023,-3.3498,-3.4109,-3.476,-3.5099,-3.5371,-3.5642,-3.5696,-3.556,-3.5262,-3.4814,-3.4095,-3.3376,-3.2453,-3.1667,-3.0595,-2.9876,-2.9387,-2.9129,-2.9267,-2.9578,-2.9857,-2.9928,-2.9815,-2.963,-2.9213,-2.8814,-2.8264,-2.821,-2.8354,-2.821,-2.827,-2.851,-2.851,-2.8474,-2.8318,-2.7945,-2.7488,-2.6995,-2.6743,-2.6154,-2.5901,-2.572,-2.523,-2.4505,-2.3655,-2.2324,-2.1639,-2.1018,-1.9966,-2.0016,-2.0512,-2.0594,-2.075,-2.097,-2.1053,-2.119,-2.1438,-2.1585,-2.1621,-2.1649,-2.1676,-2.1731,-2.1731,-2.1731,-2.1713,-2.1686,-2.1686,-2.1594,-2.1511,-2.1235,-2.0613,-2.0087,-1.9652,-1.858,-1.7124,-1.6498,-1.6089,-1.5402,-1.4947,-1.4199,-1.3462,-1.341,-1.3344,-1.3338,-1.3308,-1.3206,-1.3145,-1.3133,-1.3169,-1.3224,-1.3218,-1.3175,-3.8112,-3.7528,-3.748,-3.748,-3.7405,-3.6968,-3.6662,-3.6476,-3.5672,-3.5255,-3.4978,-3.3811,-3.3199,-3.2846,-3.2704,-3.2574,-3.2368,-3.2309,-3.2304,-3.2467,-3.2847,-3.3105,-3.358,-3.419,-3.4651,-3.5004,-3.5316,-3.5547,-3.571,-3.5547,-3.5289,-3.4787,-3.4217,-3.3417,-3.2671,-3.1951,-3.1273,-3.031,-2.9767,-2.9442,-2.9347,-2.9564,-2.9717,-2.9771,-2.9674,-2.9378,-2.9061,-2.8712,-2.8554,-2.845,-2.8486,-2.8498,-2.8498,-2.851,-2.851,-2.851,-2.851,-2.8462,-2.8366,-2.7909,-2.7789,-2.7536,-2.7248,-2.7043,-2.6467,-2.5687,-2.4691,-2.3748,-2.2631,-2.1742,-2.0949,-2.068,-2.0438,-2.0613,-2.064,-2.0851,-2.1108,-2.1264,-2.1392,-2.1548,-2.1658,-2.1713,-2.1704,-2.1731,-2.1621,-2.1548,-2.1502,-2.1429,-2.1429,-2.1539,-2.1401,-2.1108,-2.0789,-2.0278,-1.9709,-1.9178,-1.8115,-1.6784,-1.6533,-1.6045,-1.5345,-1.4562,-1.3828,-1.3293,-1.3136,-1.3067,-1.3073,-1.297,-1.2825,-1.2795,-1.288,-1.2886,-1.2976,-1.3043,-1.3043,-3.8112,-3.7496,-3.748,-3.748,-3.7421,-3.6923,-3.6662,-3.6461,-3.5285,-3.4677,-3.4728,-3.3728,-3.3199,-3.3129,-3.2846,-3.2632,-3.2681,-3.2782,-3.2839,-3.3037,-3.3417,-3.3892,-3.4299,-3.4679,-3.5072,-3.5343,-3.5574,-3.5601,-3.5533,-3.5357,-3.4787,-3.4113,-3.3593,-3.2847,-3.2046,-3.1327,-3.0568,-2.9998,-2.9591,-2.9564,-2.9754,-2.9941,-3.0037,-3.0012,-2.9668,-2.9309,-2.9045,-2.8657,-2.851,-2.851,-2.851,-2.851,-2.851,-2.851,-2.851,-2.851,-2.851,-2.8498,-2.8486,-2.8366,-2.8246,-2.8222,-2.8053,-2.7572,-2.683,-2.5761,-2.4746,-2.3913,-2.2736,-2.1681,-2.1259,-2.1022,-2.0952,-2.1062,-2.1071,-2.1126,-2.1355,-2.1475,-2.1585,-2.1502,-2.1621,-2.1566,-2.1585,-2.1566,-2.1456,-2.1355,-2.1245,-2.1135,-2.1117,-2.12,-2.1108,-2.0787,-2.0359,-1.9889,-1.9265,-1.8733,-1.7579,-1.6583,-1.6346,-1.5789,-1.4829,-1.4058,-1.3474,-1.3145,-1.2954,-1.2856,-1.2813,-1.2729,-1.2705,-1.2705,-1.2759,-1.2729,-1.2729,-1.2831,-1.2892,-3.7875,-3.7496,-3.748,-3.7329,-3.686,-3.6024,-3.5642,-3.5449,-3.4795,-3.4476,-3.4312,-3.3604,-3.3199,-3.2988,-3.2789,-3.277,-3.2855,-3.2995,-3.3118,-3.3552,-3.3987,-3.438,-3.476,-3.5018,-3.5194,-3.5398,-3.5316,-3.514,-3.4977,-3.4651,-3.4059,-3.3227,-3.282,-3.2074,-3.1178,-3.0378,-2.9957,-2.9645,-2.9509,-2.9618,-3.0011,-3.0365,-3.0493,-3.0303,-2.9834,-2.9524,-2.9106,-2.8657,-2.851,-2.851,-2.851,-2.851,-2.851,-2.851,-2.851,-2.851,-2.851,-2.851,-2.851,-2.851,-2.8498,-2.851,-2.851,-2.8186,-2.7246,-2.6246,-2.5319,-2.4413,-2.2918,-2.1597,-2.1395,-2.1218,-2.1438,-2.1649,-2.1566,-2.1475,-2.1585,-2.1695,-2.1621,-2.1484,-2.141,-2.1328,-2.131,-2.131,-2.1218,-2.0989,-2.0805,-2.0677,-2.0659,-2.0723,-2.0613,-2.0356,-2.0005,-1.9546,-1.8929,-1.8252,-1.7375,-1.6593,-1.6103,-1.5435,-1.4321,-1.3743,-1.3417,-1.307,-1.2723,-1.2717,-1.2735,-1.2723,-1.2705,-1.2705,-1.2705,-1.2705,-1.2705,-1.2729,-1.2765,-3.748,-3.748,-3.7405,-3.6876,-3.5915,-3.4817,-3.4298,-3.4041,-3.4461,-3.4298,-3.3837,-3.3451,-3.3058,-3.2731,-3.2698,-3.2855,-3.309,-3.3356,-3.3715,-3.4014,-3.4434,-3.4774,-3.4923,-3.5248,-3.495,-3.4814,-3.4556,-3.4204,-3.381,-3.3444,-3.2915,-3.2074,-3.1992,-3.1287,-3.0066,-2.9781,-2.9577,-2.955,-2.9686,-2.993,-3.0444,-3.0858,-3.091,-3.0403,-3.0012,-2.9639,-2.8816,-2.851,-2.851,-2.851,-2.851,-2.851,-2.851,-2.851,-2.851,-2.851,-2.851,-2.851,-2.851,-2.851,-2.851,-2.851,-2.851,-2.8243,-2.7415,-2.6529,-2.5656,-2.4807,-2.3363,-2.2197,-2.1729,-2.1563,-2.163,-2.1713,-2.1658,-2.1621,-2.1667,-2.1612,-2.1365,-2.1218,-2.1062,-2.0979,-2.0897,-2.0879,-2.0796,-2.0576,-2.0429,-2.0283,-2.0173,-2.0218,-2.0053,-1.9779,-1.9552,-1.9062,-1.8331,-1.7688,-1.722,-1.6574,-1.5982,-1.5228,-1.4237,-1.373,-1.3398,-1.3045,-1.2705,-1.2705,-1.2705,-1.2705,-1.2705,-1.2705,-1.2705,-1.2705,-1.2705,-1.2705,-1.2705,-3.748,-3.748,-3.7044,-3.6321,-3.5464,-3.5449,-3.4795,-3.3948,-3.4409,-3.3973,-3.3171,-3.3101,-3.2903,-3.2472,-3.2755,-3.2995,-3.3179,-3.3634,-3.4367,-3.4461,-3.4719,-3.4692,-3.4665,-3.4529,-3.4248,-3.4068,-3.3661,-3.2955,-3.2331,-3.1979,-3.1667,-3.0948,-3.088,-3.0296,-2.9564,-2.9549,-2.9496,-2.9713,-3.0052,-3.0473,-3.0999,-3.0679,-3.0392,-3.0024,-2.9639,-2.9118,-2.851,-2.851,-2.851,-2.851,-2.851,-2.851,-2.851,-2.8498,-2.8498,-2.8498,-2.839,-2.8354,-2.8342,-2.833,-2.8342,-2.8426,-2.8291,-2.7891,-2.7313,-2.667,-2.5913,-2.4957,-2.3953,-2.2765,-2.1998,-2.182,-2.1731,-2.1731,-2.1695,-2.1695,-2.1686,-2.1392,-2.1089,-2.0888,-2.0704,-2.0594,-2.0493,-2.0402,-2.0338,-2.0228,-2.0118,-1.9952,-1.9696,-1.9641,-1.939,-1.9183,-1.9039,-1.8547,-1.7878,-1.7392,-1.6976,-1.6312,-1.565,-1.4894,-1.4146,-1.3555,-1.3045,-1.2875,-1.2705,-1.2705,-1.2705,-1.2705,-1.2705,-1.2705,-1.2705,-1.2705,-1.2705,-1.2705,-1.2705,-3.7285,-3.7405,-3.6738,-3.5834,-3.5008,-3.4861,-3.4259,-3.3534,-3.3796,-3.3437,-3.2632,-3.2761,-3.2704,-3.2241,-3.2535,-3.2915,-3.3118,-3.3675,-3.4014,-3.4285,-3.4448,-3.4329,-3.4113,-3.3797,-3.3403,-3.3091,-3.225,-3.1477,-3.1015,-3.088,-3.069,-3.0147,-3.0011,-2.9889,-2.9496,-2.9509,-2.9781,-3.0296,-3.0622,-3.107,-3.15,-3.1048,-3.0317,-2.9871,-2.9341,-2.8816,-2.851,-2.851,-2.851,-2.851,-2.851,-2.8294,-2.821,-2.8114,-2.7993,-2.7837,-2.7741,-2.7813,-2.7837,-2.7885,-2.7969,-2.7987,-2.7392,-2.6653,-2.6565,-2.585,-2.49,-2.3998,-2.324,-2.2176,-2.1998,-2.183,-2.1731,-2.1731,-2.1475,-2.131,-2.1172,-2.0915,-2.0622,-2.0365,-2.0218,-2.0099,-1.998,-1.9815,-1.976,-1.9751,-1.9659,-1.9687,-1.9421,-1.9213,-1.8993,-1.8683,-1.8612,-1.8201,-1.7635,-1.7221,-1.6812,-1.6147,-1.5484,-1.4734,-1.4068,-1.33,-1.2705,-1.2705,-1.2705,-1.2705,-1.2705,-1.2705,-1.2705,-1.2705,-1.2705,-1.2705,-1.2705,-1.2705,-1.2705,-3.7044,-3.727,-3.6446,-3.5533,-3.4662,-3.3973,-3.3451,-3.2974,-3.3241,-3.296,-3.2444,-3.2632,-3.2503,-3.2314,-3.2304,-3.2671,-3.3064,-3.3498,-3.3715,-3.3865,-3.3865,-3.3715,-3.343,-3.3078,-3.2494,-3.1924,-3.126,-3.0866,-3.054,-3.0486,-3.0283,-2.9699,-2.9591,-2.9604,-2.9591,-2.9726,-3.0079,-3.0785,-3.1246,-3.1415,-3.1522,-3.1381,-3.0545,-2.9871,-2.9341,-2.904,-2.8657,-2.851,-2.851,-2.8438,-2.8366,-2.8017,-2.7765,-2.7609,-2.7428,-2.726,-2.7176,-2.7152,-2.7079,-2.714,-2.7167,-2.7073,-2.6116,-2.5652,-2.552,-2.474,-2.3805,-2.2964,-2.2206,-2.1979,-2.1803,-2.1725,-2.1548,-2.1493,-2.1172,-2.0879,-2.0659,-2.0457,-2.02,-1.9916,-1.9778,-1.9668,-1.9549,-1.9375,-1.932,-1.9301,-1.9292,-1.9292,-1.9292,-1.9222,-1.9073,-1.8683,-1.8362,-1.7959,-1.7383,-1.7057,-1.673,-1.6402,-1.5816,-1.4901,-1.4068,-1.3215,-1.279,-1.2705,-1.2705,-1.2705,-1.2705,-1.2705,-1.2705,-1.2705,-1.2705,-1.2705,-1.2705,-1.2705,-1.2705,-3.7165,-3.6785,-3.6165,-3.5578,-3.4993,-3.4514,-3.407,-3.3673,-3.3685,-3.3367,-3.2775,-3.2646,-3.2503,-3.2196,-3.2725,-3.2969,-3.2928,-3.3281,-3.3661,-3.3919,-3.3295,-3.2915,-3.2521,-3.2087,-3.1355,-3.0961,-3.0812,-3.0866,-3.0486,-3.0405,-3.0378,-3.0174,-3.0174,-3.0201,-3.0228,-3.0364,-3.0581,-3.1219,-3.1307,-3.1352,-3.0777,-3.0633,-3.0482,-2.9871,-2.9184,-2.8803,-2.8498,-2.851,-2.851,-2.839,-2.8102,-2.7645,-2.7272,-2.7067,-2.6923,-2.6755,-2.6671,-2.6695,-2.6659,-2.6659,-2.6701,-2.6353,-2.552,-2.4803,-2.4309,-2.3332,-2.2451,-2.1563,-2.1005,-2.1146,-2.1079,-2.0955,-2.0879,-2.0824,-2.0613,-2.0383,-2.0163,-2.0035,-1.987,-1.965,-1.9467,-1.9421,-1.9402,-1.9311,-1.9311,-1.9292,-1.9292,-1.9292,-1.9292,-1.9222,-1.9073,-1.8674,-1.8201,-1.7546,-1.6976,-1.6894,-1.6648,-1.6484,-1.5982,-1.4734,-1.3808,-1.3215,-1.2784,-1.2705,-1.2705,-1.2705,-1.2705,-1.2705,-1.2705,-1.2705,-1.2705,-1.2705,-1.2699,-1.2705,-1.2705]},{"header":{"parameterUnit":"m.s-1","parameterCategory":1,"la1":31.0,"la2":29.5877,"lo1":-88.7671,"lo2":-86.6584,"dy":0.0162,"dx":0.0185,"nx":115,"ny":88,"refTime":"2026-03-19T12:00:00:Z","depth":0,"parameterNumber":3,"parameterNumberName":"V-component_of_WINDS"},"data":[0.0,0.0,0.0,0.0,0.0,0.0,0.0,0.0,0.0,0.0,0.0,0.0,0.0,0.0,0.0,0.0,0.0,0.0,0.0,0.0,0.0,0.0,0.0,0.0,0.0,0.0,0.0,0.0,0.0,0.0,0.0,0.0,0.0,0.0,0.0,0.0,0.0,0.0,0.0,0.0,0.0,0.0,0.0,0.0,0.0,0.0,0.0,0.0,0.0,0.0,0.0,0.0,0.0,0.0,0.0,0.0,0.0,0.0,0.0,0.0,0.0,0.0,0.0,0.0,0.0,0.0,0.0,0.0,0.0,0.0,0.0,0.0,0.0,0.0,0.0,0.0,0.0,0.0,0.0,0.0,0.0,0.0,0.0,0.0,0.0,0.0,0.0,0.0,0.0,0.0,0.0,0.0,0.0,0.0,0.0,0.0,0.0,0.0,0.0,0.0,0.0,0.0,0.0,0.0,0.0,0.0,0.0,0.0,0.0,0.0,0.0,0.0,0.0,0.0,0.0,0.0,0.0,0.0,0.0,0.0,0.0,0.0,0.0,0.0,0.0,0.0,0.0,0.0,0.0,0.0,0.0,0.0,0.0,0.0,0.0,0.0,0.0,0.0,0.0,0.0,0.0,0.0,0.0,0.0,0.0,0.0,0.0,0.0,0.0,0.0,0.0,0.0,0.0,0.0,0.0,0.0,0.0,0.0,0.0,0.0,0.0,0.0,0.0,0.0,0.0,0.0,0.0,0.0,0.0,0.0,0.0,0.0,0.0,0.0,0.0,0.0,0.0,0.0,0.0,0.0,0.0,0.0,0.0,0.0,0.0,0.0,0.0,0.0,0.0,0.0,0.0,0.0,0.0,0.0,0.0,0.0,0.0,0.0,0.0,0.0,0.0,0.0,0.0,0.0,0.0,0.0,0.0,0.0,0.0,0.0,0.0,0.0,0.0,0.0,0.0,0.0,0.0,0.0,0.0,0.0,0.0,0.0,0.0,0.0,0.0,0.0,0.0,0.0,0.0,0.0,0.0,0.0,0.0,0.0,0.0,0.0,0.0,0.0,0.0,0.0,0.0,0.0,0.0,0.0,0.0,0.0,0.0,0.0,0.0,0.0,0.0,0.0,0.0,0.0,0.0,0.0,0.0,0.0,0.0,0.0,0.0,0.0,0.0,0.0,0.0,0.0,0.0,0.0,0.0,0.0,0.0,0.0,0.0,0.0,0.0,0.0,0.0,0.0,0.0,0.0,0.0,0.0,0.0,0.0,0.0,0.0,0.0,0.0,0.0,0.0,0.0,0.0,0.0,0.0,0.0,0.0,0.0,0.0,0.0,0.0,0.0,0.0,0.0,0.0,0.0,0.0,0.0,0.0,0.0,0.0,0.0,0.0,0.0,0.0,0.0,0.0,0.0,0.0,0.0,0.0,0.0,0.0,0.0,0.0,0.0,0.0,0.0,0.0,0.0,0.0,0.0,0.0,0.0,0.0,0.0,0.0,0.0,0.0,0.0,0.0,0.0,0.0,0.0,0.0,0.0,0.0,0.0,0.0,0.0,0.0,0.0,0.0,0.0,0.0,0.0,0.0,0.0,0.0,0.0,0.0,0.0,0.0,0.0,0.0,0.0,0.0,0.0,0.0,0.0,0.0,0.0,0.0,0.0,0.0,0.0,0.0,0.0,0.0,0.0,0.0,0.0,0.0,0.0,0.0,0.0,0.0,0.0,0.0,0.0,0.0,0.0,0.0,0.0,0.0,0.0,0.0,0.0,0.0,0.0,0.0,0.0,0.0,0.0,0.0,0.0,0.0,0.0,0.0,0.0,0.0,0.0,0.0,0.0,0.0,0.0,0.0,0.0,0.0,0.0,0.0,0.0,0.0,0.0,0.0,0.0,0.0,0.0,0.0,0.0,0.0,0.0,0.0,0.0,0.0,0.0,0.0,0.0,0.0,0.0,0.0,0.0,0.0,0.0,0.0,0.0,0.0,0.0,0.0,0.0,0.0,0.0,0.0,0.0,0.0,0.0,0.0,0.0,0.0,0.0,0.0,0.0,0.0,0.0,0.0,0.0,0.0,0.0,0.0,0.0,0.0,0.0,0.0,0.0,0.0,0.0,0.0,0.0,0.0,0.0,0.0,0.0,0.0,0.0,0.0,0.0,0.0,0.0,0.0,0.0,0.0,0.0,0.0,0.0,0.0,0.0,0.0,0.0,0.0,0.0,0.0,0.0,0.0,0.0,0.0,0.0,0.0,0.0,0.0,0.0,0.0,0.0,0.0,0.0,0.0,0.0,0.0,0.0,0.0,0.0,0.0,0.0,0.0,0.0,0.0,0.0,0.0,0.0,0.0,0.0,0.0,0.0,0.0,0.0,0.0,0.0,0.0,0.0,0.0,0.0,0.0,0.0,0.0,0.0,0.0,0.0,0.0,0.0,0.0,0.0,0.0,0.0,0.0,0.0,0.0,0.0,0.0,0.0,0.0,0.0,0.0,0.0,0.0,0.0,0.0,0.0,0.0,0.0,0.0,0.0,0.0,0.0,0.0,0.0,0.0,0.0,0.0,0.0,0.0,0.0,0.0,0.0,0.0,0.0,0.0,0.0,0.0,0.0,0.0,0.0,0.0,0.0,0.0,0.0,0.0,0.0,0.0,0.0,0.0,0.0,0.0,0.0,0.0,0.0,0.0,0.0,0.0,0.0,0.0,0.0,0.0,0.0,0.0,0.0,0.0,0.0,0.0,0.0,0.0,0.0,0.0,0.0,0.0,0.0,0.0,0.0,0.0,0.0,0.0,0.0,0.0,0.0,0.0,0.0,0.0,0.0,0.0,0.0,0.0,0.0,0.0,0.0,0.0,0.0,0.0,0.0,0.0,0.0,0.0,0.0,0.0,0.0,0.0,0.0,0.0,0.0,0.0,0.0,0.0,0.0,0.0,0.0,0.0,0.0,0.0,0.0,0.0,0.0,0.0,0.0,0.0,0.0,0.0,0.0,0.0,0.0,0.0,0.0,0.0,0.0,0.0,0.0,0.0,0.0,0.0,0.0,0.0,0.0,0.0,0.0,0.0,0.0,0.0,0.0,0.0,0.0,0.0,0.0,0.0,0.0,0.0,0.0,0.0,0.0,0.0,0.0,0.0,0.0,0.0,0.0,0.0,0.0,0.0,0.0,0.0,0.0,0.0,0.0,0.0,0.0,0.0,0.0,0.0,0.0,0.0,0.0,0.0,0.0,0.0,0.0,0.0,0.0,0.0,0.0,0.0,0.0,0.0,0.0,0.0,0.0,0.0,0.0,0.0,0.0,0.0,0.0,0.0,0.0,0.0,0.0,0.0,0.0,0.0,0.0,0.0,0.0,0.0,0.0,0.0,0.0,0.0,0.0,0.0,0.0,0.0,0.0,0.0,0.0,0.0,0.0,0.0,0.0,0.0,0.0,0.0,0.0,0.0,0.0,0.0,0.0,0.0,0.0,0.0,0.0,0.0,0.0,0.0,0.0,0.0,0.0,0.0,0.0,0.0,0.0,0.0,0.0,0.0,0.0,0.0,0.0,0.0,0.0,0.0,0.0,0.0,0.0,0.0,0.0,0.0,0.0,0.0,0.0,0.0,0.0,0.0,0.0,0.0,0.0,0.0,0.0,0.0,0.0,0.0,0.0,0.0,0.0,0.0,0.0,0.0,0.0,0.0,0.0,0.0,0.0,0.0,0.0,0.0,0.0,0.0,0.0,0.0,0.0,0.0,0.0,0.0,0.0,0.0,0.0,0.0,0.0,0.0,0.0,0.0,0.0,0.0,0.0,0.0,0.0,0.0,0.0,0.0,0.0,0.0,0.0,0.0,0.0,0.0,0.0,0.0,0.0,0.0,0.0,0.0,0.0,0.0,0.0,0.0,0.0,0.0,0.0,0.0,0.0,0.0,0.0,0.0,0.0,0.0,0.0,0.0,0.0,0.0,0.0,0.0,0.0,0.0,0.0,0.0,0.0,0.0,0.0,0.0,0.0,0.0,0.0,0.0,0.0,0.0,0.0,0.0,0.0,0.0,0.0,0.0,0.0,0.0,0.0,0.0,0.0,0.0,0.0,0.0,0.0,0.0,0.0,0.0,0.0,0.0,0.0,0.0,0.0,0.0,0.0,0.0,0.0,0.0,0.0,0.0,0.0,0.0,0.0,0.0,0.0,0.0,0.0,0.0,0.0,0.0,0.0,0.0,0.0,0.0,0.0,0.0,0.0,0.0,0.0,0.0,0.0,0.0,0.0,0.0,0.0,0.0,0.0,0.0,0.0,0.0,-1.3486,0.0,0.0,0.0,0.0,0.0,0.0,0.0,0.0,0.0,0.0,0.0,0.0,0.0,0.0,0.0,0.0,0.0,0.0,0.0,0.0,0.0,0.0,0.0,0.0,0.0,0.0,0.0,0.0,0.0,0.0,0.0,0.0,0.0,0.0,0.0,0.0,0.0,0.0,0.0,0.0,0.0,0.0,0.0,0.0,0.0,0.0,0.0,0.0,0.0,0.0,0.0,0.0,0.0,0.0,0.0,0.0,0.0,0.0,0.0,0.0,0.0,0.0,0.0,0.0,0.0,0.0,0.0,0.0,0.0,0.0,0.0,0.0,0.0,0.0,0.0,0.0,0.0,0.0,0.0,0.0,0.0,0.0,0.0,0.0,0.0,0.0,0.0,0.0,0.0,0.0,0.0,0.0,0.0,0.0,0.0,0.0,0.0,0.0,0.0,0.0,0.0,0.0,0.0,0.0,0.0,0.0,0.0,0.0,0.0,0.0,-1.2844,-1.3279,-1.2855,-1.2937,-1.3569,0.0,0.0,0.0,0.0,0.0,0.0,0.0,0.0,0.0,0.0,0.0,0.0,0.0,0.0,0.0,0.0,0.0,0.0,0.0,0.0,0.0,0.0,0.0,0.0,0.0,0.0,0.0,0.0,0.0,0.0,0.0,0.0,0.0,0.0,0.0,0.0,0.0,0.0,0.0,0.0,0.0,0.0,0.0,0.0,0.0,0.0,0.0,0.0,0.0,0.0,0.0,0.0,0.0,0.0,0.0,0.0,0.0,0.0,0.0,0.0,0.0,0.0,0.0,0.0,0.0,0.0,0.0,0.0,0.0,0.0,0.0,0.0,0.0,0.0,0.0,0.0,0.0,0.0,0.0,0.0,0.0,0.0,0.0,0.0,0.0,0.0,0.0,0.0,0.0,0.0,0.0,0.0,0.0,0.0,0.0,0.0,0.0,0.0,0.0,0.0,0.0,0.0,0.0,0.0,0.0,0.0,0.0,0.0,0.0,0.0,0.0,0.0,-1.3227,-1.3047,-1.3445,0.0,0.0,0.0,0.0,0.0,0.0,0.0,0.0,0.0,0.0,0.0,0.0,0.0,0.0,0.0,0.0,0.0,0.0,0.0,0.0,0.0,0.0,0.0,0.0,0.0,0.0,0.0,0.0,0.0,0.0,0.0,0.0,0.0,0.0,0.0,0.0,0.0,0.0,0.0,0.0,0.0,0.0,0.0,0.0,0.0,0.0,0.0,0.0,0.0,0.0,0.0,0.0,0.0,0.0,0.0,0.0,0.0,0.0,0.0,0.0,0.0,0.0,0.0,0.0,0.0,0.0,0.0,0.0,0.0,0.0,0.0,0.0,0.0,0.0,0.0,0.0,0.0,0.0,0.0,0.0,0.0,0.0,0.0,0.0,0.0,0.0,0.0,0.0,0.0,0.0,0.0,0.0,0.0,0.0,0.0,0.0,0.0,0.0,0.0,0.0,0.0,0.0,0.0,0.0,0.0,0.0,0.0,0.0,0.0,0.0,-1.3341,-1.42,-1.3382,0.0,-1.2944,0.0,0.0,0.0,0.0,0.0,0.0,0.0,0.0,0.0,0.0,0.0,0.0,0.0,0.0,0.0,0.0,0.0,0.0,0.0,0.0,0.0,0.0,0.0,0.0,0.0,0.0,0.0,0.0,0.0,0.0,0.0,0.0,0.0,0.0,0.0,0.0,0.0,0.0,0.0,0.0,0.0,0.0,0.0,0.0,0.0,0.0,0.0,0.0,0.0,0.0,0.0,0.0,0.0,0.0,0.0,0.0,0.0,0.0,0.0,0.0,0.0,0.0,0.0,0.0,0.0,0.0,0.0,0.0,0.0,0.0,0.0,0.0,0.0,0.0,0.0,0.0,0.0,0.0,0.0,0.0,0.0,0.0,0.0,0.0,0.0,0.0,0.0,0.0,0.0,0.0,0.0,0.0,0.0,0.0,0.0,0.0,0.0,0.0,0.0,0.0,0.0,0.0,0.0,0.0,0.0,0.0,0.0,0.0,0.0,0.0,0.0,-1.3879,-1.3545,-1.3286,0.0,0.0,0.0,0.0,0.0,0.0,0.0,0.0,0.0,0.0,0.0,0.0,0.0,0.0,0.0,0.0,0.0,0.0,0.0,0.0,0.0,0.0,0.0,0.0,0.0,0.0,0.0,0.0,0.0,0.0,0.0,0.0,0.0,0.0,0.0,0.0,0.0,0.0,0.0,0.0,0.0,0.0,0.0,0.0,0.0,0.0,0.0,0.0,0.0,0.0,0.0,0.0,0.0,0.0,0.0,0.0,0.0,0.0,0.0,0.0,0.0,0.0,0.0,0.0,0.0,0.0,0.0,0.0,0.0,0.0,0.0,0.0,0.0,0.0,0.0,0.0,0.0,0.0,0.0,0.0,0.0,0.0,0.0,0.0,0.0,0.0,0.0,0.0,0.0,0.0,0.0,0.0,0.0,0.0,0.0,0.0,0.0,0.0,0.0,0.0,0.0,0.0,0.0,0.0,0.0,0.0,0.0,0.0,0.0,0.0,-1.3788,0.0,-1.3424,-1.3595,-1.3431,-1.299,0.0,0.0,0.0,0.0,0.0,0.0,0.0,0.0,0.0,0.0,0.0,0.0,0.0,0.0,0.0,0.0,0.0,0.0,0.0,0.0,0.0,0.0,0.0,0.0,0.0,0.0,0.0,0.0,0.0,0.0,0.0,0.0,0.0,0.0,0.0,0.0,0.0,0.0,0.0,0.0,0.0,0.0,0.0,0.0,0.0,0.0,0.0,0.0,0.0,0.0,0.0,0.0,0.0,0.0,0.0,0.0,0.0,0.0,0.0,0.0,0.0,0.0,0.0,0.0,0.0,0.0,0.0,0.0,0.0,0.0,0.0,0.0,0.0,0.0,0.0,0.0,0.0,0.0,0.0,0.0,0.0,0.0,0.0,0.0,0.0,0.0,0.0,0.0,0.0,0.0,0.0,0.0,0.0,0.0,0.0,0.0,0.0,0.0,0.0,0.0,0.0,0.0,0.0,0.0,0.0,0.0,0.0,0.0,0.0,-1.4196,-1.3657,-1.3,-1.3362,-1.3184,0.0,0.0,0.0,0.0,0.0,0.0,0.0,0.0,0.0,0.0,0.0,0.0,0.0,0.0,0.0,0.0,0.0,0.0,0.0,0.0,0.0,0.0,0.0,0.0,0.0,0.0,0.0,0.0,0.0,0.0,0.0,0.0,0.0,0.0,0.0,0.0,0.0,0.0,0.0,0.0,0.0,0.0,0.0,0.0,0.0,0.0,0.0,0.0,0.0,0.0,0.0,0.0,0.0,0.0,0.0,0.0,0.0,0.0,0.0,0.0,0.0,0.0,0.0,0.0,0.0,0.0,0.0,0.0,0.0,0.0,0.0,0.0,0.0,0.0,0.0,0.0,0.0,0.0,0.0,0.0,0.0,0.0,0.0,0.0,0.0,0.0,0.0,0.0,0.0,0.0,0.0,0.0,0.0,0.0,0.0,0.0,0.0,0.0,0.0,0.0,0.0,0.0,0.0,0.0,0.0,0.0,0.0,0.0,0.0,-1.4222,-1.3611,-1.334,-1.3341,-1.3118,-1.2949,0.0,0.0,0.0,0.0,0.0,0.0,0.0,0.0,0.0,0.0,0.0,0.0,0.0,0.0,0.0,0.0,0.0,0.0,0.0,0.0,0.0,0.0,0.0,0.0,0.0,0.0,0.0,0.0,0.0,0.0,0.0,0.0,0.0,0.0,0.0,0.0,0.0,0.0,0.0,0.0,0.0,0.0,0.0,0.0,0.0,0.0,0.0,0.0,0.0,0.0,0.0,0.0,0.0,0.0,0.0,0.0,0.0,0.0,0.0,0.0,0.0,0.0,0.0,0.0,0.0,0.0,0.0,0.0,0.0,0.0,0.0,0.0,0.0,0.0,0.0,0.0,0.0,0.0,0.0,0.0,0.0,0.0,0.0,0.0,0.0,0.0,0.0,0.0,0.0,0.0,0.0,0.0,0.0,0.0,0.0,0.0,0.0,0.0,0.0,0.0,0.0,0.0,0.0,0.0,0.0,0.0,0.0,0.0,0.0,-1.3868,0.0,-1.3165,0.0,-1.2925,-1.2836,0.0,0.0,0.0,0.0,0.0,0.0,0.0,0.0,0.0,0.0,0.0,0.0,0.0,0.0,0.0,0.0,0.0,0.0,0.0,0.0,0.0,0.0,0.0,0.0,0.0,0.0,0.0,0.0,0.0,0.0,0.0,0.0,0.0,0.0,0.0,0.0,0.0,0.0,0.0,0.0,0.0,0.0,0.0,0.0,0.0,0.0,0.0,0.0,0.0,0.0,0.0,0.0,0.0,0.0,0.0,0.0,0.0,0.0,0.0,0.0,0.0,0.0,0.0,0.0,0.0,0.0,0.0,0.0,0.0,0.0,0.0,0.0,0.0,0.0,0.0,0.0,0.0,0.0,0.0,0.0,0.0,0.0,0.0,0.0,0.0,0.0,0.0,0.0,0.0,0.0,0.0,0.0,0.0,0.0,0.0,0.0,0.0,0.0,0.0,0.0,0.0,0.0,0.0,0.0,0.0,0.0,0.0,0.0,-1.4456,-1.3641,-1.3594,-1.3186,-1.2401,-1.291,-1.2931,0.0,0.0,0.0,0.0,0.0,0.0,0.0,0.0,0.0,0.0,0.0,0.0,0.0,0.0,0.0,0.0,0.0,0.0,0.0,0.0,0.0,0.0,0.0,0.0,0.0,0.0,0.0,0.0,0.0,0.0,0.0,0.0,0.0,0.0,0.0,0.0,0.0,0.0,0.0,0.0,0.0,0.0,0.0,0.0,0.0,0.0,0.0,0.0,0.0,0.0,0.0,0.0,0.0,0.0,0.0,0.0,0.0,0.0,0.0,0.0,0.0,0.0,0.0,0.0,0.0,0.0,0.0,0.0,0.0,0.0,0.0,0.0,0.0,0.0,0.0,0.0,0.0,0.0,0.0,0.0,0.0,0.0,0.0,0.0,0.0,0.0,0.0,0.0,0.0,0.0,0.0,0.0,0.0,0.0,0.0,0.0,0.0,0.0,0.0,0.0,0.0,0.0,0.0,0.0,0.0,0.0,0.0,0.0,0.0,-1.3608,-1.3491,-1.346,-1.3678,-1.3233,-1.3211,0.0,0.0,0.0,0.0,0.0,0.0,0.0,0.0,0.0,0.0,0.0,0.0,0.0,0.0,0.0,0.0,0.0,0.0,0.0,0.0,0.0,0.0,0.0,0.0,0.0,0.0,0.0,0.0,0.0,0.0,0.0,0.0,0.0,0.0,0.0,0.0,0.0,0.0,0.0,0.0,0.0,0.0,0.0,0.0,0.0,0.0,0.0,0.0,0.0,0.0,0.0,0.0,0.0,0.0,0.0,0.0,0.0,0.0,0.0,0.0,0.0,0.0,0.0,0.0,0.0,0.0,0.0,0.0,0.0,0.0,0.0,0.0,0.0,0.0,0.0,0.0,0.0,0.0,0.0,0.0,0.0,0.0,0.0,0.0,0.0,0.0,0.0,0.0,0.0,0.0,0.0,0.0,0.0,0.0,0.0,0.0,0.0,0.0,0.0,0.0,0.0,0.0,0.0,0.0,0.0,0.0,0.0,0.0,0.0,-1.5372,-1.4771,-1.4514,-1.4641,-1.4255,-1.4132,-1.431,0.0,0.0,0.0,0.0,0.0,0.0,0.0,0.0,0.0,0.0,0.0,0.0,0.0,0.0,0.0,0.0,0.0,0.0,0.0,0.0,0.0,0.0,0.0,0.0,0.0,0.0,0.0,0.0,0.0,0.0,0.0,0.0,0.0,0.0,0.0,0.0,0.0,0.0,0.0,0.0,0.0,0.0,0.0,0.0,0.0,0.0,0.0,0.0,0.0,0.0,0.0,0.0,0.0,0.0,0.0,0.0,0.0,0.0,0.0,0.0,0.0,0.0,0.0,0.0,0.0,0.0,0.0,0.0,0.0,0.0,0.0,0.0,0.0,0.0,0.0,0.0,0.0,0.0,0.0,0.0,0.0,0.0,0.0,0.0,0.0,0.0,0.0,0.0,0.0,0.0,0.0,0.0,0.0,0.0,0.0,0.0,0.0,0.0,0.0,0.0,0.0,0.0,0.0,0.0,0.0,0.0,0.0,0.0,-1.8507,-1.7416,-1.6339,-1.5492,-1.5827,-1.5563,0.0,0.0,0.0,0.0,0.0,0.0,0.0,0.0,0.0,0.0,0.0,0.0,0.0,0.0,0.0,0.0,0.0,0.0,0.0,0.0,0.0,0.0,0.0,0.0,0.0,0.0,0.0,0.0,0.0,0.0,0.0,0.0,0.0,0.0,0.0,0.0,0.0,0.0,0.0,0.0,0.0,0.0,0.0,0.0,0.0,0.0,0.0,0.0,0.0,0.0,0.0,0.0,0.0,0.0,0.0,0.0,0.0,0.0,0.0,0.0,0.0,0.0,0.0,0.0,0.0,0.0,0.0,0.0,0.0,0.0,0.0,0.0,0.0,0.0,0.0,0.0,0.0,0.0,0.0,0.0,0.0,0.0,0.0,0.0,0.0,0.0,0.0,0.0,0.0,0.0,0.0,0.0,0.0,0.0,0.0,0.0,0.0,0.0,0.0,0.0,0.0,0.0,0.0,0.0,0.0,0.0,0.0,0.0,0.0,-2.011,-2.1113,-2.036,-1.7908,-1.7359,-1.664,0.0,0.0,0.0,0.0,0.0,0.0,0.0,0.0,0.0,0.0,0.0,0.0,0.0,0.0,0.0,0.0,0.0,0.0,0.0,0.0,0.0,0.0,0.0,0.0,0.0,0.0,0.0,0.0,0.0,0.0,0.0,0.0,0.0,0.0,0.0,0.0,0.0,0.0,0.0,0.0,0.0,0.0,0.0,0.0,0.0,0.0,0.0,0.0,0.0,0.0,0.0,0.0,0.0,0.0,0.0,0.0,0.0,0.0,0.0,0.0,0.0,0.0,0.0,0.0,0.0,0.0,0.0,0.0,0.0,0.0,0.0,0.0,0.0,0.0,0.0,0.0,0.0,0.0,0.0,0.0,0.0,0.0,0.0,0.0,0.0,0.0,0.0,0.0,0.0,0.0,0.0,0.0,0.0,0.0,0.0,0.0,0.0,0.0,0.0,0.0,0.0,0.0,0.0,0.0,0.0,0.0,0.0,0.0,-2.0263,-2.1437,-2.3174,-2.3216,-2.1375,-2.0474,-1.8946,0.0,0.0,0.0,0.0,0.0,0.0,0.0,0.0,0.0,0.0,0.0,0.0,0.0,0.0,0.0,0.0,0.0,0.0,0.0,0.0,0.0,0.0,0.0,0.0,0.0,0.0,0.0,0.0,0.0,0.0,0.0,0.0,0.0,0.0,0.0,0.0,0.0,0.0,0.0,0.0,0.0,0.0,0.0,0.0,0.0,0.0,0.0,0.0,0.0,0.0,0.0,0.0,0.0,0.0,0.0,0.0,0.0,0.0,0.0,0.0,0.0,0.0,0.0,0.0,0.0,0.0,0.0,0.0,0.0,0.0,0.0,0.0,0.0,0.0,0.0,0.0,0.0,0.0,0.0,0.0,0.0,0.0,0.0,0.0,0.0,0.0,0.0,0.0,0.0,0.0,0.0,0.0,0.0,0.0,0.0,0.0,0.0,0.0,0.0,0.0,0.0,0.0,0.0,0.0,0.0,0.0,0.0,0.0,-2.1419,-2.2479,-2.4295,-2.5145,-2.4949,-2.3829,-2.1492,0.0,0.0,0.0,0.0,0.0,0.0,0.0,0.0,0.0,0.0,0.0,0.0,0.0,0.0,0.0,0.0,0.0,0.0,0.0,0.0,0.0,0.0,0.0,0.0,0.0,0.0,0.0,0.0,0.0,0.0,0.0,0.0,0.0,0.0,0.0,0.0,0.0,0.0,0.0,0.0,0.0,0.0,0.0,0.0,0.0,0.0,0.0,0.0,0.0,0.0,0.0,0.0,0.0,0.0,0.0,0.0,0.0,0.0,0.0,0.0,0.0,0.0,0.0,0.0,0.0,0.0,0.0,0.0,0.0,0.0,0.0,0.0,0.0,0.0,0.0,0.0,0.0,0.0,0.0,0.0,0.0,0.0,0.0,0.0,0.0,0.0,0.0,0.0,0.0,0.0,0.0,0.0,0.0,0.0,0.0,0.0,0.0,0.0,0.0,0.0,0.0,0.0,0.0,0.0,0.0,0.0,0.0,0.0,-2.2335,-2.308,-2.5628,-2.6334,-2.5061,-2.2968,-2.1082,0.0,0.0,0.0,0.0,0.0,0.0,0.0,0.0,0.0,0.0,0.0,0.0,0.0,0.0,0.0,0.0,0.0,0.0,0.0,0.0,0.0,0.0,0.0,0.0,0.0,0.0,0.0,0.0,0.0,0.0,0.0,0.0,0.0,0.0,0.0,0.0,0.0,0.0,0.0,0.0,0.0,0.0,0.0,0.0,0.0,0.0,0.0,0.0,-1.8145,0.0,0.0,0.0,0.0,0.0,0.0,0.0,0.0,0.0,0.0,0.0,0.0,0.0,0.0,0.0,0.0,0.0,0.0,0.0,0.0,0.0,0.0,0.0,0.0,0.0,0.0,0.0,0.0,0.0,0.0,0.0,0.0,0.0,0.0,0.0,0.0,0.0,0.0,0.0,0.0,0.0,0.0,0.0,0.0,0.0,0.0,0.0,0.0,0.0,0.0,0.0,0.0,0.0,0.0,0.0,0.0,0.0,0.0,0.0,-2.2662,-2.3276,-2.6033,-2.6974,-2.5821,-2.3799,-2.1812,0.0,0.0,0.0,0.0,0.0,0.0,0.0,0.0,0.0,0.0,0.0,0.0,0.0,0.0,0.0,0.0,0.0,0.0,0.0,0.0,0.0,0.0,0.0,0.0,0.0,0.0,0.0,0.0,0.0,0.0,0.0,0.0,0.0,0.0,0.0,0.0,0.0,0.0,0.0,0.0,0.0,0.0,0.0,0.0,0.0,0.0,0.0,0.0,0.0,0.0,0.0,0.0,0.0,0.0,0.0,0.0,0.0,0.0,0.0,0.0,0.0,0.0,0.0,0.0,0.0,0.0,0.0,0.0,0.0,0.0,0.0,0.0,0.0,0.0,0.0,0.0,0.0,0.0,0.0,0.0,0.0,0.0,0.0,0.0,0.0,0.0,0.0,0.0,0.0,0.0,0.0,0.0,0.0,0.0,0.0,0.0,0.0,0.0,0.0,0.0,0.0,0.0,0.0,0.0,0.0,0.0,0.0,-2.0492,-2.2753,-2.355,-2.6125,-2.7223,-2.6543,-2.5053,-2.2897,-2.0061,0.0,0.0,0.0,0.0,0.0,0.0,0.0,0.0,0.0,0.0,0.0,0.0,0.0,0.0,0.0,0.0,0.0,0.0,0.0,0.0,0.0,0.0,0.0,0.0,0.0,0.0,0.0,0.0,0.0,0.0,0.0,0.0,0.0,0.0,0.0,0.0,0.0,0.0,-1.4833,-1.7332,0.0,0.0,0.0,0.0,0.0,0.0,0.0,0.0,-1.9831,0.0,0.0,0.0,0.0,0.0,0.0,0.0,0.0,0.0,0.0,0.0,0.0,0.0,0.0,0.0,0.0,0.0,0.0,0.0,0.0,0.0,0.0,0.0,0.0,0.0,0.0,0.0,0.0,0.0,0.0,0.0,0.0,0.0,0.0,0.0,0.0,0.0,0.0,0.0,0.0,0.0,0.0,0.0,0.0,0.0,0.0,0.0,0.0,0.0,0.0,0.0,0.0,0.0,0.0,0.0,0.0,-1.8479,-2.1054,-2.3175,-2.4661,-2.6543,-2.7027,-2.6007,-2.5223,-2.3472,-2.0686,0.0,0.0,0.0,0.0,0.0,0.0,0.0,0.0,0.0,0.0,0.0,0.0,0.0,0.0,0.0,0.0,0.0,0.0,0.0,0.0,0.0,0.0,0.0,0.0,0.0,0.0,0.0,0.0,0.0,0.0,0.0,0.0,0.0,0.0,0.0,0.0,0.0,0.0,0.0,-1.8943,-2.0677,0.0,0.0,0.0,0.0,0.0,0.0,0.0,0.0,-1.864,0.0,0.0,0.0,0.0,0.0,0.0,0.0,0.0,0.0,0.0,0.0,0.0,0.0,0.0,0.0,0.0,0.0,0.0,0.0,0.0,0.0,0.0,0.0,0.0,0.0,0.0,0.0,0.0,0.0,0.0,0.0,0.0,0.0,0.0,0.0,0.0,0.0,0.0,0.0,0.0,0.0,0.0,0.0,0.0,0.0,0.0,0.0,0.0,0.0,0.0,0.0,0.0,0.0,0.0,0.0,-1.8911,-2.1485,-2.3511,-2.4949,-2.636,-2.6687,-2.5837,-2.4674,-2.2988,0.0,0.0,0.0,0.0,0.0,0.0,0.0,0.0,0.0,0.0,0.0,0.0,0.0,0.0,0.0,0.0,0.0,0.0,0.0,0.0,0.0,0.0,0.0,0.0,0.0,0.0,0.0,0.0,0.0,0.0,0.0,0.0,0.0,0.0,0.0,0.0,0.0,0.0,0.0,0.0,-2.0032,-2.1198,-2.189,0.0,0.0,0.0,0.0,0.0,0.0,-2.0911,-2.005,0.0,0.0,0.0,0.0,0.0,0.0,0.0,0.0,0.0,0.0,0.0,0.0,0.0,0.0,0.0,0.0,0.0,0.0,0.0,0.0,0.0,0.0,0.0,0.0,0.0,0.0,0.0,0.0,0.0,0.0,0.0,0.0,0.0,0.0,0.0,0.0,0.0,0.0,0.0,0.0,0.0,0.0,0.0,0.0,0.0,0.0,0.0,0.0,0.0,0.0,0.0,0.0,0.0,0.0,0.0,-1.9107,-2.1812,-2.3838,-2.5105,-2.6138,-2.6399,-2.5824,-2.4243,-2.2544,0.0,0.0,0.0,0.0,0.0,0.0,0.0,0.0,0.0,0.0,0.0,0.0,0.0,0.0,0.0,0.0,0.0,0.0,0.0,0.0,0.0,0.0,0.0,0.0,0.0,0.0,0.0,0.0,0.0,0.0,0.0,0.0,0.0,0.0,0.0,0.0,0.0,0.0,0.0,0.0,0.0,-2.1959,-2.25,-2.2108,0.0,0.0,0.0,0.0,-2.2436,-2.2246,0.0,0.0,0.0,0.0,0.0,0.0,0.0,0.0,0.0,0.0,0.0,0.0,0.0,0.0,0.0,0.0,0.0,0.0,0.0,0.0,0.0,0.0,0.0,0.0,0.0,0.0,0.0,0.0,0.0,0.0,0.0,0.0,0.0,0.0,0.0,0.0,0.0,0.0,0.0,0.0,0.0,0.0,0.0,0.0,0.0,0.0,0.0,0.0,0.0,0.0,0.0,0.0,0.0,0.0,0.0,0.0,-1.9695,-2.2021,-2.4034,-2.5641,-2.6347,-2.6412,-2.5837,-2.4648,-2.2962,0.0,0.0,0.0,0.0,0.0,0.0,0.0,0.0,0.0,0.0,0.0,0.0,0.0,0.0,0.0,0.0,0.0,0.0,0.0,0.0,0.0,0.0,0.0,0.0,0.0,0.0,0.0,0.0,0.0,0.0,0.0,0.0,0.0,0.0,0.0,0.0,0.0,0.0,0.0,0.0,0.0,-2.4002,-2.275,-2.2563,-2.2341,0.0,0.0,0.0,-2.1832,-2.2746,0.0,0.0,0.0,0.0,0.0,0.0,0.0,0.0,0.0,0.0,0.0,0.0,0.0,0.0,0.0,0.0,0.0,0.0,0.0,0.0,0.0,0.0,0.0,0.0,0.0,0.0,0.0,0.0,0.0,0.0,0.0,0.0,0.0,0.0,0.0,0.0,0.0,0.0,0.0,0.0,0.0,0.0,0.0,0.0,0.0,0.0,0.0,0.0,0.0,0.0,0.0,0.0,0.0,0.0,0.0,-1.7669,-2.0257,-2.2557,-2.4413,-2.5772,-2.6073,-2.6086,-2.5837,-2.3759,-2.1864,0.0,0.0,0.0,0.0,0.0,0.0,0.0,0.0,0.0,0.0,0.0,0.0,0.0,0.0,0.0,0.0,0.0,0.0,0.0,0.0,0.0,0.0,0.0,0.0,0.0,0.0,0.0,0.0,0.0,0.0,0.0,0.0,0.0,0.0,0.0,0.0,0.0,0.0,0.0,0.0,0.0,0.0,-2.45,-2.4253,0.0,0.0,0.0,-2.4902,-2.3712,0.0,0.0,0.0,0.0,0.0,0.0,0.0,0.0,0.0,0.0,0.0,0.0,0.0,0.0,0.0,0.0,0.0,0.0,0.0,0.0,0.0,0.0,0.0,0.0,0.0,0.0,0.0,0.0,0.0,0.0,0.0,0.0,0.0,0.0,0.0,0.0,0.0,0.0,0.0,0.0,0.0,0.0,0.0,0.0,0.0,0.0,0.0,0.0,0.0,0.0,0.0,0.0,0.0,0.0,0.0,0.0,0.0,-2.0673,-2.2936,-2.4674,-2.5772,-2.5811,-2.5811,-2.5772,-2.3171,0.0,0.0,0.0,0.0,0.0,0.0,0.0,0.0,0.0,0.0,0.0,0.0,0.0,0.0,0.0,0.0,0.0,0.0,0.0,0.0,0.0,0.0,0.0,0.0,0.0,0.0,0.0,0.0,0.0,0.0,0.0,0.0,0.0,0.0,0.0,0.0,0.0,0.0,0.0,0.0,0.0,0.0,-2.4109,-2.5626,-2.5678,-2.5695,0.0,0.0,-2.7109,-2.5781,-2.6851,-2.6747,0.0,0.0,0.0,0.0,0.0,0.0,0.0,0.0,0.0,0.0,0.0,0.0,0.0,0.0,0.0,0.0,0.0,0.0,0.0,0.0,0.0,0.0,0.0,0.0,0.0,0.0,0.0,0.0,0.0,0.0,0.0,0.0,0.0,0.0,0.0,0.0,0.0,0.0,0.0,0.0,0.0,0.0,0.0,0.0,0.0,0.0,0.0,0.0,0.0,0.0,0.0,0.0,0.0,0.0,0.0,-2.0673,-2.2936,-2.4674,-2.5759,-2.5811,-2.5811,-2.5772,-2.3537,-2.1511,0.0,0.0,0.0,0.0,0.0,0.0,0.0,0.0,0.0,0.0,0.0,0.0,0.0,0.0,0.0,0.0,0.0,0.0,0.0,0.0,0.0,0.0,0.0,0.0,0.0,0.0,0.0,0.0,0.0,0.0,0.0,0.0,0.0,0.0,0.0,0.0,0.0,0.0,0.0,0.0,0.0,-2.5678,-2.5143,-2.6247,-2.6902,0.0,0.0,-2.804,-2.7264,-2.8385,-2.8075,-2.4322,0.0,0.0,0.0,0.0,0.0,0.0,0.0,0.0,0.0,0.0,0.0,0.0,0.0,0.0,0.0,0.0,0.0,0.0,0.0,0.0,0.0,0.0,0.0,0.0,0.0,0.0,0.0,0.0,0.0,0.0,0.0,0.0,0.0,0.0,0.0,0.0,0.0,0.0,0.0,0.0,0.0,0.0,0.0,0.0,0.0,0.0,0.0,0.0,0.0,0.0,0.0,0.0,0.0,-1.7434,-2.0673,-2.2936,-2.4504,-2.5262,-2.5641,-2.5654,-2.5301,-2.3393,-2.1603,0.0,0.0,0.0,0.0,0.0,0.0,0.0,0.0,0.0,0.0,0.0,0.0,0.0,0.0,0.0,0.0,0.0,0.0,0.0,0.0,0.0,0.0,0.0,0.0,0.0,0.0,0.0,0.0,-1.1759,-1.22,-1.2713,0.0,0.0,0.0,0.0,0.0,0.0,0.0,0.0,0.0,0.0,-2.6006,-2.754,-2.8282,0.0,0.0,-2.9817,-3.0058,-2.8834,-2.9127,-2.8523,-2.5695,-2.4425,0.0,0.0,0.0,0.0,0.0,0.0,0.0,0.0,0.0,0.0,0.0,0.0,0.0,0.0,0.0,0.0,0.0,0.0,0.0,0.0,0.0,0.0,0.0,0.0,0.0,0.0,0.0,0.0,0.0,0.0,0.0,0.0,0.0,0.0,0.0,0.0,0.0,0.0,0.0,0.0,0.0,0.0,0.0,0.0,0.0,0.0,0.0,0.0,0.0,0.0,0.0,0.0,-1.7369,-2.0673,-2.2766,-2.4204,-2.5022,-2.5354,-2.538,-2.4949,-2.3332,-2.1603,0.0,0.0,0.0,0.0,0.0,0.0,0.0,0.0,0.0,0.0,0.0,0.0,0.0,0.0,0.0,0.0,0.0,0.0,0.0,0.0,0.0,0.0,0.0,0.0,0.0,0.0,0.0,0.0,-1.3087,-1.3324,-1.3477,0.0,0.0,0.0,0.0,0.0,0.0,0.0,0.0,0.0,0.0,-2.6626,-2.9144,-2.9713,-3.0058,-3.061,-3.1317,-3.1351,-3.0058,-3.0041,-2.9351,-2.6868,0.0,0.0,0.0,0.0,0.0,0.0,0.0,0.0,0.0,0.0,0.0,0.0,0.0,0.0,0.0,0.0,0.0,0.0,0.0,0.0,0.0,0.0,0.0,0.0,0.0,0.0,0.0,0.0,0.0,0.0,-1.4106,0.0,0.0,0.0,0.0,0.0,0.0,0.0,0.0,0.0,0.0,0.0,0.0,0.0,0.0,0.0,0.0,0.0,0.0,0.0,0.0,0.0,0.0,0.0,-2.066,-2.2387,-2.3812,-2.497,-2.4975,-2.5035,-2.4909,-2.3332,-2.1655,-2.0099,0.0,0.0,0.0,0.0,0.0,0.0,0.0,0.0,0.0,0.0,0.0,0.0,0.0,0.0,0.0,0.0,0.0,0.0,0.0,0.0,0.0,0.0,0.0,0.0,0.0,0.0,-1.4036,-1.3749,-1.3341,0.0,0.0,0.0,0.0,0.0,0.0,0.0,0.0,0.0,0.0,-2.5781,-2.7799,-2.9282,-3.0179,-3.0679,-3.0731,-3.1351,-3.1541,-3.0817,-3.1231,-3.0731,0.0,0.0,0.0,0.0,0.0,0.0,0.0,0.0,0.0,0.0,0.0,0.0,0.0,0.0,0.0,0.0,0.0,0.0,0.0,0.0,0.0,0.0,0.0,0.0,0.0,0.0,0.0,-1.7347,-1.6841,0.0,0.0,0.0,0.0,0.0,0.0,0.0,0.0,0.0,0.0,0.0,-2.0388,-2.1146,0.0,0.0,0.0,0.0,0.0,0.0,0.0,0.0,0.0,0.0,0.0,0.0,-1.821,-2.066,-2.274,-2.4008,-2.44,-2.4779,-2.4792,-2.4413,-2.3446,-2.1694,-1.9057,0.0,0.0,0.0,0.0,0.0,0.0,0.0,0.0,0.0,0.0,0.0,0.0,0.0,0.0,0.0,0.0,0.0,0.0,0.0,0.0,0.0,0.0,0.0,0.0,0.0,-1.3536,0.0,0.0,0.0,0.0,0.0,0.0,0.0,0.0,0.0,0.0,0.0,-2.2014,-2.4315,-2.6592,-2.8385,-2.9368,-3.061,-3.1593,0.0,0.0,0.0,0.0,0.0,0.0,0.0,0.0,0.0,0.0,0.0,0.0,0.0,0.0,-3.0876,-2.5527,-2.4431,-2.4136,-2.3654,0.0,0.0,0.0,0.0,0.0,0.0,0.0,0.0,0.0,0.0,0.0,0.0,0.0,0.0,-1.961,0.0,-1.859,0.0,0.0,0.0,0.0,0.0,0.0,0.0,0.0,-2.1561,-2.2665,-2.3041,-2.3772,-2.3733,0.0,-2.2047,-2.0322,0.0,0.0,0.0,0.0,0.0,0.0,0.0,0.0,-1.9059,-2.1075,-2.301,-2.4076,-2.4216,-2.4629,-2.4642,-2.4216,-2.3355,-2.1821,-1.9633,-1.78,-1.642,0.0,0.0,0.0,0.0,0.0,0.0,0.0,0.0,0.0,0.0,0.0,0.0,0.0,0.0,0.0,0.0,0.0,0.0,0.0,0.0,0.0,0.0,0.0,-1.4674,0.0,0.0,0.0,0.0,0.0,0.0,0.0,0.0,0.0,-2.0481,-2.2031,-2.4109,-2.6644,-2.8265,-2.9558,-3.0558,0.0,0.0,0.0,0.0,0.0,0.0,0.0,-3.0594,-3.1185,-3.0788,-3.0635,-3.152,-3.3332,-3.454,-3.4079,0.0,0.0,-2.9488,-2.8556,-2.8415,-2.7877,-2.8456,-2.937,-3.0448,-3.0894,-3.1355,0.0,0.0,0.0,0.0,0.0,0.0,0.0,0.0,-2.1244,-2.175,0.0,-2.1691,0.0,0.0,0.0,0.0,0.0,0.0,0.0,0.0,-2.5328,-2.6399,-2.5903,-2.5929,-2.5903,-2.5837,-2.5236,-2.4073,-2.2269,-1.7957,0.0,0.0,0.0,0.0,0.0,0.0,-2.0489,-2.1938,-2.3151,-2.4003,-2.4536,-2.4523,-2.4523,-2.4483,-2.3044,-2.2151,-2.1793,-2.0212,-1.8791,-1.7473,-1.5706,0.0,0.0,0.0,0.0,0.0,0.0,0.0,0.0,0.0,0.0,0.0,0.0,0.0,0.0,0.0,0.0,0.0,0.0,0.0,0.0,-1.6422,0.0,0.0,0.0,0.0,0.0,0.0,0.0,0.0,0.0,0.0,-2.2978,-2.4816,-2.7282,-3.0196,0.0,0.0,0.0,0.0,-3.2955,-3.299,-3.3611,-3.3818,-3.311,-3.358,-3.3665,-3.2669,0.0,0.0,-3.4119,-3.5349,-3.5993,-3.4465,-3.565,-3.6655,-3.6444,-3.4888,-3.3914,-3.3877,-3.3319,-3.3083,-3.3194,-3.377,-3.429,-2.6106,0.0,0.0,0.0,0.0,-2.3557,-2.4536,-2.6048,-2.5815,-2.5658,-2.5499,-2.4558,0.0,0.0,0.0,0.0,0.0,0.0,-2.406,-2.4922,-2.653,-2.7419,-2.7654,-2.8085,-2.785,-2.7027,-2.6452,-2.5511,-2.4164,-2.206,-1.9682,-1.7146,0.0,0.0,0.0,0.0,-2.1506,-2.3111,-2.3897,-2.4576,-2.509,-2.4736,-2.4637,-2.4821,-2.4014,-2.3196,-2.2448,-2.0871,-1.9426,-1.819,-1.6278,0.0,0.0,0.0,0.0,0.0,0.0,0.0,0.0,0.0,0.0,0.0,0.0,0.0,0.0,0.0,0.0,0.0,0.0,0.0,-1.5718,-1.658,-1.6865,0.0,0.0,0.0,0.0,0.0,0.0,0.0,0.0,0.0,-2.7319,-2.7661,-2.8265,0.0,0.0,-3.1627,-3.2059,-3.3059,-3.3938,-3.4456,0.0,0.0,0.0,-3.4053,-3.3948,-3.4707,-3.6185,-3.7268,-3.7308,-3.7728,-3.7923,-3.7448,-3.7866,-3.8237,-3.8164,-3.6533,-3.5212,-3.5082,-3.4922,-3.5182,-3.6222,-3.6705,-3.7002,-2.9366,-2.7219,-2.5934,-2.5566,-2.5842,-2.6048,-2.6781,-2.7926,-2.8299,-2.8346,-2.8102,-2.7465,-2.626,-2.458,-2.3546,0.0,0.0,0.0,-2.5968,-2.687,-2.8033,-2.8752,-2.9091,-2.9444,-2.9261,-2.8556,-2.7981,-2.7118,-2.5968,-2.5275,-2.342,-2.0544,0.0,0.0,-2.0234,-2.1694,-2.3041,-2.4171,-2.4874,-2.5295,-2.5415,-2.4958,-2.4935,-2.5314,-2.4395,-2.3719,-2.327,-2.1808,-2.0529,-1.9489,-1.7849,-1.6761,0.0,0.0,0.0,0.0,0.0,0.0,0.0,0.0,0.0,0.0,0.0,-1.1189,0.0,0.0,0.0,0.0,-1.3605,-1.5567,-1.7457,-1.8149,0.0,0.0,0.0,0.0,0.0,0.0,0.0,-2.3932,-2.599,-2.801,-2.973,-3.0093,-3.0575,-3.1627,-3.2317,-3.2817,-3.311,0.0,-3.468,-3.5128,-3.5076,-3.5111,-3.5542,-3.5074,-3.5031,-3.6284,-3.7362,-3.8201,-3.8627,-3.8719,-3.8762,-3.8803,-3.891,-3.895,-3.9036,-3.7848,-3.6909,-3.6909,-3.6928,-3.7281,-3.8209,-3.8358,-3.8525,-3.1926,-3.087,-2.8517,-2.7506,-2.7518,-2.7954,-2.7897,-2.766,-2.922,-2.9959,-3.0066,-3.0099,-2.9503,-2.8399,-2.6373,0.0,-2.7053,-2.7562,-2.8085,-2.8621,-2.9706,-3.0129,-3.0202,-3.0202,-3.0189,-3.0111,-2.9588,-2.8739,-2.7628,-2.7575,-2.6478,-2.4393,-2.3245,-2.2811,-2.3031,-2.4033,-2.4792,-2.5165,-2.5942,-2.6062,-2.5428,-2.5202,-2.5314,-2.5755,-2.4465,-2.384,-2.3955,-2.2817,-2.1783,-2.0886,-1.9851,-1.8877,-1.7921,0.0,0.0,0.0,0.0,0.0,0.0,0.0,0.0,0.0,0.0,0.0,0.0,0.0,0.0,0.0,-1.616,0.0,-1.9845,-2.0544,0.0,0.0,0.0,-2.1702,-2.066,-2.3175,-2.4982,-2.5043,0.0,0.0,0.0,0.0,-3.3628,-3.5094,-3.4645,-3.4421,-3.5094,-3.5197,-3.5283,-3.5318,-3.5852,-3.6266,-3.6215,-3.6229,-3.6504,-3.7343,-3.7844,-3.8252,-3.8596,-3.875,-3.8822,-3.8881,-3.8939,-3.9007,-3.9092,-3.899,-3.9082,-3.8971,-3.899,-3.9027,-3.9027,-3.9027,-3.9045,-3.2133,-3.1513,-3.0526,-2.9883,-2.9515,-2.963,-2.9885,-3.0284,-3.0322,-3.0398,-3.0515,-3.0173,-2.9915,-2.9719,-2.9601,-2.9706,-2.9967,-3.0098,-3.0241,-3.0385,-3.0647,-3.0777,-3.079,-3.079,-3.0555,-3.015,-2.9993,-2.9327,-2.8216,-2.8177,-2.7591,-2.64,-2.6351,-2.5768,-2.46,-2.5213,-2.6171,-2.7418,-2.7179,-2.6663,-2.5842,-2.5714,-2.5383,-2.483,-2.4752,-2.4254,-2.3364,-2.2387,-2.1463,-2.0552,-1.9169,-1.8373,-1.8279,-1.6164,0.0,0.0,0.0,0.0,0.0,0.0,0.0,0.0,0.0,-1.5011,-1.2143,0.0,-1.6824,0.0,-1.7314,-1.9275,-2.1537,-2.1217,0.0,0.0,-2.3854,-2.4211,-2.5033,-2.6367,-2.7232,-2.7332,-2.9521,-3.1414,-3.2283,-3.3697,-3.4973,-3.5887,-3.5404,-3.5007,-3.5197,-3.5697,-3.6042,-3.6042,-3.6163,-3.6284,-3.6326,-3.6557,-3.7017,-3.7844,-3.8016,-3.8252,-3.8627,-3.8689,-3.8732,-3.8822,-3.8862,-3.895,-3.9007,-3.9064,-3.9101,-3.9101,-3.9101,-3.9101,-3.9101,-3.9101,-3.9101,-3.2684,-3.2397,-3.188,-3.1237,-3.0549,-3.0319,-3.0281,-3.0507,-3.1029,-3.1077,-3.0725,-3.0785,-3.0648,-3.0542,-3.0843,-3.0986,-3.0986,-3.0986,-3.0986,-3.0986,-3.0986,-3.0986,-3.0986,-3.0986,-3.0817,-3.0529,-3.0516,-3.0045,-2.9196,-2.9035,-2.8649,-2.788,-2.8002,-2.7645,-2.69,-2.6707,-2.7209,-2.8188,-2.7446,-2.6919,-2.6517,-2.5979,-2.5396,-2.4729,-2.4647,-2.4033,-2.2732,-2.196,-2.1147,-2.0227,-1.9225,-1.8821,-1.9008,-1.7305,-1.6263,0.0,0.0,0.0,0.0,0.0,0.0,0.0,0.0,0.0,0.0,0.0,-1.8115,0.0,-1.9231,0.0,-2.3375,-2.3356,-2.3897,-2.5615,-2.6219,-2.6674,-2.7148,-2.8592,-2.9585,-2.9621,-3.1445,-3.2999,-3.3835,-3.4663,-3.5473,-3.6197,-3.5939,-3.568,-3.5697,-3.6059,-3.6284,-3.6284,-3.6284,-3.6284,-3.6284,-3.6638,-3.7132,-3.7685,-3.7982,-3.8219,-3.8645,-3.8707,-3.8738,-3.8792,-3.8851,-3.8939,-3.8979,-3.9045,-3.9101,-3.9101,-3.9101,-3.9101,-3.9101,-3.9101,-3.9101,-3.3338,-3.3235,-3.2776,-3.2018,-3.1077,-3.0617,-3.0122,-2.9708,-3.1261,-3.1431,-3.0474,-3.1233,-3.1319,-3.1016,-3.1094,-3.1094,-3.1091,-3.1091,-3.1052,-3.0986,-3.0986,-3.0986,-3.0986,-3.0986,-3.0986,-3.0986,-3.0986,-3.0686,-3.0124,-2.9834,-2.9449,-2.8837,-2.8596,-2.8716,-2.9008,-2.817,-2.7912,-2.825,-2.7387,-2.7032,-2.7116,-2.6185,-2.5397,-2.4843,-2.4348,-2.3484,-2.2175,-2.1597,-2.0887,-2.0113,-1.9754,-1.9691,-1.9879,-1.8519,-1.759,0.0,-1.6133,0.0,0.0,0.0,0.0,0.0,0.0,0.0,0.0,-1.8377,-1.9373,-2.0416,-2.1677,-2.3268,-2.5262,-2.6029,-2.6601,-2.7114,-2.8315,-2.8907,-2.8518,-3.0313,-3.1654,-3.1777,-3.3218,-3.449,-3.5042,-3.5266,-3.5594,-3.618,-3.6249,-3.6215,-3.6266,-3.6266,-3.6284,-3.6284,-3.6284,-3.6284,-3.6326,-3.6597,-3.696,-3.7432,-3.7756,-3.8186,-3.8627,-3.8707,-3.8738,-3.8792,-3.8881,-3.8939,-3.8979,-3.9045,-3.9101,-3.9101,-3.9101,-3.9101,-3.9101,-3.9101,-3.9101,-3.3648,-3.3281,-3.3178,-3.2546,-3.1677,-3.1679,-3.1085,-3.0067,-3.0024,-2.9726,-2.9272,-2.9927,-3.0424,-3.0917,-3.1442,-3.1641,-3.1679,-3.1679,-3.1431,-3.0986,-3.0986,-3.0986,-3.0986,-3.0986,-3.0986,-3.0986,-3.0986,-3.0699,-3.0051,-2.962,-2.9101,-2.8497,-2.8292,-2.8341,-2.8651,0.0,0.0,0.0,-2.814,-2.7591,-2.6903,-2.6674,-2.5701,-2.3944,-2.4021,0.0,-2.1597,-2.1372,-2.0976,-2.0385,-2.0527,0.0,0.0,0.0,0.0,0.0,0.0,0.0,0.0,0.0,0.0,0.0,-2.0393,-1.9916,-1.9055,-2.1365,-2.3104,-2.3587,-2.4718,-2.5891,-2.7161,-2.7398,-2.8041,-2.9276,-2.9736,-3.0332,-3.1465,-3.2049,-3.2588,-3.3379,-3.4277,-3.496,-3.5214,-3.5697,-3.6111,-3.6266,-3.6284,-3.6284,-3.6284,-3.6284,-3.6284,-3.6284,-3.6284,-3.6284,-3.6284,-3.6367,-3.6741,-3.7303,-3.7542,-3.7913,-3.8546,-3.8707,-3.875,-3.8833,-3.8892,-3.895,-3.9064,-3.9101,-3.9101,-3.9101,-3.9101,-3.9101,-3.9101,-3.9101,-3.9101,-3.4153,0.0,-3.3843,-3.3201,0.0,-3.2065,-3.1437,-3.0583,-3.085,-3.0611,-3.0205,-2.9951,-3.0257,-3.0874,-3.0887,-3.106,-3.1418,-3.1418,-3.1261,-3.0986,-3.0986,-3.0986,-3.0986,-3.0986,-3.0986,-3.0986,-3.0986,-3.0843,-3.0516,-2.9895,-2.9385,-2.9069,-2.8572,-2.8522,-2.8844,-2.8844,-2.8844,-2.8844,-2.8567,-2.8079,-2.7349,-2.6958,-2.6007,-2.4365,0.0,0.0,0.0,0.0,0.0,0.0,0.0,0.0,0.0,0.0,0.0,-2.025,-1.9916,-2.0023,-2.067,-2.0711,-2.1295,-2.2671,-2.3086,-2.2701,-2.1399,-2.3351,-2.4784,-2.5176,-2.6034,-2.7153,-2.8398,-2.8574,-2.929,-3.0931,-3.1173,-3.167,-3.2727,-3.3393,-3.3891,-3.435,-3.5177,-3.5725,-3.5732,-3.6042,-3.6284,-3.6284,-3.6284,-3.6284,-3.6284,-3.6284,-3.6284,-3.6284,-3.6284,-3.6284,-3.6326,-3.6492,-3.6781,-3.734,-3.765,-3.8034,-3.8578,-3.8707,-3.8719,-3.8822,-3.8862,-3.8939,-3.9036,-3.9073,-3.9101,-3.9101,-3.9101,-3.9101,-3.9101,-3.9101,-3.9101,-3.4636,-3.5324,-3.4578,-3.3889,-3.3212,-3.2487,-3.169,-3.1113,0.0,0.0,0.0,-3.0177,-3.0003,-3.0428,-3.0045,-3.019,-3.0836,-3.0973,-3.0986,-3.0986,-3.0986,-3.0986,-3.0986,-3.0986,-3.0986,-3.0986,-3.0986,-3.0986,-3.0947,-3.0204,-2.9777,-2.9661,-2.8946,-2.8695,-2.8986,-2.9099,-2.9162,-2.9149,-2.8926,-2.8446,-2.7717,-2.7256,-2.6343,-2.5008,-2.454,-2.3681,-2.2395,-2.202,-2.1527,-2.0906,-2.1384,-2.1697,-2.1816,-2.2254,-2.2528,-2.2655,-2.264,-2.2948,-2.3594,-2.364,-2.3948,-2.4625,-2.5302,-2.5164,-2.3933,-2.5049,-2.5917,-2.6267,-2.71,-2.8227,-2.9633,-2.9879,-3.0613,-3.2324,-3.2476,-3.2763,-3.3533,-3.4329,-3.4865,-3.5147,-3.5796,-3.6259,-3.6266,-3.6266,-3.6284,-3.6284,-3.6284,-3.6284,-3.6284,-3.6284,-3.6284,-3.6284,-3.6284,-3.6284,-3.6326,-3.6516,-3.6978,-3.7395,-3.7774,-3.8135,-3.8546,-3.8707,-3.8738,-3.8822,-3.8862,-3.8921,-3.9007,-3.9064,-3.9101,-3.9101,-3.9101,-3.9101,-3.9101,-3.9101,-3.9101,-3.4762,-3.4923,-3.5187,-3.4521,-3.3335,-3.332,-3.2546,-3.1258,-3.0691,-3.0543,-3.0524,-2.9355,-2.9009,-2.9138,-2.9169,-2.9561,-3.019,-3.0761,-3.0986,0.0,-3.0986,-3.0986,-3.0986,-3.0986,-3.0986,-3.0986,-3.0986,-3.0986,-3.0908,-3.0393,-2.9843,-2.9319,-2.8733,-2.8545,-2.8706,-2.9226,-2.954,-2.9554,-2.9205,-2.8484,-2.7349,-2.7547,-2.6793,-2.5093,-2.491,-2.4264,-2.3027,-2.3442,-2.3428,-2.2774,-2.3945,-2.4364,-2.3865,-2.4427,-2.4583,-2.4087,-2.4025,-2.4317,-2.4979,-2.5041,-2.5333,-2.6041,-2.6718,-2.678,-2.6101,-2.7058,-2.7747,-2.7866,-2.9065,-3.0351,-3.1198,-3.1574,-3.2133,-3.3102,-3.3254,-3.3584,-3.4381,-3.4627,-3.5096,-3.5848,-3.6122,-3.6251,-3.6276,-3.6284,-3.6284,-3.6284,-3.6284,-3.6284,-3.6284,-3.6284,-3.6284,-3.6284,-3.6284,-3.6284,-3.6284,-3.6326,-3.6701,-3.7395,-3.7542,-3.7879,-3.8596,-3.8707,-3.8768,-3.8833,-3.8892,-3.895,-3.9045,-3.9101,-3.9101,-3.9101,-3.9101,-3.9101,-3.9101,-3.9101,-3.9101,-3.4682,-3.5152,-3.5328,-3.4981,-3.4395,-3.3447,-3.2371,-3.1252,-3.0499,-3.0258,-3.026,-2.9834,-2.9515,-2.9344,-2.9541,-2.9522,-2.9549,-3.019,-3.0432,-3.0508,-3.0823,-3.0986,-3.0986,-3.0986,-3.0986,-3.0986,-3.0986,-3.0986,-3.0934,-3.0411,-2.9849,-2.9319,-2.8783,-2.8517,-2.8614,-2.9289,-2.9602,-2.9602,-2.9415,-2.8906,-2.8028,-2.7872,-2.72,-2.6006,-2.5345,-2.4727,-2.4137,-2.4132,-2.3977,-2.3681,-2.4646,-2.5059,-2.4779,-2.547,-2.5749,-2.5441,-2.5426,-2.5733,-2.6395,-2.678,-2.7134,-2.7457,-2.7765,-2.798,-2.8042,-2.848,-2.8794,-2.8857,-2.9817,-3.078,-3.1655,-3.1957,-3.258,-3.3871,-3.3998,-3.4303,-3.505,-3.5246,-3.5487,-3.5898,-3.6122,-3.6208,-3.6233,-3.6259,-3.6284,-3.6284,-3.6284,-3.6284,-3.6284,-3.6284,-3.6284,-3.6284,-3.6284,-3.6284,-3.6284,-3.6284,-3.662,-3.7377,-3.7505,-3.7844,-3.8515,-3.8707,-3.875,-3.8881,-3.891,-3.895,-3.9073,-3.9101,-3.9101,-3.9101,-3.9101,-3.9101,-3.9101,-3.9101,-3.9101,-3.4532,-3.5301,-3.5144,-3.5005,-3.4693,-3.3254,-3.2007,-3.1085,-3.0668,-3.0385,-3.0226,-3.0449,-3.0212,-2.9713,-2.9931,-2.9702,-2.9209,-2.9561,-2.9871,-3.0037,-3.0508,-3.0823,-3.0986,-3.0986,-3.0986,-3.0986,-3.0986,-3.0986,-3.0934,-3.0529,-2.9967,-2.9319,-2.8973,-2.8722,-2.8651,-2.9289,-2.9602,-2.9602,-2.9602,-2.9321,-2.8703,-2.8226,-2.7607,-2.6807,-2.5907,-2.5331,-2.5177,-2.4779,-2.4526,-2.4526,-2.5241,-2.5634,-2.5682,-2.6394,-2.6826,-2.6795,-2.6826,-2.7072,-2.758,-2.8104,-2.8473,-2.8627,-2.8627,-2.8919,-2.955,-2.9781,-2.9797,-2.9735,-3.0348,-3.1191,-3.2014,-3.2406,-3.3086,-3.4536,-3.4742,-3.4962,-3.5504,-3.5684,-3.5756,-3.5817,-3.601,-3.6165,-3.6208,-3.6276,-3.6284,-3.6284,-3.6284,-3.6284,-3.6284,-3.6284,-3.6284,-3.6284,-3.6284,-3.6284,-3.6284,-3.6284,-3.6597,-3.7283,-3.7432,-3.7791,-3.835,-3.8596,-3.875,-3.8881,-3.891,-3.895,-3.9073,-3.9101,-3.9101,-3.9101,-3.9101,-3.9101,-3.9101,-3.9101,-3.9101,-3.4337,-3.4831,-3.4901,-3.3993,-3.2902,-3.2908,-3.1935,-3.0524,-3.1104,-3.1015,-3.0249,-3.0449,-3.0224,-2.9797,-2.9955,-2.9751,-2.9155,-2.9172,-2.9496,-2.9973,-3.0037,-3.0444,-3.0986,-3.0986,-3.0986,-3.0986,-3.0986,-3.0986,-3.0986,-3.0895,-3.0346,-2.9398,-2.9281,-2.9075,-2.8719,-2.9289,-2.9602,-2.9602,-2.9602,-2.9307,-2.8731,-2.8633,-2.8029,-2.6849,-2.6708,-2.6371,-2.5837,-2.5753,-2.5725,-2.5779,-2.6451,-2.6916,-2.7018,-2.7728,-2.8196,-2.8181,-2.8196,-2.8258,-2.8304,-2.8381,-2.8719,-2.9243,-2.9319,-2.9597,-3.0274,-3.0843,-3.0936,-3.0639,-3.1193,-3.2064,-3.2837,-3.364,-3.4454,-3.5256,-3.5453,-3.5554,-3.5588,-3.5622,-3.5667,-3.5773,-3.5932,-3.6062,-3.6165,-3.6276,-3.6284,-3.6284,-3.6284,-3.6284,-3.6284,-3.6284,-3.6284,-3.6284,-3.6284,-3.6284,-3.6284,-3.6284,-3.6516,-3.6939,-3.7283,-3.7685,-3.8135,-3.8515,-3.8768,-3.8851,-3.891,-3.895,-3.9045,-3.9101,-3.9101,-3.9101,-3.9101,-3.9101,-3.9101,-3.9101,-3.9101,-3.3866,-3.4326,-3.4531,-3.4173,-3.365,-3.3449,-3.2546,-3.1088,-3.0822,-3.0566,-3.0283,-3.0791,-3.0513,-2.9682,-3.0567,-3.0416,-2.9564,-2.9572,-2.997,-3.0494,-3.0202,-3.0495,-3.1272,-3.1136,-3.1136,-3.1272,-3.1136,-3.0986,-3.0934,-3.0647,-3.0072,-2.9371,-2.9334,-2.9157,-2.8706,-2.9289,-2.9602,-2.9602,-2.9602,-2.949,-2.9223,-2.8886,-2.845,-2.7917,-2.7214,-2.6708,-2.6427,-2.609,-2.6002,-2.6258,-2.6811,-2.7225,-2.7509,-2.8088,-2.8411,-2.8427,-2.8781,-2.9012,-2.8996,-2.9366,-2.9704,-2.9997,-2.9997,-3.0289,-3.092,-3.1243,-3.1413,-3.1674,-3.2258,-3.2944,-3.355,-3.4275,-3.4952,-3.5481,-3.5639,-3.5639,-3.5639,-3.5639,-3.5639,-3.5667,-3.5861,-3.6036,-3.6105,-3.6233,-3.6301,-3.6284,-3.6284,-3.6284,-3.6284,-3.6284,-3.6284,-3.6284,-3.6284,-3.6284,-3.6284,-3.6284,-3.6557,-3.7055,-3.7395,-3.7685,-3.8303,-3.8564,-3.875,-3.8881,-3.891,-3.8968,-3.9073,-3.9101,-3.9101,-3.9101,-3.9101,-3.9101,-3.9101,-3.9101,-3.9101,-3.3488,-3.3798,-3.4139,-3.4326,-3.4299,-3.3776,-3.2781,-3.1562,-3.0961,-3.0476,-3.0306,-3.0949,-3.0838,-3.0232,-3.11,-3.1076,-3.0372,-3.0082,-3.0238,-3.0561,-3.0045,-3.0254,-3.1022,-3.0885,-3.0973,-3.1347,-3.1123,-3.0986,-3.0947,-3.0729,-3.0144,-2.9639,-2.9589,-2.9387,-2.8923,-2.9386,-2.9602,-2.9602,-2.9602,-2.9602,-2.9546,-2.9181,-2.8858,-2.8633,-2.7818,-2.7242,-2.7059,-2.6469,-2.6351,-2.6716,-2.6966,-2.7291,-2.779,-2.8201,-2.8473,-2.8719,-2.9319,-2.9689,-2.9704,-3.0151,-3.0505,-3.0658,-3.0689,-3.0966,-3.1505,-3.1659,-3.1874,-3.2314,-3.2895,-3.3411,-3.3969,-3.448,-3.5038,-3.5532,-3.5639,-3.5639,-3.5639,-3.5639,-3.5639,-3.5622,-3.5844,-3.6019,-3.6105,-3.6233,-3.6284,-3.6284,-3.6284,-3.6284,-3.6284,-3.6284,-3.6284,-3.6284,-3.6284,-3.6284,-3.6284,-3.6284,-3.6638,-3.7094,-3.7395,-3.7739,-3.8419,-3.8546,-3.875,-3.8851,-3.8881,-3.895,-3.9073,-3.9101,-3.9101,-3.9101,-3.9101,-3.9101,-3.9101,-3.9101,-3.9101,-3.3292,-3.3384,-3.3809,-3.424,-3.4338,-3.3648,-3.2427,-3.1251,-3.1544,-3.127,-3.0397,-3.0949,-3.1282,-3.1199,-3.1528,-3.1689,-3.1574,-3.0586,-3.0165,-3.0171,-2.9547,-2.9496,-3.0024,-3.0037,-3.0432,-3.1123,-3.1061,-3.1061,-3.1048,-3.1294,-3.1003,-3.0144,-3.0151,-2.9916,-2.9426,-2.9539,-2.9617,-2.9602,-2.9602,-2.9602,-2.9602,-2.9574,-2.9251,-2.8802,-2.8619,-2.8268,-2.7748,-2.7116,-2.6989,-2.7348,-2.7258,-2.7401,-2.7836,-2.8247,-2.8765,-2.935,-3.0012,-3.0381,-3.0381,-3.0474,-3.0766,-3.1228,-3.1351,-3.1613,-3.2167,-3.2259,-3.229,-3.2398,-3.2841,-3.3355,-3.3986,-3.448,-3.5021,-3.5532,-3.5639,-3.5639,-3.5639,-3.5639,-3.5639,-3.5667,-3.5844,-3.6062,-3.6276,-3.6301,-3.6284,-3.6284,-3.6284,-3.6284,-3.6284,-3.6284,-3.6284,-3.6284,-3.6284,-3.6284,-3.6284,-3.6284,-3.6474,-3.6978,-3.7432,-3.7685,-3.805,-3.8382,-3.8652,-3.8851,-3.891,-3.895,-3.9045,-3.9101,-3.9101,-3.9101,-3.9101,-3.9101,-3.9101,-3.9101,-3.9101,-3.3568,-3.404,-3.4698,-3.504,-3.4822,-3.4241,-3.3195,-3.193,-3.134,-3.0746,-3.0306,-3.0487,-3.1104,-3.1965,-3.2031,-3.2361,-3.2739,-3.2028,-3.1505,-3.1072,-3.0121,-2.9899,-3.033,-3.038,-3.0709,-3.1259,-3.1347,-3.1421,-3.1421,-3.1556,-3.1336,-3.0905,-3.0454,-3.0133,-2.9786,-2.9644,-2.9602,-2.9602,-2.9602,-2.9602,-2.9602,-2.9602,-2.949,-2.9279,-2.8886,-2.8591,-2.8366,-2.7748,-2.7755,-2.8469,-2.84,-2.8711,-2.9367,-2.9603,-2.9797,-3.0089,-3.0674,-3.1043,-3.1089,-3.1443,-3.1782,-3.1982,-3.2028,-3.209,-3.2336,-3.2398,-3.2398,-3.2453,-3.2547,-3.3055,-3.3869,-3.448,-3.5021,-3.547,-3.5639,-3.5639,-3.5639,-3.5639,-3.5639,-3.5728,-3.5949,-3.6165,-3.6259,-3.6284,-3.6284,-3.6284,-3.6284,-3.6284,-3.6284,-3.6284,-3.6284,-3.6284,-3.6284,-3.6284,-3.6284,-3.6284,-3.6474,-3.7038,-3.7505,-3.7879,-3.8252,-3.8528,-3.8792,-3.8881,-3.8892,-3.8979,-3.9073,-3.9101,-3.9101,-3.9101,-3.9101,-3.9101,-3.9101,-3.9101,-3.9101,-3.393,-3.4957,-3.5174,-3.5381,-3.5551,-3.476,-3.3666,-3.2303,-3.1344,-3.0898,-3.0668,-3.0385,-3.1181,-3.2562,-3.2488,-3.2834,-3.359,-3.3123,-3.249,-3.1792,-3.0741,-3.0335,-3.0394,-3.0532,-3.0921,-3.1556,-3.185,-3.185,-3.1629,-3.185,-3.1852,-3.1531,-3.1004,-3.0624,-3.0301,-3.0015,-2.9827,-2.9659,-2.9602,-2.9602,-2.9602,-2.9602,-2.9602,-2.9546,-2.9195,-2.8984,-2.8984,-2.8394,-2.8467,-2.921,-2.923,-2.9495,-3.0324,-3.0628,-3.0735,-3.0797,-3.1336,-3.1705,-3.1751,-3.2136,-3.2382,-3.2398,-3.2398,-3.2398,-3.2398,-3.2398,-3.2398,-3.2398,-3.2453,-3.2857,-3.3783,-3.4333,-3.4833,-3.5441,-3.5639,-3.5639,-3.5639,-3.5639,-3.5667,-3.5861,-3.5993,-3.6148,-3.6259,-3.6284,-3.6284,-3.6284,-3.6284,-3.6284,-3.6284,-3.6284,-3.6284,-3.6284,-3.6284,-3.6284,-3.6284,-3.6301,-3.6597,-3.717,-3.7432,-3.7879,-3.835,-3.8621,-3.8822,-3.8862,-3.895,-3.9036,-3.9092,-3.9101,-3.9101,-3.9101,-3.9101,-3.9101,-3.9101,-3.9101,-3.9101,-3.4409,-3.5891,-3.4945,-3.5355,-3.6282,-3.5132,-3.3599,-3.2288,-3.182,-3.1698,-3.1613,-3.0722,-3.1689,-3.3335,-3.2821,-3.3091,-3.4043,-3.3806,-3.2933,-3.1881,-3.1204,-3.0633,-3.0203,-3.0495,-3.1071,-3.1703,-3.2345,-3.2273,-3.1776,-3.2273,-3.2448,-3.2136,-3.1803,-3.1378,-3.0867,-3.0546,-3.0178,-2.9743,-2.9602,-2.9602,-2.9602,-2.9602,-2.9602,-2.9602,-2.956,-2.9532,-2.9546,-2.8998,-2.9154,-2.9825,-2.9525,-2.9594,-3.0516,-3.1089,-3.1397,-3.1474,-3.2013,-3.2321,-3.2351,-3.2367,-3.2398,-3.2398,-3.2398,-3.2398,-3.2398,-3.2398,-3.2398,-3.2398,-3.2453,-3.2857,-3.3732,-3.4036,-3.448,-3.5362,-3.5639,-3.5639,-3.5639,-3.5622,-3.5711,-3.5932,-3.6019,-3.6088,-3.6241,-3.6284,-3.6284,-3.6284,-3.6284,-3.6284,-3.6284,-3.6284,-3.6284,-3.6353,-3.6353,-3.6335,-3.6318,-3.636,-3.6799,-3.7246,-3.7358,-3.765,-3.8234,-3.859,-3.8743,-3.8833,-3.8979,-3.9064,-3.9073,-3.9101,-3.9101,-3.9101,-3.9101,-3.9101,-3.9101,-3.9101,-3.9101,-3.4323,-3.5738,-3.5367,-3.575,-3.6539,-3.5649,-3.4372,-3.2921,-3.2568,-3.2374,-3.2101,-3.1436,-3.2227,-3.3445,-3.3031,-3.3215,-3.4301,-3.4201,-3.3493,-3.2421,-3.1779,-3.1378,-3.1074,-3.1016,-3.1489,-3.2259,-3.2561,-3.2618,-3.2417,-3.2561,-3.2704,-3.2749,-3.218,-3.1639,-3.1271,-3.0774,-3.0221,-2.9687,-2.9602,-2.9602,-2.9602,-2.9602,-2.9602,-2.9602,-2.9602,-2.9602,-2.9588,-2.9714,-3.0084,-3.0646,-3.083,-3.1162,-3.1704,-3.1967,-3.2074,-3.209,-3.2259,-3.2398,-3.2398,-3.2398,-3.2398,-3.2398,-3.2398,-3.2398,-3.2398,-3.2398,-3.2398,-3.2398,-3.2398,-3.2857,-3.3732,-3.3986,-3.448,-3.5487,-3.5639,-3.5639,-3.5622,-3.5756,-3.5888,-3.5975,-3.6131,-3.6216,-3.6259,-3.6284,-3.6284,-3.6284,-3.6284,-3.6284,-3.6284,-3.6284,-3.6577,-3.6956,-3.6732,-3.6456,-3.6559,-3.6515,-3.6597,-3.6939,-3.7132,-3.7469,-3.805,-3.846,-3.8615,-3.8844,-3.896,-3.9045,-3.9073,-3.9101,-3.9101,-3.9101,-3.9101,-3.9101,-3.9101,-3.9101,-3.9101,-3.404,-3.5174,-3.5463,-3.5953,-3.6414,-3.5956,-3.4836,-3.3446,-3.3059,-3.2836,-3.2748,-3.2302,-3.3079,-3.4191,-3.3628,-3.3628,-3.4314,-3.4397,-3.4118,-3.3416,-3.2691,-3.2228,-3.1861,-3.1782,-3.2015,-3.2618,-3.286,-3.2846,-3.2704,-3.286,-3.3086,-3.3087,-3.2612,-3.2013,-3.1569,-3.1078,-3.0502,-2.9757,-2.9602,-2.9602,-2.9602,-2.9602,-2.9602,-2.9602,-2.9602,-2.9602,-2.9602,-3.0068,-3.0493,-3.1029,-3.161,-3.212,-3.2398,-3.2382,-3.2398,-3.2398,-3.2398,-3.2398,-3.2398,-3.2398,-3.2398,-3.2398,-3.2398,-3.2398,-3.2398,-3.2398,-3.2398,-3.2398,-3.2398,-3.2749,-3.3511,-3.3935,-3.4382,-3.5178,-3.547,-3.5577,-3.5622,-3.58,-3.5932,-3.6019,-3.6148,-3.6276,-3.6301,-3.6284,-3.6284,-3.6284,-3.6284,-3.6284,-3.6284,-3.6284,-3.668,-3.6887,-3.6577,-3.6559,-3.6835,-3.6705,-3.6444,-3.6638,-3.6821,-3.7321,-3.7879,-3.8231,-3.8455,-3.8826,-3.9045,-3.9073,-3.9101,-3.9101,-3.9101,-3.9101,-3.9101,-3.9101,-3.9101,-3.9101,-3.9101,-3.3744,-3.4483,-3.5271,-3.5763,-3.6048,-3.5961,-3.4858,-3.3413,-3.3232,-3.3301,-3.3449,-3.3152,-3.3927,-3.5127,-3.4371,-3.405,-3.4397,-3.4481,-3.4634,-3.4563,-3.3967,-3.3192,-3.256,-3.2618,-3.2717,-3.2789,-3.3086,-3.3086,-3.286,-3.31,-3.3312,-3.3297,-3.3157,-3.2736,-3.1808,-3.1513,-3.0853,-2.9897,-2.9659,-2.9602,-2.9602,-2.9602,-2.9602,-2.9602,-2.9602,-2.9602,-2.9665,-3.0144,-3.0613,-3.1073,-3.1879,-3.2342,-3.2398,-3.2398,-3.2398,-3.2398,-3.2398,-3.2398,-3.2398,-3.2398,-3.2398,-3.2398,-3.2398,-3.2398,-3.2398,-3.2398,-3.2398,-3.2398,-3.2398,-3.2641,-3.3251,-3.3716,-3.4284,-3.4816,-3.5362,-3.5577,-3.5622,-3.5728,-3.5905,-3.5975,-3.6122,-3.6208,-3.6301,-3.6284,-3.6284,-3.6284,-3.6284,-3.6284,-3.6284,-3.6301,-3.6335,-3.6422,-3.6542,-3.6646,-3.6922,-3.6611,-3.6385,-3.6451,-3.6638,-3.7076,-3.7721,-3.8147,-3.8517,-3.8865,-3.9055,-3.9101,-3.9101,-3.9101,-3.9101,-3.9101,-3.9101,-3.9101,-3.9101,-3.9101,-3.9101,-3.404,-3.5283,-3.5475,-3.5953,-3.6364,-3.5731,-3.4613,-3.3409,-3.3362,-3.3508,-3.3764,-3.3602,-3.4371,-3.5453,-3.4384,-3.3953,-3.4384,-3.4743,-3.4921,-3.5047,-3.4977,-3.4216,-3.3449,-3.3165,-3.3086,-3.3157,-3.3241,-3.3241,-3.3171,-3.3241,-3.3312,-3.3312,-3.3297,-3.296,-3.223,-3.1738,-3.1092,-3.0319,-2.9813,-2.9617,-2.9602,-2.9602,-2.9602,-2.9602,-2.9602,-2.9602,-2.9665,-3.0372,-3.1029,-3.148,-3.2048,-3.2398,-3.2398,-3.2398,-3.2398,-3.2398,-3.2398,-3.2398,-3.2398,-3.2398,-3.2398,-3.2398,-3.2398,-3.2398,-3.2398,-3.2398,-3.2398,-3.2398,-3.2398,-3.2749,-3.3563,-3.3869,-3.4431,-3.5224,-3.5532,-3.5622,-3.5667,-3.58,-3.5975,-3.6002,-3.6191,-3.6259,-3.6301,-3.6284,-3.6284,-3.6284,-3.6284,-3.6284,-3.6284,-3.6301,-3.6353,-3.6732,-3.6904,-3.6904,-3.6853,-3.6525,-3.6335,-3.6343,-3.6516,-3.6843,-3.7578,-3.8296,-3.867,-3.9073,-3.9073,-3.9101,-3.9101,-3.9101,-3.9101,-3.9101,-3.9101,-3.9101,-3.9101,-3.9101,-3.9101,-3.3854,-3.4617,-3.4993,-3.5245,-3.5392,-3.4801,-3.3865,-3.3015,-3.322,-3.3446,-3.3679,-3.4134,-3.4729,-3.5318,-3.4634,-3.4397,-3.4743,-3.499,-3.5331,-3.5574,-3.5361,-3.4752,-3.3963,-3.3536,-3.3312,-3.3312,-3.3312,-3.3312,-3.3312,-3.3312,-3.3312,-3.3312,-3.3312,-3.3016,-3.2398,-3.2075,-3.1401,-3.0642,-3.015,-2.9897,-2.9631,-2.9602,-2.9602,-2.9602,-2.9602,-2.9602,-2.9727,-3.0507,-3.1204,-3.1667,-3.212,-3.2398,-3.2398,-3.2398,-3.2398,-3.2398,-3.2398,-3.2398,-3.2398,-3.2398,-3.2398,-3.2398,-3.2398,-3.2398,-3.2398,-3.2398,-3.2398,-3.2398,-3.2398,-3.2695,-3.3214,-3.3732,-3.448,-3.5379,-3.5639,-3.5622,-3.5684,-3.5888,-3.6019,-3.6105,-3.6216,-3.6284,-3.6284,-3.6284,-3.6284,-3.6284,-3.6284,-3.6284,-3.6284,-3.6318,-3.6387,-3.6663,-3.6801,-3.6697,-3.6663,-3.6422,-3.636,-3.6385,-3.6865,-3.7079,-3.7578,-3.8373,-3.8748,-3.9045,-3.9073,-3.9101,-3.9101,-3.9101,-3.9101,-3.9101,-3.9101,-3.9101,-3.9101,-3.9101,-3.9101,-3.33,-3.3388,-3.3985,-3.3969,-3.3684,-3.3577,-3.2993,-3.2265,-3.2694,-3.3021,-3.3326,-3.4468,-3.4908,-3.5072,-3.499,-3.5072,-3.5072,-3.5331,-3.5817,-3.594,-3.5641,-3.4826,-3.4363,-3.3592,-3.3354,-3.3312,-3.3312,-3.3312,-3.3312,-3.3312,-3.3312,-3.3312,-3.3312,-3.3045,-3.2651,-3.2426,-3.1752,-3.0881,-3.0516,-3.0122,-2.9715,-2.9602,-2.9602,-2.9602,-2.9602,-2.9602,-2.9851,-3.0493,-3.119,-3.1625,-3.2104,-3.2398,-3.2398,-3.2398,-3.2398,-3.2398,-3.2398,-3.2398,-3.2398,-3.2398,-3.2398,-3.2398,-3.2398,-3.2398,-3.2398,-3.2398,-3.2398,-3.2398,-3.2398,-3.2492,-3.2788,-3.3511,-3.4415,-3.527,-3.5532,-3.5684,-3.5817,-3.5949,-3.6079,-3.6165,-3.6259,-3.6284,-3.6284,-3.6284,-3.6284,-3.6284,-3.6284,-3.6284,-3.6284,-3.6301,-3.6301,-3.637,-3.6404,-3.6353,-3.6335,-3.6301,-3.6367,-3.6474,-3.725,-3.7649,-3.7823,-3.8387,-3.8778,-3.9017,-3.9073,-3.9101,-3.9101,-3.9101,-3.9101,-3.9101,-3.9101,-3.9101,-3.9101,-3.9101,-3.9101,-3.304,-3.3598,-3.3363,-3.3125,-3.3064,-3.2578,-3.2005,-3.1321,-3.214,-3.2711,-3.3177,-3.4134,-3.4729,-3.5072,-3.5072,-3.5072,-3.5236,-3.5737,-3.6457,-3.6668,-3.5728,-3.5166,-3.4688,-3.3845,-3.3354,-3.3312,-3.3312,-3.3312,-3.3312,-3.3312,-3.3312,-3.3312,-3.3312,-3.3255,-3.3073,-3.2637,-3.2061,-3.1316,-3.0811,-3.0249,-2.9729,-2.9602,-2.9602,-2.9602,-2.9602,-2.9602,-2.9775,-3.0493,-3.1029,-3.1306,-3.1879,-3.2398,-3.2398,-3.2398,-3.2398,-3.2398,-3.2398,-3.2398,-3.2398,-3.2398,-3.2398,-3.2398,-3.2398,-3.2398,-3.2398,-3.2398,-3.2398,-3.2398,-3.2398,-3.2602,-3.3039,-3.402,-3.4673,-3.5131,-3.547,-3.5817,-3.5949,-3.5975,-3.6062,-3.6165,-3.6259,-3.6284,-3.6284,-3.6284,-3.6284,-3.6284,-3.6284,-3.6284,-3.6284,-3.6284,-3.6284,-3.6284,-3.6284,-3.6284,-3.6284,-3.6326,-3.6451,-3.662,-3.7379,-3.7959,-3.8143,-3.8468,-3.8884,-3.9045,-3.9101,-3.9101,-3.9101,-3.9101,-3.9101,-3.9101,-3.9101,-3.9101,-3.9101,-3.9101,-3.9101,-3.2433,-3.2793,-3.2523,-3.2277,-3.2019,-3.1726,-3.14,-3.1348,-3.1934,-3.2661,-3.3275,-3.405,-3.4564,-3.4825,-3.499,-3.5154,-3.5562,-3.627,-3.659,-3.6431,-3.5634,-3.5026,-3.4576,-3.3859,-3.3312,-3.3312,-3.3312,-3.3312,-3.3312,-3.3312,-3.3312,-3.3312,-3.3312,-3.3312,-3.3312,-3.2974,-3.2356,-3.1597,-3.1148,-3.0558,-2.9757,-2.9602,-2.9602,-2.9602,-2.9602,-2.9665,-2.996,-3.0613,-3.1087,-3.1437,-3.2007,-3.2398,-3.2398,-3.2398,-3.2398,-3.2398,-3.2398,-3.2398,-3.2398,-3.2398,-3.2398,-3.2398,-3.2398,-3.2398,-3.2398,-3.2398,-3.2398,-3.2398,-3.2508,-3.2695,-3.3511,-3.4268,-3.4833,-3.527,-3.556,-3.5844,-3.6019,-3.6079,-3.6122,-3.6233,-3.6259,-3.6284,-3.6284,-3.6284,-3.6284,-3.6284,-3.6284,-3.6284,-3.6284,-3.6284,-3.6284,-3.6284,-3.6284,-3.6284,-3.6284,-3.6367,-3.6492,-3.6821,-3.7323,-3.7875,-3.8176,-3.8609,-3.9036,-3.9073,-3.9101,-3.9101,-3.9101,-3.9101,-3.9101,-3.9101,-3.9101,-3.9101,-3.9101,-3.9101,-3.9101,-3.1651,-3.1639,-3.157,-3.1283,-3.0939,-3.087,-3.1087,-3.1354,-3.1889,-3.2587,-3.3386,-3.4076,-3.4397,-3.4647,-3.5154,-3.5562,-3.6004,-3.6314,-3.6529,-3.6093,-3.5293,-3.4745,-3.4225,-3.3705,-3.3312,-3.3312,-3.3312,-3.3312,-3.3312,-3.3312,-3.3312,-3.3312,-3.3312,-3.3312,-3.3312,-3.3269,-3.2679,-3.1626,-3.1415,-3.0797,-2.9813,-2.9602,-2.9602,-2.9602,-2.9602,-2.9837,-3.0205,-3.0732,-3.1204,-3.1682,-3.2176,-3.2342,-3.2398,-3.2398,-3.2398,-3.2398,-3.2398,-3.2398,-3.2398,-3.2398,-3.2398,-3.2398,-3.2398,-3.2398,-3.2398,-3.2398,-3.2398,-3.2453,-3.2547,-3.2949,-3.3869,-3.4529,-3.5021,-3.547,-3.5711,-3.5949,-3.614,-3.6208,-3.6233,-3.6259,-3.6301,-3.6284,-3.6284,-3.6284,-3.6284,-3.6284,-3.6284,-3.6284,-3.6284,-3.6284,-3.6284,-3.6284,-3.6284,-3.6284,-3.6284,-3.6474,-3.6638,-3.686,-3.734,-3.779,-3.8194,-3.8548,-3.8902,-3.9073,-3.9101,-3.9101,-3.9101,-3.9101,-3.9101,-3.9101,-3.9101,-3.9101,-3.9101,-3.9101,-3.9101,-3.1134,-3.11,-3.0663,-3.0422,-3.0365,-3.0354,-3.0772,-3.1229,-3.1472,-3.2264,-3.3398,-3.3882,-3.4481,-3.5072,-3.5817,-3.6363,-3.6526,-3.6452,-3.6164,-3.5756,-3.4969,-3.4323,-3.4056,-3.3607,-3.3326,-3.3312,-3.3312,-3.3312,-3.3312,-3.3312,-3.3312,-3.3312,-3.3312,-3.3312,-3.3312,-3.3255,-3.2707,-3.1668,-3.1457,-3.0853,-2.9897,-2.9602,-2.9602,-2.9602,-2.9602,-2.9913,-3.0326,-3.0732,-3.1204,-3.1667,-3.212,-3.2342,-3.2398,-3.2398,-3.2398,-3.2398,-3.2398,-3.2398,-3.2398,-3.2398,-3.2398,-3.2398,-3.2398,-3.2398,-3.2398,-3.2398,-3.2453,-3.2602,-3.2895,-3.3355,-3.3935,-3.4625,-3.4975,-3.5316,-3.5756,-3.6122,-3.6225,-3.6251,-3.6259,-3.6284,-3.6284,-3.6284,-3.6284,-3.6284,-3.6284,-3.6284,-3.6284,-3.6284,-3.6284,-3.6284,-3.6284,-3.6284,-3.6284,-3.6284,-3.6284,-3.6597,-3.6781,-3.6917,-3.7321,-3.7808,-3.8198,-3.8442,-3.8688,-3.897,-3.9101,-3.9101,-3.9101,-3.9101,-3.9101,-3.9101,-3.9101,-3.9101,-3.9101,-3.9101,-3.9101,-3.0606,-3.0583,-3.0319,-3.0216,-3.0216,-3.0216,-3.0836,-3.1713,-3.1889,-3.276,-3.3966,-3.4481,-3.4895,-3.548,-3.6058,-3.6476,-3.6396,-3.6248,-3.5728,-3.511,-3.452,-3.4028,-3.3817,-3.3438,-3.3354,-3.3312,-3.3312,-3.3312,-3.3312,-3.3312,-3.3312,-3.3312,-3.3312,-3.3312,-3.3312,-3.3297,-3.2637,-3.178,-3.1429,-3.0881,-2.9729,-2.9602,-2.9602,-2.9602,-2.9665,-2.9974,-3.0553,-3.0851,-3.1364,-3.1936,-3.2287,-3.2398,-3.2398,-3.2398,-3.2398,-3.2398,-3.2398,-3.2398,-3.2398,-3.2398,-3.2398,-3.2398,-3.2398,-3.2398,-3.2398,-3.2453,-3.2492,-3.2841,-3.3303,-3.3802,-3.4382,-3.5021,-3.5379,-3.556,-3.5932,-3.6165,-3.6233,-3.6276,-3.6301,-3.6284,-3.6284,-3.6284,-3.6284,-3.6284,-3.6284,-3.6284,-3.6284,-3.6284,-3.6284,-3.6284,-3.6284,-3.6284,-3.6284,-3.6284,-3.6284,-3.6474,-3.6781,-3.6995,-3.7283,-3.7756,-3.8271,-3.8596,-3.8803,-3.9045,-3.9101,-3.938,-3.9138,-3.9157,-3.912,-3.9175,-3.925,-3.9305,-3.9157,-3.9101,-3.9287,-3.0216,-3.0216,-3.0216,-3.0216,-3.0216,-3.0216,-3.0913,-3.1965,-3.2052,-3.3079,-3.4729,-3.4977,-3.5304,-3.5843,-3.6091,-3.6178,-3.5897,-3.5756,-3.5096,-3.4492,-3.4098,-3.3747,-3.3452,-3.3312,-3.3312,-3.3312,-3.3312,-3.3312,-3.3312,-3.3312,-3.3312,-3.3382,-3.3396,-3.341,-3.3368,-3.3508,-3.2679,-3.2019,-3.1485,-3.0839,-2.9926,-2.9602,-2.9602,-2.9602,-2.9602,-3.0021,-3.0837,-3.097,-3.1495,-3.2048,-3.2398,-3.2398,-3.2398,-3.2398,-3.2398,-3.2398,-3.2398,-3.2398,-3.2398,-3.2398,-3.2398,-3.2398,-3.2398,-3.2398,-3.2398,-3.2453,-3.2602,-3.3145,-3.3665,-3.4169,-3.4721,-3.5407,-3.58,-3.5975,-3.6105,-3.6233,-3.6259,-3.6284,-3.6284,-3.6284,-3.6284,-3.6284,-3.6284,-3.6284,-3.6284,-3.6284,-3.6284,-3.6284,-3.6284,-3.6284,-3.6284,-3.6284,-3.6284,-3.6284,-3.6284,-3.6284,-3.6638,-3.69,-3.7246,-3.7703,-3.8274,-3.8805,-3.9084,-3.9537,-3.9918,-4.0123,-3.9677,-3.9528,-3.9955,-4.0104,-3.9751,-3.9733,-4.0048,-4.0085,-4.016,-3.0216,-3.0216,-3.0216,-3.0216,-3.0216,-3.0216,-3.0668,-3.1472,-3.156,-3.2401,-3.4371,-3.465,-3.5386,-3.5998,-3.6039,-3.5826,-3.5278,-3.4829,-3.4492,-3.4098,-3.3719,-3.348,-3.334,-3.3326,-3.3312,-3.3312,-3.3312,-3.3312,-3.3312,-3.3312,-3.3312,-3.3396,-3.3761,-3.3874,-3.3396,-3.3761,-3.3466,-3.2398,-3.1738,-3.0853,-2.9841,-2.9602,-2.9602,-2.9602,-2.9665,-3.0021,-3.0851,-3.1029,-3.148,-3.2287,-3.2398,-3.2398,-3.2398,-3.2398,-3.2398,-3.2398,-3.2398,-3.2398,-3.2398,-3.2398,-3.2398,-3.2398,-3.2398,-3.2398,-3.2398,-3.2453,-3.2656,-3.3145,-3.3681,-3.4333,-3.4975,-3.5588,-3.5975,-3.6105,-3.6233,-3.6259,-3.6284,-3.6284,-3.6284,-3.6284,-3.6284,-3.6284,-3.6284,-3.6284,-3.6284,-3.6284,-3.6301,-3.6335,-3.637,-3.6439,-3.6525,-3.6594,-3.6818,-3.6853,-3.6826,-3.6757,-3.7061,-3.7229,-3.762,-3.8026,-3.8764,-3.9515,-3.9877,-4.0296,-4.0744,-4.0958,-4.0698,-4.0736,-4.1107,-4.1014,-4.0661,-4.0903,-4.133,-4.1256,-4.0958,-3.0216,-3.0216,-3.0216,-3.0216,-3.0216,-3.0216,-3.0836,-3.1789,-3.214,-3.325,-3.4706,-3.5049,-3.5347,-3.5676,-3.563,-3.5222,-3.4688,-3.4337,-3.4028,-3.3789,-3.3452,-3.3312,-3.3326,-3.3312,-3.3312,-3.3312,-3.3312,-3.3312,-3.3326,-3.334,-3.3326,-3.3438,-3.3888,-3.3902,-3.355,-3.3944,-3.3424,-3.2469,-3.1457,-3.0516,-2.9841,-2.9602,-2.9617,-2.9617,-2.9631,-3.0172,-3.0762,-3.1029,-3.148,-3.2231,-3.2398,-3.2398,-3.2398,-3.2398,-3.2398,-3.2398,-3.2398,-3.2398,-3.2398,-3.2398,-3.2398,-3.2398,-3.2398,-3.2398,-3.2398,-3.2453,-3.2803,-3.3614,-3.3818,-3.4431,-3.5161,-3.5739,-3.5993,-3.6165,-3.6276,-3.6259,-3.6284,-3.6284,-3.6284,-3.6284,-3.6318,-3.6404,-3.649,-3.6577,-3.6577,-3.6508,-3.6663,-3.6853,-3.6835,-3.6835,-3.6939,-3.7077,-3.7353,-3.7629,-3.7612,-3.7586,-3.8111,-3.8409,-3.8795,-3.9247,-3.9761,-4.0327,-4.0726,-4.1204,-4.169,-4.1794,-4.1683,-4.1627,-4.1683,-4.1646,-4.1571,-4.1794,-4.1962,-4.1664,-4.1423,-3.0147,-3.0032,-3.0044,-3.0032,-3.0009,-3.0085,-3.0514,-3.1378,-3.2214,-3.3322,-3.4486,-3.4917,-3.5051,-3.4966,-3.4899,-3.459,-3.4028,-3.4,-3.3747,-3.3452,-3.3312,-3.3312,-3.3312,-3.3312,-3.3312,-3.3326,-3.3312,-3.3438,-3.3564,-3.3578,-3.3607,-3.3578,-3.4267,-3.4253,-3.407,-3.414,-3.3845,-3.2145,-3.1316,-3.0488,-2.9771,-2.9602,-2.9715,-2.9799,-2.9904,-3.0249,-3.1086,-3.1234,-3.1706,-3.2231,-3.2398,-3.2475,-3.2675,-3.2752,-3.2736,-3.2813,-3.2921,-3.2829,-3.2598,-3.2398,-3.2398,-3.2398,-3.2398,-3.2398,-3.2398,-3.2453,-3.2695,-3.3614,-3.3935,-3.4529,-3.5316,-3.5783,-3.6079,-3.6165,-3.6233,-3.6259,-3.6301,-3.637,-3.6387,-3.6387,-3.649,-3.6749,-3.6835,-3.6939,-3.6904,-3.6784,-3.6973,-3.7318,-3.7456,-3.7508,-3.756,-3.7749,-3.7922,-3.818,-3.82,-3.84,-3.9006,-3.9535,-3.9886,-4.0256,-4.0677,-4.1144,-4.1575,-4.2069,-4.2593,-4.2816,-4.2816,-4.2482,-4.2222,-4.25,-4.2667,-4.2463,-4.2389,-4.2129,-4.1999,-2.9952,-2.955,-2.9538,-2.9538,-2.9604,-2.9715,-2.9441,-2.9535,-3.1079,-3.182,-3.2497,-3.3624,-3.4576,-3.4349,-3.4253,-3.4,-3.3424,-3.3382,-3.3382,-3.3354,-3.3312,-3.3312,-3.3312,-3.3312,-3.3354,-3.341,-3.3466,-3.3733,-3.4042,-3.4169,-3.4183,-3.4281,-3.4843,-3.5012,-3.4885,-3.4674,-3.3649,-3.2159,-3.1345,-3.0684,-2.994,-2.9659,-2.9855,-3.0305,-3.0481,-3.0877,-3.1745,-3.1867,-3.202,-3.2542,-3.2675,-3.2767,-3.3106,-3.329,-3.3321,-3.3413,-3.3752,-3.3475,-3.2875,-3.2552,-3.2428,-3.2413,-3.2398,-3.2398,-3.2398,-3.2398,-3.2749,-3.3303,-3.3767,-3.4382,-3.5068,-3.5543,-3.6036,-3.626,-3.6414,-3.6594,-3.6577,-3.6525,-3.6542,-3.6508,-3.6715,-3.706,-3.7594,-3.7801,-3.7663,-3.7542,-3.7715,-3.806,-3.8474,-3.856,-3.8456,-3.8525,-3.8594,-3.8708,-3.8639,-3.9068,-3.9816,-4.0265,-4.0596,-4.0926,-4.1299,-4.1793,-4.2405,-4.2767,-4.3206,-4.3578,-4.3819,-4.3373,-4.3225,-4.3652,-4.3726,-4.3299,-4.3113,-4.2965,-4.2835,-2.9665,-2.9447,-2.8838,-2.8746,-2.8999,-2.9051,-2.9215,-2.9555,-3.0455,-3.1445,-3.2239,-3.3635,-3.4094,-3.3746,-3.3663,-3.3578,-3.334,-3.3326,-3.3312,-3.3312,-3.3312,-3.3312,-3.3312,-3.3396,-3.3494,-3.3775,-3.3888,-3.4197,-3.4745,-3.4801,-3.511,-3.5349,-3.5602,-3.5377,-3.525,-3.4815,-3.341,-3.2117,-3.1387,-3.0853,-2.9883,-2.9645,-2.9897,-3.0459,-3.0451,-3.124,-3.2317,-3.2562,-3.2721,-3.302,-3.3429,-3.3521,-3.3598,-3.3875,-3.4029,-3.4075,-3.4445,-3.3998,-3.326,-3.2952,-3.2844,-3.2444,-3.2398,-3.2398,-3.2398,-3.2398,-3.2695,-3.3198,-3.3751,-3.4415,-3.5098,-3.5722,-3.6182,-3.6354,-3.6534,-3.6766,-3.6904,-3.687,-3.7146,-3.7318,-3.7387,-3.756,-3.818,-3.8784,-3.856,-3.8353,-3.8577,-3.8836,-3.925,-3.9491,-3.9353,-3.9353,-3.9457,-3.9437,-3.9396,-3.9957,-4.069,-4.0961,-4.1232,-4.1597,-4.191,-4.2662,-4.3203,-4.3545,-4.354,-4.3633,-4.3745,-4.3931,-4.4005,-4.3968,-4.3986,-4.3893,-4.3782,-4.3559,-4.3373,-2.932,-2.8976,-2.8287,-2.8172,-2.8448,-2.8576,-2.8771,-2.9106,-2.9779,-3.095,-3.2414,-3.3311,-3.3591,-3.3325,-3.3326,-3.334,-3.3326,-3.3312,-3.3312,-3.3312,-3.3312,-3.3312,-3.3368,-3.355,-3.3859,-3.4225,-3.452,-3.4829,-3.5479,-3.5494,-3.577,-3.6136,-3.6318,-3.6065,-3.5714,-3.4815,-3.3522,-3.1977,-3.1387,-3.0853,-2.9799,-2.9631,-3.0221,-3.0849,-3.1112,-3.1988,-3.3077,-3.3585,-3.3577,-3.3842,-3.4075,-3.4245,-3.4306,-3.4429,-3.4722,-3.4829,-3.486,-3.4645,-3.3952,-3.3229,-3.2936,-3.2475,-3.2398,-3.2398,-3.2398,-3.2453,-3.2695,-3.3459,-3.3953,-3.4544,-3.5237,-3.5888,-3.6182,-3.6319,-3.65,-3.6749,-3.7163,-3.7301,-3.7801,-3.8198,-3.8301,-3.8474,-3.8888,-3.9526,-3.9646,-3.9491,-3.9646,-3.9853,-4.0112,-4.0233,-4.0112,-4.0181,-4.0336,-4.0251,-4.0207,-4.0683,-4.1024,-4.1032,-4.1421,-4.2063,-4.2576,-4.3133,-4.3092,-4.278,-4.2872,-4.3336,-4.3373,-4.3206,-4.354,-4.3949,-4.3801,-4.3503,-4.3113,-4.2835,-4.3169,-2.893,-2.8057,-2.7989,-2.7966,-2.8027,-2.8116,-2.7882,-2.7825,-2.8961,-3.0241,-3.1474,-3.2355,-3.2957,-3.3171,-3.3171,-3.3171,-3.3241,-3.3241,-3.3312,-3.3312,-3.3312,-3.3312,-3.3564,-3.3859,-3.4239,-3.4379,-3.4843,-3.5447,-3.6051,-3.6051,-3.6416,-3.6641,-3.6697,-3.6599,-3.6726,-3.5672,-3.3859,-3.1864,-3.1527,-3.067,-2.9912,-2.9687,-3.0524,-3.1397,-3.199,-3.2888,-3.401,-3.449,-3.4531,-3.4511,-3.4691,-3.4891,-3.5137,-3.5291,-3.5445,-3.5476,-3.5999,-3.5645,-3.4568,-3.3244,-3.2736,-3.2567,-3.2552,-3.2398,-3.2398,-3.2492,-3.2803,-3.3563,-3.4153,-3.4785,-3.547,-3.601,-3.6182,-3.6629,-3.6879,-3.7232,-3.7698,-3.8025,-3.8543,-3.9026,-3.937,-3.9664,-3.9905,-4.0233,-4.056,-4.0681,-4.0784,-4.0871,-4.0853,-4.0767,-4.056,-4.0595,-4.0745,-4.055,-4.0488,-4.1033,-4.1341,-4.1315,-4.1399,-4.183,-4.2068,-4.2168,-4.2101,-4.189,-4.2203,-4.2667,-4.2519,-4.2296,-4.263,-4.289,-4.2946,-4.2705,-4.2314,-4.2092,-4.2333,-2.8574,-2.7954,-2.7621,-2.7483,-2.7461,-2.7545,-2.7464,-2.7672,-2.8991,-2.9999,-3.0532,-3.1663,-3.2359,-3.2574,-3.2789,-3.2931,-3.3002,-3.3241,-3.3312,-3.3312,-3.3354,-3.3635,-3.3916,-3.4239,-3.4688,-3.5307,-3.5756,-3.6065,-3.6683,-3.6613,-3.6712,-3.6908,-3.6529,-3.6136,-3.5531,-3.4534,-3.3002,-3.1696,-3.1064,-3.0445,-2.9771,-3.0024,-3.0729,-3.1786,-3.2579,-3.355,-3.4822,-3.5202,-3.5276,-3.5231,-3.5383,-3.5645,-3.5722,-3.5784,-3.6107,-3.6122,-3.6445,-3.6091,-3.5199,-3.4275,-3.3583,-3.3183,-3.2752,-3.2567,-3.2428,-3.2788,-3.3198,-3.3781,-3.4595,-3.5338,-3.6089,-3.6224,-3.656,-3.7671,-3.8129,-3.8456,-3.8836,-3.9026,-3.937,-3.9819,-4.0198,-4.0233,-4.0405,-4.0474,-4.0767,-4.0871,-4.0871,-4.0871,-4.0871,-4.0871,-4.0767,-4.0767,-4.0797,-4.0648,-4.0637,-4.071,-4.0718,-4.0588,-4.0702,-4.1017,-4.119,-4.129,-4.1401,-4.1364,-4.1653,-4.1924,-4.1776,-4.1627,-4.1553,-4.1646,-4.1702,-4.1794,-4.1571,-4.1311,-4.1256,-2.8161,-2.7702,-2.738,-2.7231,-2.7231,-2.7464,-2.7708,-2.8075,-2.9303,-2.9845,-3.0152,-3.1442,-3.22,-3.2345,-3.2561,-3.2846,-3.2931,-3.3157,-3.3312,-3.3354,-3.3578,-3.3859,-3.4197,-3.4688,-3.5321,-3.5995,-3.6346,-3.6627,-3.6908,-3.6964,-3.6824,-3.6515,-3.6051,-3.5307,-3.4562,-3.3607,-3.2792,-3.1682,-3.0937,-3.0431,-3.0164,-3.0439,-3.1168,-3.2299,-3.3238,-3.4147,-3.5155,-3.5755,-3.5902,-3.6014,-3.6107,-3.6292,-3.6107,-3.6184,-3.6492,-3.6492,-3.6445,-3.6245,-3.5768,-3.5183,-3.4552,-3.4229,-3.3475,-3.3152,-3.3218,-3.3787,-3.4197,-3.4743,-3.5382,-3.6192,-3.6961,-3.6964,-3.7447,-3.8577,-3.8732,-3.9026,-3.9439,-3.9595,-3.9853,-4.0319,-4.0595,-4.0664,-4.0716,-4.0767,-4.0871,-4.0871,-4.0871,-4.0836,-4.0784,-4.0784,-4.0612,-4.0457,-4.036,-4.0023,-3.9853,-3.9851,-3.9846,-3.9856,-4.0077,-4.0327,-4.0385,-4.0514,-4.0658,-4.0826,-4.0966,-4.107,-4.1051,-4.0958,-4.0643,-4.0457,-4.042,-4.0531,-4.0698,-4.068,-4.055,-2.769,-2.7265,-2.7231,-2.7231,-2.7301,-2.7857,-2.8259,-2.8498,-2.9406,-2.9845,-3.0139,-3.1529,-3.22,-3.2561,-3.2704,-3.286,-3.3227,-3.3311,-3.3452,-3.3621,-3.4014,-3.4281,-3.4773,-3.5405,-3.5883,-3.6248,-3.6571,-3.681,-3.6978,-3.681,-3.6543,-3.6023,-3.5433,-3.4604,-3.3831,-3.3087,-3.2384,-3.1387,-3.0825,-3.0488,-3.0389,-3.0749,-3.1868,-3.3064,-3.3986,-3.4857,-3.5728,-3.6258,-3.6383,-3.6415,-3.6461,-3.6476,-3.6476,-3.6492,-3.6492,-3.6492,-3.6492,-3.643,-3.6307,-3.5722,-3.5568,-3.5245,-3.4876,-3.4614,-3.4492,-3.4713,-3.5262,-3.588,-3.6572,-3.7469,-3.8185,-3.8287,-3.8439,-3.8767,-3.8819,-3.9215,-3.9698,-3.9991,-4.0233,-4.0526,-4.0733,-4.0836,-4.0819,-4.0871,-4.0664,-4.0526,-4.044,-4.0302,-4.0302,-4.0509,-4.025,-3.9698,-3.9513,-3.9163,-3.9103,-3.9105,-3.9071,-3.9066,-3.9428,-3.9713,-3.9717,-3.974,-3.9877,-4.0018,-4.0131,-4.0215,-4.0234,-3.9918,-3.9472,-3.938,-3.964,-3.9658,-3.9937,-4.0141,-4.0141,-2.769,-2.7242,-2.7231,-2.7231,-2.7313,-2.795,-2.8259,-2.8486,-2.9871,-3.0545,-3.0456,-3.1589,-3.22,-3.2273,-3.2561,-3.2775,-3.3112,-3.3505,-3.3858,-3.4211,-3.4604,-3.5096,-3.5517,-3.5911,-3.6318,-3.6599,-3.6838,-3.6866,-3.6796,-3.6613,-3.6023,-3.5479,-3.4787,-3.4014,-3.3185,-3.244,-3.1654,-3.1064,-3.0642,-3.0614,-3.0946,-3.1551,-3.2637,-3.3478,-3.4584,-3.5398,-3.5867,-3.6352,-3.6492,-3.6492,-3.6492,-3.6492,-3.6492,-3.6492,-3.6492,-3.6492,-3.6492,-3.6476,-3.6461,-3.6307,-3.6153,-3.6122,-3.5907,-3.5291,-3.5124,-3.5458,-3.6174,-3.6823,-3.7652,-3.8516,-3.8951,-3.9124,-3.9405,-3.9612,-3.9629,-3.9733,-4.0164,-4.0388,-4.0595,-4.044,-4.0664,-4.056,-4.0595,-4.056,-4.0353,-4.0164,-3.9957,-3.975,-3.9715,-3.9871,-3.9698,-3.9094,-3.8901,-3.8617,-3.843,-3.8409,-3.8351,-3.8366,-3.8744,-3.9079,-3.914,-3.9154,-3.9132,-3.9285,-3.9574,-3.9565,-3.9435,-3.9175,-3.9101,-3.9101,-3.9268,-3.9175,-3.9175,-3.9491,-3.9677,-2.7518,-2.7242,-2.7231,-2.7371,-2.7903,-2.8912,-2.9381,-2.9614,-3.038,-3.0771,-3.0895,-3.175,-3.22,-3.2417,-3.2646,-3.2913,-3.3434,-3.387,-3.4295,-3.4745,-3.5194,-3.5602,-3.5995,-3.6262,-3.6445,-3.6655,-3.6571,-3.6388,-3.622,-3.5883,-3.5423,-3.4407,-3.3986,-3.3213,-3.2286,-3.1457,-3.1021,-3.0698,-3.0558,-3.067,-3.1349,-3.2279,-3.2987,-3.3951,-3.5085,-3.5499,-3.5943,-3.6352,-3.6492,-3.6492,-3.6492,-3.6492,-3.6492,-3.6492,-3.6492,-3.6492,-3.6492,-3.6492,-3.6492,-3.6492,-3.6476,-3.6492,-3.6492,-3.6076,-3.6157,-3.6457,-3.7012,-3.7593,-3.8522,-3.9367,-3.9611,-3.9905,-4.0319,-4.0716,-4.056,-4.0388,-4.0595,-4.0802,-4.0664,-4.0405,-4.0267,-4.0112,-4.0077,-4.0077,-3.9905,-3.9474,-3.9129,-3.8888,-3.8853,-3.8974,-3.8767,-3.8284,-3.8226,-3.8156,-3.7965,-3.784,-3.7907,-3.7936,-3.8168,-3.8443,-3.8559,-3.881,-3.8966,-3.9063,-3.9157,-3.9138,-3.9194,-3.9157,-3.9101,-3.9101,-3.9101,-3.9101,-3.9101,-3.9175,-3.9287,-2.7231,-2.7231,-2.7301,-2.7914,-2.8954,-3.0266,-3.0882,-3.1193,-3.0758,-3.0882,-3.1415,-3.1882,-3.2345,-3.2731,-3.2985,-3.3434,-3.3968,-3.4391,-3.4913,-3.5222,-3.5658,-3.6009,-3.6164,-3.6501,-3.6192,-3.6051,-3.5784,-3.5419,-3.5012,-3.4632,-3.4084,-3.3213,-3.3129,-3.2398,-3.1134,-3.0839,-3.0628,-3.06,-3.074,-3.0993,-3.1664,-3.2376,-3.3293,-3.4515,-3.5139,-3.5479,-3.6226,-3.6492,-3.6492,-3.6492,-3.6492,-3.6492,-3.6492,-3.6492,-3.6492,-3.6492,-3.6492,-3.6492,-3.6492,-3.6492,-3.6492,-3.6492,-3.6492,-3.6477,-3.6714,-3.7192,-3.7681,-3.8199,-3.9076,-3.9839,-4.0229,-4.0341,-4.0681,-4.0836,-4.0733,-4.0664,-4.075,-4.0647,-4.0181,-3.9905,-3.9612,-3.9457,-3.9301,-3.9267,-3.9112,-3.8698,-3.8422,-3.8146,-3.7939,-3.8025,-3.7914,-3.7595,-3.7559,-3.7614,-3.7584,-3.7503,-3.7569,-3.7667,-3.788,-3.8168,-3.859,-3.8773,-3.891,-3.8989,-3.9101,-3.9101,-3.9101,-3.9101,-3.9101,-3.9101,-3.9101,-3.9101,-3.9101,-3.9101,-3.9101,-2.7231,-2.7231,-2.7788,-2.8633,-2.9626,-2.9614,-3.038,-3.1381,-3.0846,-3.1267,-3.2173,-3.2245,-3.2475,-3.3043,-3.3477,-3.387,-3.4209,-3.4829,-3.5588,-3.5686,-3.5953,-3.5925,-3.5897,-3.5756,-3.562,-3.5278,-3.4857,-3.4126,-3.348,-3.3115,-3.2792,-3.2047,-3.1977,-3.1373,-3.0614,-3.0465,-3.0544,-3.0769,-3.112,-3.1555,-3.2241,-3.348,-3.4655,-3.5154,-3.5479,-3.5958,-3.6492,-3.6492,-3.6492,-3.6492,-3.6492,-3.6492,-3.6492,-3.6476,-3.6476,-3.6476,-3.6338,-3.6292,-3.6276,-3.6261,-3.6276,-3.6384,-3.6538,-3.6845,-3.7251,-3.7738,-3.8238,-3.8799,-3.9473,-4.0237,-4.0728,-4.0823,-4.0871,-4.0871,-4.0802,-4.0802,-4.0784,-4.0233,-3.9664,-3.9284,-3.8939,-3.8732,-3.8543,-3.837,-3.8249,-3.8043,-3.7836,-3.7525,-3.7042,-3.6939,-3.7247,-3.7047,-3.6967,-3.6998,-3.7066,-3.7297,-3.7466,-3.7739,-3.8018,-3.83,-3.8603,-3.8815,-3.8989,-3.9045,-3.9101,-3.9101,-3.9101,-3.9101,-3.9101,-3.9101,-3.9101,-3.9101,-3.9101,-3.9101,-3.9101,-2.7464,-2.7301,-2.8063,-2.9147,-3.0165,-3.0304,-3.0983,-3.1823,-3.1516,-3.1869,-3.2775,-3.2618,-3.2704,-3.3241,-3.3691,-3.4084,-3.4295,-3.4871,-3.5222,-3.5503,-3.5672,-3.5705,-3.5479,-3.4997,-3.459,-3.4267,-3.3396,-3.2595,-3.2117,-3.1977,-3.178,-3.1218,-3.1078,-3.0951,-3.0544,-3.0558,-3.0839,-3.1373,-3.171,-3.2174,-3.2762,-3.3883,-3.4876,-3.5285,-3.5752,-3.6226,-3.6492,-3.6492,-3.6492,-3.6492,-3.6492,-3.6215,-3.6107,-3.5984,-3.583,-3.563,-3.5507,-3.5599,-3.563,-3.5691,-3.5799,-3.5983,-3.6022,-3.6185,-3.6732,-3.7263,-3.8161,-3.8781,-3.9851,-4.0631,-4.0728,-4.084,-4.0871,-4.0871,-4.0388,-4.0077,-3.9819,-3.9336,-3.8784,-3.8301,-3.8025,-3.7801,-3.7577,-3.7267,-3.7163,-3.7146,-3.6973,-3.7025,-3.6525,-3.6326,-3.6485,-3.6667,-3.6725,-3.6908,-3.7182,-3.7354,-3.754,-3.781,-3.8086,-3.8382,-3.8652,-3.8902,-3.9101,-3.9101,-3.9101,-3.9101,-3.9101,-3.9101,-3.9101,-3.9101,-3.9101,-3.9101,-3.9101,-3.9101,-3.9101,-2.7788,-2.7452,-2.8347,-2.9422,-3.0532,-3.1267,-3.1882,-3.2403,-3.2101,-3.239,-3.3016,-3.2775,-3.2931,-3.3171,-3.3452,-3.3831,-3.4239,-3.4688,-3.4913,-3.5068,-3.5068,-3.4913,-3.4618,-3.4253,-3.3649,-3.3059,-3.237,-3.1963,-3.1626,-3.1569,-3.1359,-3.0755,-3.0642,-3.0656,-3.0642,-3.0783,-3.1148,-3.1878,-3.2356,-3.2817,-3.3362,-3.3948,-3.4677,-3.5285,-3.5752,-3.6022,-3.6352,-3.6492,-3.6492,-3.6399,-3.6307,-3.5861,-3.5537,-3.5337,-3.5106,-3.4891,-3.4783,-3.4752,-3.466,-3.4737,-3.5087,-3.5282,-3.5294,-3.5633,-3.6278,-3.7026,-3.7911,-3.8791,-3.9856,-4.0271,-4.0367,-4.0431,-4.0526,-4.0422,-3.9819,-3.9267,-3.8853,-3.8474,-3.7991,-3.7456,-3.7198,-3.6991,-3.6766,-3.6439,-3.6335,-3.6301,-3.6284,-3.6284,-3.6284,-3.6343,-3.6444,-3.6667,-3.6829,-3.7027,-3.7279,-3.7429,-3.7577,-3.7721,-3.7949,-3.8318,-3.8652,-3.8931,-3.9073,-3.9101,-3.9101,-3.9101,-3.9101,-3.9101,-3.9101,-3.9101,-3.9101,-3.9101,-3.9101,-3.9101,-3.9101,-2.7626,-2.8099,-2.8767,-2.9459,-3.0152,-3.067,-3.122,-3.1676,-3.1549,-3.1942,-3.2632,-3.2789,-3.2931,-3.334,-3.3888,-3.414,-3.4098,-3.4464,-3.4857,-3.5124,-3.4478,-3.4084,-3.3677,-3.3227,-3.2469,-3.2061,-3.1907,-3.1963,-3.1569,-3.1485,-3.1457,-3.1246,-3.1246,-3.1274,-3.1302,-3.1443,-3.1668,-3.2328,-3.2704,-3.3038,-3.4182,-3.4624,-3.4758,-3.5285,-3.5879,-3.6211,-3.6476,-3.6492,-3.6492,-3.6338,-3.5968,-3.5383,-3.4906,-3.4645,-3.446,-3.4245,-3.4137,-3.4168,-3.4121,-3.4121,-3.4484,-3.4971,-3.5126,-3.5588,-3.621,-3.6801,-3.755,-3.8112,-3.8889,-3.8946,-3.9026,-3.9204,-3.9267,-3.9163,-3.8767,-3.8336,-3.7922,-3.768,-3.737,-3.6956,-3.6611,-3.6525,-3.649,-3.6318,-3.6318,-3.6284,-3.6284,-3.6284,-3.6284,-3.6343,-3.6444,-3.665,-3.6908,-3.7203,-3.7466,-3.7503,-3.7613,-3.7685,-3.788,-3.8382,-3.8725,-3.8931,-3.9055,-3.9101,-3.9101,-3.9101,-3.9101,-3.9101,-3.9101,-3.9101,-3.9101,-3.9101,-3.9082,-3.9101,-3.9101]}]]